[[{"header":{"parameterUnit":"m.s-1","parameterCategory":1,"la1":30.6,"la2":28.766,"lo1":-90.7593,"lo2":-88.6598,"dy":0.0162,"dx":0.0183,"nx":116,"ny":114,"refTime":"2023-10-09T00:00:00:Z","depth":0,"parameterNumber":2,"parameterNumberName":"U-component_of_WINDS"},"data":[0.0,0.0,0.0,0.0,0.0,0.0,0.0,0.0,0.0,0.0,0.0,0.0,0.0,0.0,0.0,0.0,0.0,0.0,0.0,0.0,0.0,0.0,0.0,0.0,0.0,0.0,0.0,0.0,0.0,0.0,0.0,0.0,0.0,0.0,0.0,0.0,0.0,0.0,0.0,0.0,0.0,0.0,0.0,0.0,0.0,0.0,0.0,0.0,0.0,0.0,0.0,0.0,0.0,0.0,0.0,0.0,0.0,0.0,0.0,0.0,0.0,0.0,0.0,0.0,0.0,0.0,0.0,0.0,0.0,0.0,0.0,0.0,0.0,0.0,0.0,0.0,0.0,0.0,0.0,0.0,0.0,0.0,0.0,0.0,0.0,0.0,0.0,0.0,0.0,0.0,0.0,0.0,0.0,0.0,0.0,0.0,0.0,0.0,0.0,0.0,0.0,0.0,0.0,0.0,0.0,0.0,0.0,0.0,0.0,0.0,0.0,0.0,0.0,0.0,0.0,0.0,0.0,0.0,0.0,0.0,0.0,0.0,0.0,0.0,0.0,0.0,0.0,0.0,0.0,0.0,0.0,0.0,0.0,0.0,0.0,0.0,0.0,0.0,0.0,0.0,0.0,0.0,0.0,0.0,0.0,0.0,0.0,0.0,0.0,0.0,0.0,0.0,0.0,0.0,0.0,0.0,0.0,0.0,0.0,0.0,0.0,0.0,0.0,0.0,0.0,0.0,0.0,0.0,0.0,0.0,0.0,0.0,0.0,0.0,0.0,0.0,0.0,0.0,0.0,0.0,0.0,0.0,0.0,0.0,0.0,0.0,0.0,0.0,0.0,0.0,0.0,0.0,0.0,0.0,0.0,0.0,0.0,0.0,0.0,0.0,0.0,0.0,0.0,0.0,0.0,0.0,0.0,0.0,0.0,0.0,0.0,0.0,0.0,0.0,0.0,0.0,0.0,0.0,0.0,0.0,0.0,0.0,0.0,0.0,0.0,0.0,0.0,0.0,0.0,0.0,0.0,0.0,0.0,0.0,0.0,0.0,0.0,0.0,0.0,0.0,0.0,0.0,0.0,0.0,0.0,0.0,0.0,0.0,0.0,0.0,0.0,0.0,0.0,0.0,0.0,0.0,0.0,0.0,0.0,0.0,0.0,0.0,0.0,0.0,0.0,0.0,0.0,0.0,0.0,0.0,0.0,0.0,0.0,0.0,0.0,0.0,0.0,0.0,0.0,0.0,0.0,0.0,0.0,0.0,0.0,0.0,0.0,0.0,0.0,0.0,0.0,0.0,0.0,0.0,0.0,0.0,0.0,0.0,0.0,0.0,0.0,0.0,0.0,0.0,0.0,0.0,0.0,0.0,0.0,0.0,0.0,0.0,0.0,0.0,0.0,0.0,0.0,0.0,0.0,0.0,0.0,0.0,0.0,0.0,0.0,0.0,0.0,0.0,0.0,0.0,0.0,0.0,0.0,0.0,0.0,0.0,0.0,0.0,0.0,0.0,0.0,0.0,0.0,0.0,0.0,0.0,0.0,0.0,0.0,0.0,0.0,0.0,0.0,0.0,0.0,0.0,0.0,0.0,0.0,0.0,0.0,0.0,0.0,0.0,0.0,0.0,0.0,0.0,0.0,0.0,0.0,0.0,0.0,0.0,0.0,0.0,0.0,0.0,0.0,0.0,0.0,0.0,0.0,0.0,0.0,0.0,0.0,0.0,0.0,0.0,0.0,0.0,0.0,0.0,0.0,0.0,0.0,0.0,0.0,0.0,0.0,0.0,0.0,0.0,0.0,0.0,0.0,0.0,0.0,0.0,0.0,0.0,0.0,0.0,0.0,0.0,0.0,0.0,0.0,0.0,0.0,0.0,0.0,0.0,0.0,0.0,0.0,0.0,0.0,0.0,0.0,0.0,0.0,0.0,0.0,0.0,0.0,0.0,0.0,0.0,0.0,0.0,0.0,0.0,0.0,0.0,0.0,0.0,0.0,0.0,0.0,0.0,0.0,0.0,0.0,0.0,0.0,0.0,0.0,0.0,0.0,0.0,0.0,0.0,0.0,0.0,0.0,0.0,0.0,0.0,0.0,0.0,0.0,0.0,0.0,0.0,0.0,0.0,0.0,0.0,0.0,0.0,0.0,0.0,0.0,0.0,0.0,0.0,0.0,0.0,0.0,0.0,0.0,0.0,0.0,0.0,0.0,0.0,0.0,0.0,0.0,0.0,0.0,0.0,0.0,0.0,0.0,0.0,0.0,0.0,0.0,0.0,0.0,0.0,0.0,0.0,0.0,0.0,0.0,0.0,0.0,0.0,0.0,0.0,0.0,0.0,0.0,0.0,0.0,0.0,0.0,0.0,0.0,0.0,0.0,0.0,0.0,0.0,0.0,0.0,0.0,0.0,0.0,0.0,0.0,0.0,0.0,0.0,0.0,0.0,0.0,0.0,0.0,0.0,0.0,0.0,0.0,0.0,0.0,0.0,0.0,0.0,0.0,0.0,0.0,0.0,0.0,0.0,0.0,0.0,0.0,0.0,0.0,0.0,0.0,0.0,0.0,0.0,0.0,0.0,0.0,0.0,0.0,0.0,0.0,0.0,0.0,0.0,0.0,0.0,0.0,0.0,0.0,0.0,0.0,0.0,0.0,0.0,0.0,0.0,0.0,0.0,0.0,0.0,0.0,0.0,0.0,0.0,0.0,0.0,0.0,0.0,0.0,0.0,0.0,0.0,0.0,0.0,0.0,0.0,0.0,0.0,0.0,0.0,0.0,0.0,0.0,0.0,0.0,0.0,0.0,0.0,0.0,0.0,0.0,0.0,0.0,0.0,0.0,0.0,0.0,0.0,0.0,0.0,0.0,0.0,0.0,0.0,0.0,0.0,0.0,0.0,0.0,0.0,0.0,0.0,0.0,0.0,0.0,0.0,0.0,0.0,0.0,0.0,0.0,0.0,0.0,0.0,0.0,0.0,0.0,0.0,0.0,0.0,0.0,0.0,0.0,0.0,0.0,0.0,0.0,0.0,0.0,0.0,0.0,0.0,0.0,0.0,0.0,0.0,0.0,0.0,0.0,0.0,0.0,0.0,0.0,0.0,0.0,0.0,0.0,0.0,0.0,0.0,0.0,0.0,0.0,0.0,0.0,0.0,0.0,0.0,0.0,0.0,0.0,0.0,0.0,0.0,0.0,0.0,0.0,0.0,0.0,0.0,0.0,0.0,0.0,0.0,0.0,0.0,0.0,0.0,0.0,0.0,0.0,0.0,0.0,0.0,0.0,0.0,0.0,0.0,0.0,0.0,0.0,0.0,0.0,0.0,0.0,0.0,0.0,0.0,0.0,0.0,0.0,0.0,0.0,0.0,0.0,0.0,0.0,0.0,0.0,0.0,0.0,0.0,0.0,0.0,0.0,0.0,0.0,0.0,0.0,0.0,0.0,0.0,0.0,0.0,0.0,0.0,0.0,0.0,0.0,0.0,0.0,0.0,0.0,0.0,0.0,0.0,0.0,0.0,0.0,0.0,0.0,0.0,0.0,0.0,0.0,0.0,0.0,0.0,0.0,0.0,0.0,0.0,0.0,0.0,0.0,0.0,0.0,0.0,0.0,0.0,0.0,0.0,0.0,0.0,0.0,0.0,0.0,0.0,0.0,0.0,0.0,0.0,0.0,0.0,0.0,0.0,0.0,0.0,0.0,0.0,0.0,0.0,0.0,0.0,0.0,0.0,0.0,0.0,0.0,0.0,0.0,0.0,0.0,0.0,0.0,0.0,0.0,0.0,0.0,0.0,0.0,0.0,0.0,0.0,0.0,0.0,0.0,0.0,0.0,0.0,0.0,0.0,0.0,0.0,0.0,0.0,0.0,0.0,0.0,0.0,0.0,0.0,0.0,0.0,0.0,0.0,0.0,0.0,0.0,0.0,0.0,0.0,0.0,0.0,0.0,0.0,0.0,0.0,0.0,0.0,0.0,0.0,0.0,0.0,0.0,0.0,0.0,0.0,0.0,0.0,0.0,0.0,0.0,0.0,0.0,0.0,0.0,0.0,0.0,0.0,0.0,0.0,0.0,0.0,0.0,0.0,0.0,0.0,0.0,0.0,0.0,0.0,0.0,0.0,0.0,0.0,0.0,0.0,0.0,0.0,0.0,0.0,0.0,0.0,0.0,0.0,0.0,0.0,0.0,0.0,0.0,0.0,0.0,0.0,0.0,0.0,0.0,0.0,0.0,0.0,0.0,0.0,0.0,0.0,0.0,0.0,0.0,0.0,0.0,0.0,0.0,0.0,0.0,0.0,0.0,0.0,0.0,0.0,0.0,0.0,0.0,0.0,0.0,0.0,0.0,0.0,0.0,0.0,0.0,0.0,0.0,0.0,0.0,0.0,0.0,0.0,0.0,0.0,0.0,0.0,0.0,0.0,0.0,0.0,0.0,0.0,0.0,0.0,0.0,0.0,0.0,0.0,0.0,0.0,0.0,0.0,0.0,0.0,0.0,0.0,0.0,0.0,0.0,0.0,0.0,0.0,0.0,0.0,0.0,0.0,0.0,0.0,0.0,0.0,0.0,0.0,0.0,0.0,0.0,0.0,0.0,0.0,0.0,0.0,0.0,0.0,0.0,0.0,0.0,0.0,0.0,0.0,0.0,0.0,0.0,0.0,0.0,0.0,0.0,0.0,0.0,0.0,0.0,0.0,0.0,0.0,0.0,0.0,0.0,0.0,0.0,0.0,0.0,0.0,0.0,0.0,0.0,0.0,0.0,0.0,0.0,0.0,0.0,0.0,0.0,0.0,0.0,0.0,0.0,0.0,0.0,0.0,0.0,0.0,0.0,0.0,0.0,0.0,0.0,0.0,0.0,0.0,0.0,0.0,0.0,0.0,0.0,0.0,0.0,0.0,0.0,0.0,0.0,0.0,0.0,0.0,0.0,0.0,0.0,0.0,0.0,0.0,0.0,0.0,0.0,0.0,0.0,0.0,0.0,0.0,0.0,0.0,0.0,0.0,0.0,0.0,0.0,0.0,0.0,0.0,0.0,0.0,0.0,0.0,0.0,0.0,0.0,0.0,0.0,0.0,0.0,0.0,0.0,0.0,0.0,0.0,0.0,0.0,0.0,0.0,0.0,0.0,0.0,0.0,0.0,0.0,0.0,0.0,0.0,0.0,0.0,0.0,0.0,0.0,0.0,0.0,0.0,0.0,0.0,0.0,0.0,0.0,0.0,0.0,0.0,0.0,0.0,0.0,0.0,0.0,0.0,0.0,0.0,0.0,0.0,0.0,0.0,0.0,0.0,0.0,0.0,0.0,0.0,0.0,0.0,0.0,0.0,0.0,0.0,0.0,0.0,0.0,0.0,0.0,0.0,0.0,0.0,0.0,0.0,0.0,0.0,0.0,0.0,0.0,0.0,0.0,0.0,0.0,0.0,0.0,0.0,0.0,0.0,0.0,0.0,0.0,0.0,0.0,0.0,0.0,0.0,0.0,0.0,0.0,0.0,0.0,0.0,0.0,0.0,0.0,0.0,0.0,0.0,0.0,0.0,0.0,0.0,0.0,0.0,0.0,0.0,0.0,0.0,0.0,0.0,0.0,0.0,0.0,0.0,0.0,0.0,0.0,0.0,0.0,0.0,0.0,0.0,0.0,0.0,0.0,0.0,0.0,0.0,0.0,0.0,0.0,0.0,0.0,0.0,0.0,0.0,0.0,0.0,0.0,0.0,0.0,0.0,0.0,0.0,0.0,0.0,0.0,0.0,0.0,0.0,0.0,0.0,0.0,0.0,0.0,0.0,0.0,0.0,0.0,0.0,0.0,0.0,0.0,0.0,0.0,0.0,0.0,0.0,0.0,0.0,0.0,0.0,0.0,0.0,0.0,0.0,0.0,0.0,0.0,0.0,0.0,0.0,0.0,0.0,0.0,0.0,0.0,0.0,0.0,0.0,0.0,0.0,0.0,0.0,0.0,0.0,0.0,0.0,0.0,0.0,0.0,0.0,0.0,0.0,0.0,0.0,0.0,0.0,0.0,0.0,0.0,0.0,0.0,0.0,0.0,0.0,0.0,0.0,0.0,0.0,0.0,0.0,0.0,0.0,0.0,0.0,0.0,0.0,0.0,0.0,0.0,3.1049,3.1076,0.0,0.0,0.0,0.0,0.0,0.0,0.0,0.0,0.0,0.0,0.0,0.0,0.0,0.0,0.0,0.0,0.0,0.0,0.0,0.0,0.0,0.0,0.0,0.0,0.0,0.0,0.0,0.0,0.0,0.0,0.0,0.0,0.0,0.0,0.0,0.0,0.0,3.5261,3.663,3.748,3.7891,3.7891,3.7773,3.7598,0.0,0.0,0.0,0.0,0.0,0.0,0.0,0.0,0.0,0.0,0.0,0.0,0.0,0.0,0.0,0.0,0.0,0.0,0.0,0.0,0.0,0.0,0.0,0.0,0.0,0.0,0.0,0.0,0.0,0.0,0.0,0.0,0.0,0.0,0.0,0.0,0.0,0.0,0.0,0.0,0.0,0.0,0.0,0.0,0.0,0.0,0.0,0.0,0.0,0.0,0.0,0.0,0.0,0.0,0.0,0.0,0.0,0.0,0.0,0.0,0.0,0.0,0.0,0.0,0.0,0.0,0.0,0.0,0.0,0.0,3.1957,3.165,0.0,0.0,0.0,0.0,0.0,0.0,0.0,0.0,0.0,0.0,0.0,0.0,0.0,0.0,0.0,0.0,0.0,0.0,0.0,0.0,0.0,0.0,0.0,2.5344,2.5698,2.6175,2.6134,2.7022,0.0,0.0,0.0,0.0,0.0,0.0,3.7332,3.5924,3.5927,3.7637,3.8203,3.8887,3.9668,4.0117,3.9805,3.8789,3.8066,0.0,0.0,0.0,0.0,0.0,0.0,0.0,0.0,0.0,0.0,0.0,0.0,0.0,0.0,0.0,0.0,0.0,0.0,0.0,0.0,0.0,0.0,0.0,0.0,0.0,0.0,0.0,0.0,0.0,0.0,0.0,0.0,0.0,0.0,0.0,0.0,0.0,0.0,0.0,0.0,0.0,0.0,0.0,0.0,0.0,0.0,0.0,0.0,0.0,0.0,0.0,0.0,0.0,0.0,0.0,0.0,0.0,0.0,0.0,0.0,0.0,0.0,0.0,3.2666,3.2933,3.3227,3.348,3.3761,3.3988,3.3,3.2398,3.2144,3.2332,0.0,0.0,0.0,0.0,0.0,0.0,0.0,0.0,0.0,0.0,0.0,0.0,0.0,0.0,0.0,0.0,0.0,0.0,0.0,0.0,0.0,2.5344,2.646,2.8883,2.8754,2.9549,3.2037,0.0,0.0,0.0,0.0,0.0,3.776,3.7546,3.7914,3.8945,4.0156,4.0996,4.1465,4.1894,4.2207,4.2305,4.041,3.9785,4.0156,0.0,0.0,0.0,0.0,0.0,0.0,0.0,0.0,0.0,0.0,0.0,0.0,0.0,0.0,0.0,0.0,0.0,0.0,0.0,0.0,0.0,0.0,0.0,0.0,0.0,0.0,0.0,0.0,0.0,0.0,0.0,0.0,0.0,0.0,0.0,0.0,0.0,0.0,0.0,0.0,0.0,2.8604,2.8938,0.0,0.0,0.0,0.0,0.0,0.0,0.0,0.0,0.0,0.0,0.0,0.0,0.0,3.2559,3.2973,3.312,3.3334,3.3654,3.3694,3.3855,3.4148,3.4189,3.4362,3.4629,3.4482,0.0,3.3948,3.3734,0.0,0.0,0.0,0.0,0.0,0.0,0.0,0.0,0.0,0.0,0.0,0.0,0.0,0.0,0.0,0.0,0.0,0.0,0.0,0.0,0.0,2.753,2.8824,3.1367,3.2299,3.3339,3.4609,3.4239,0.0,0.0,0.0,3.6363,3.8281,3.8516,3.9414,4.1016,4.207,4.3066,4.3984,4.4414,4.4707,4.4844,4.3672,4.2305,4.0859,4.043,0.0,0.0,0.0,0.0,0.0,0.0,0.0,0.0,0.0,0.0,0.0,0.0,0.0,0.0,0.0,0.0,0.0,0.0,0.0,0.0,0.0,0.0,0.0,0.0,0.0,0.0,0.0,0.0,0.0,0.0,0.0,0.0,0.0,0.0,0.0,0.0,0.0,0.0,0.0,2.8751,2.9272,2.9726,2.978,2.9833,0.0,0.0,0.0,0.0,0.0,0.0,0.0,0.0,0.0,3.332,3.348,3.3761,3.4215,3.4349,3.4563,3.487,3.5044,3.5271,3.5551,3.5551,3.5618,3.5725,3.5565,3.5431,3.5257,3.4629,3.4362,3.4322,0.0,0.0,0.0,0.0,3.3915,3.2636,0.0,0.0,0.0,0.0,0.0,0.0,0.0,0.0,0.0,0.0,0.0,0.0,2.8671,3.0145,3.2015,3.4677,3.5884,3.6944,3.7914,3.7222,3.744,3.8891,3.7699,3.7511,3.8574,3.9531,4.0918,4.2754,4.4062,4.5195,4.6172,4.6699,4.6953,4.6933,4.6504,4.4766,4.2129,4.1562,4.0762,3.9824,0.0,0.0,0.0,0.0,0.0,0.0,0.0,0.0,0.0,0.0,0.0,0.0,0.0,0.0,0.0,0.0,0.0,0.0,0.0,0.0,0.0,0.0,0.0,0.0,0.0,0.0,0.0,0.0,0.0,0.0,0.0,0.0,0.0,0.0,0.0,0.0,0.0,2.9486,2.9953,3.0314,3.0555,3.0662,0.0,0.0,0.0,0.0,0.0,0.0,3.3066,3.3253,3.3814,3.4843,3.5017,3.5311,3.5752,3.5832,3.5979,3.6193,3.6393,3.662,3.6834,3.6834,3.6874,3.6941,3.5741,3.532,3.5333,3.5192,3.4923,3.4683,3.4897,3.4504,3.3823,3.403,3.2304,2.9868,0.0,0.0,0.0,0.0,0.0,0.0,0.0,0.0,0.0,0.0,0.0,2.8417,2.9592,3.2745,3.6106,3.9375,3.9295,4.0095,4.2608,3.6877,3.5257,3.9654,3.5326,3.4619,3.8501,4.0996,4.2715,4.3633,4.6152,4.7422,4.75,4.834,4.873,4.8711,4.8281,4.6875,4.4766,4.3906,4.2812,4.1641,4.1211,0.0,0.0,0.0,0.0,0.0,0.0,0.0,0.0,0.0,0.0,0.0,0.0,0.0,0.0,0.0,0.0,0.0,0.0,0.0,0.0,0.0,0.0,0.0,0.0,0.0,0.0,0.0,0.0,0.0,0.0,0.0,0.0,0.0,0.0,0.0,0.0,0.0,0.0,3.0394,3.1089,0.0,0.0,0.0,0.0,3.2398,3.2719,3.34,3.4589,3.5177,3.5752,3.638,3.6941,3.7235,3.7275,3.7555,3.7702,3.7702,3.7702,3.7742,3.7742,3.7742,3.7889,3.8042,3.4505,3.323,3.3614,3.5359,3.5832,3.5565,3.5578,3.377,3.1154,3.1166,2.9375,2.6992,0.0,0.0,0.0,0.0,0.0,0.0,0.0,0.0,2.4489,2.4877,2.7424,3.013,3.263,3.6354,3.9891,4.2922,4.3776,4.4233,4.4291,4.1322,4.0047,4.1055,3.833,3.8141,4.0938,4.25,4.4219,4.6191,4.8242,4.9394,4.9668,5.0527,5.0781,5.0488,5.0078,4.916,4.7773,4.5508,4.3808,4.2558,4.1855,4.1055,0.0,0.0,0.0,0.0,0.0,0.0,0.0,0.0,0.0,0.0,0.0,0.0,0.0,0.0,0.0,0.0,0.0,0.0,0.0,0.0,0.0,0.0,0.0,0.0,0.0,0.0,0.0,0.0,0.0,0.0,0.0,0.0,0.0,0.0,0.0,0.0,0.0,3.1984,3.2666,0.0,3.2666,3.2986,3.3427,3.3921,3.4589,3.5485,3.666,3.6901,3.7408,3.8183,3.8424,3.8611,3.8798,3.8905,3.797,3.5842,3.5842,3.4857,3.2838,3.2682,3.2648,3.2584,3.1168,3.0616,3.0658,3.1273,3.1075,3.0421,3.0421,2.9697,2.8623,2.8623,2.687,2.437,0.0,0.0,0.0,0.0,0.0,0.0,0.0,0.0,2.4661,2.5802,2.9108,3.2533,3.5886,4.0167,4.3698,4.6143,4.6836,4.6719,4.5742,4.2466,4.0901,4.1542,4.0625,4.1016,4.3047,4.4629,4.6426,4.8457,5.0195,5.1172,5.1465,5.2031,5.207,5.1641,5.1367,5.0762,4.9805,4.7519,4.5625,4.4082,4.3223,4.2539,4.1953,0.0,0.0,0.0,0.0,0.0,0.0,0.0,0.0,0.0,0.0,0.0,0.0,0.0,0.0,0.0,0.0,0.0,0.0,0.0,0.0,0.0,0.0,0.0,0.0,0.0,0.0,0.0,0.0,0.0,0.0,0.0,0.0,0.0,0.0,3.169,3.2786,3.336,3.4309,3.479,3.4482,3.4817,3.5257,3.5752,3.6433,3.7275,3.8357,3.8611,3.844,3.7997,3.8018,3.7651,3.6735,3.6735,3.5676,3.3505,3.3505,3.2468,3.0359,3.0219,3.0015,3.0015,2.8636,2.8083,2.8055,2.6831,2.5939,2.5484,2.7173,2.7067,2.6034,2.6109,2.426,2.1711,0.0,0.0,0.0,0.0,0.0,0.0,0.0,2.4195,2.5001,2.7403,3.1501,3.5622,3.9304,4.4043,4.7539,4.8828,4.8144,4.7441,4.6973,4.0005,3.7506,4.1074,4.166,4.2734,4.4512,4.7402,4.9355,5.0254,5.1914,5.2715,5.2715,5.2715,5.25,5.2109,5.2109,5.1641,5.0801,4.998,4.8398,4.6387,4.5449,4.5058,4.4746,0.0,0.0,0.0,0.0,0.0,0.0,0.0,0.0,0.0,0.0,0.0,0.0,0.0,0.0,0.0,0.0,0.0,0.0,0.0,0.0,0.0,0.0,0.0,0.0,0.0,0.0,0.0,0.0,0.0,0.0,0.0,0.0,0.0,3.0929,3.2906,3.4402,3.4442,3.5965,3.6901,3.662,3.662,3.6981,3.7809,3.8055,3.8602,3.9494,3.9946,3.8771,3.5648,3.5917,3.4512,3.1083,3.1073,3.0976,3.0839,3.0839,3.0829,3.0701,3.0701,3.0701,3.0584,2.7263,2.5868,2.5602,2.2291,2.0912,2.1321,2.6192,2.6078,2.3207,2.3381,2.1601,1.9061,0.0,0.0,0.0,0.0,0.0,0.0,0.0,2.3888,2.4922,2.7598,3.2385,3.7076,4.0941,4.6062,4.9668,5.0644,4.9668,4.8535,4.748,4.3117,4.1029,4.201,4.3398,4.5391,4.8066,4.9238,5.0547,5.2012,5.2793,5.3008,5.2715,5.3027,5.2949,5.2539,5.2539,5.2402,5.2168,5.1933,5.1133,4.9805,4.7383,4.584,4.4922,0.0,0.0,0.0,0.0,0.0,0.0,0.0,0.0,0.0,0.0,0.0,0.0,0.0,0.0,0.0,0.0,0.0,0.0,0.0,0.0,0.0,0.0,0.0,0.0,0.0,0.0,0.0,0.0,0.0,0.0,0.0,3.1931,3.2625,3.2986,3.4696,3.6219,3.7088,3.8183,3.8758,3.8464,3.8798,3.9159,3.9412,3.7538,3.6723,3.7355,3.5222,3.3708,3.3089,3.3173,3.2805,3.1778,3.1929,3.0612,2.8003,2.8145,2.6886,2.4405,2.4405,2.4405,2.4405,2.3362,2.2928,2.2774,2.1639,2.1123,2.1171,2.245,2.2196,2.1175,2.1218,2.0647,1.98,0.0,0.0,0.0,0.0,0.0,0.0,0.0,2.3794,2.528,2.9018,3.3661,3.8411,4.303,4.7699,5.0566,5.0879,4.9726,4.8281,4.6621,4.4121,4.2523,4.2283,4.5058,4.7793,5.0273,5.1465,5.2637,5.3808,5.4414,5.4492,5.4062,5.4316,5.4121,5.3535,5.3535,5.334,5.2988,5.2988,5.2598,5.1797,4.9863,4.832,4.7051,4.5898,4.5195,4.4766,4.4043,4.3867,4.3808,4.2637,0.0,0.0,0.0,0.0,0.0,0.0,0.0,0.0,0.0,0.0,0.0,0.0,0.0,0.0,0.0,0.0,0.0,0.0,0.0,0.0,0.0,0.0,0.0,0.0,3.3547,3.4656,3.5765,3.6687,3.7635,3.8691,3.8501,3.8146,3.7847,3.687,3.631,3.6529,3.5004,3.4243,3.4767,3.2837,3.1256,3.0051,3.007,2.9286,2.7836,2.7931,2.6881,2.4803,2.4903,2.3888,2.1882,2.1882,2.1882,2.1882,2.1794,2.176,2.174,2.1496,2.1408,2.1374,0.0,0.0,0.0,0.0,2.0275,2.0207,0.0,0.0,0.0,0.0,0.0,0.0,0.0,2.3821,2.5853,3.0755,3.4863,3.9409,4.4911,4.8516,5.0469,5.0195,4.8887,4.7207,4.5156,4.3945,4.3177,4.2863,4.7002,5.0117,5.1894,5.3887,5.5117,5.5605,5.6269,5.6406,5.6074,5.6035,5.5605,5.4902,5.4902,5.4453,5.373,5.3672,5.3398,5.2969,5.248,5.1445,4.9961,4.7969,4.7598,4.793,4.6426,4.543,4.4746,4.418,0.0,0.0,0.0,0.0,0.0,0.0,0.0,0.0,0.0,0.0,0.0,0.0,0.0,0.0,0.0,0.0,0.0,0.0,0.0,0.0,0.0,0.0,0.0,0.0,3.4821,3.6263,3.7529,3.7594,3.7997,3.9177,3.7187,3.5748,3.5657,3.305,3.1447,3.1638,3.1426,3.1361,3.168,3.1311,0.0,0.0,0.0,2.5012,2.1937,2.1971,2.1971,2.1937,2.1971,2.1971,2.1937,2.1971,2.1971,2.1937,2.1937,2.1916,2.1903,2.176,2.1692,2.1652,2.1197,2.0946,2.079,2.0505,2.0404,2.0417,0.0,0.0,0.0,0.0,0.0,0.0,0.0,2.3781,2.5684,3.0578,3.4564,3.8724,4.3549,4.7168,4.9492,5.0117,4.834,4.6562,4.5117,4.4785,4.5666,4.7964,5.057,5.293,5.5019,5.582,5.6601,5.7363,5.6836,5.6719,5.6953,5.6621,5.6367,5.6211,5.6211,5.6133,5.5937,5.5586,5.5195,5.4746,5.3965,5.2266,5.0098,4.9316,4.8476,4.7656,4.7324,4.7324,4.7305,4.6172,4.5683,4.5312,4.3906,4.3223,0.0,0.0,0.0,0.0,0.0,0.0,0.0,0.0,0.0,0.0,0.0,0.0,0.0,0.0,0.0,0.0,0.0,0.0,0.0,3.1689,3.2773,3.3233,3.2055,3.2297,3.3771,3.6934,3.4752,3.2972,3.2997,3.2403,3.2059,3.2221,2.9634,2.8091,2.8117,2.5464,2.3684,2.3128,2.3141,2.2922,2.2249,2.2479,2.2479,2.2249,2.25,0.0,2.2249,2.25,2.2479,2.2249,2.2249,2.2181,2.2059,2.1903,2.1848,2.1794,2.1353,2.1157,2.1109,2.0933,2.0878,2.0878,0.0,0.0,0.0,0.0,0.0,0.0,0.0,2.4022,2.5604,2.9488,3.2487,3.6167,4.0995,4.2944,4.4696,4.6756,4.5351,4.4473,4.4687,4.5508,4.7422,5.0664,5.2656,5.4492,5.623,5.7109,5.7851,5.8555,5.8535,5.8535,5.8496,5.8086,5.7793,5.7539,5.7324,5.7109,5.6875,5.666,5.6211,5.5566,5.4922,5.3769,5.2344,5.1465,5.084,5.041,4.998,4.9551,4.9062,4.8203,4.748,4.6758,4.5664,4.4079,4.2275,0.0,0.0,0.0,0.0,0.0,0.0,0.0,0.0,0.0,0.0,0.0,0.0,0.0,0.0,3.161,3.0627,0.0,3.2025,3.0377,3.0944,3.157,3.1076,2.9971,3.0452,3.3948,3.1535,2.9643,2.9722,2.8227,2.7393,2.7477,2.5939,2.4919,2.4919,2.3282,2.2378,2.2445,2.252,2.2567,2.2567,2.271,2.271,2.2567,2.271,2.271,2.2567,2.271,2.2696,2.2554,2.2479,2.2411,2.2323,2.2093,2.195,2.1862,2.1638,2.1509,2.1441,2.1353,2.1231,2.1123,0.0,0.0,0.0,0.0,0.0,0.0,0.0,2.4289,2.5557,2.8298,3.0358,3.3259,3.7738,3.8639,4.0054,4.2934,4.2392,4.2698,4.4785,4.6641,4.918,5.2558,5.4375,5.5859,5.707,5.8301,5.9121,5.9531,6.0156,6.0312,6.0039,5.9629,5.9238,5.8887,5.8535,5.8144,5.7832,5.7656,5.7187,5.6523,5.5918,5.5469,5.5039,5.3711,5.3281,5.3262,5.248,5.1269,5.0019,4.9746,4.873,4.7539,4.7266,4.4989,4.2207,4.0818,3.6925,0.0,0.0,0.0,0.0,0.0,0.0,0.0,0.0,3.0408,3.1049,3.169,3.2254,3.2124,3.0457,3.0585,3.0342,2.8731,2.9125,2.9727,2.9863,2.7742,2.7149,2.9717,2.7785,2.6195,2.6405,2.3978,2.2479,2.2622,2.273,2.2798,2.2818,2.2798,2.2798,2.2818,2.2832,2.2832,2.2873,2.2907,2.2907,2.2907,2.2907,2.2886,2.2832,2.2852,2.2832,2.2784,2.2656,2.2588,2.2534,2.2289,2.2113,2.1971,2.1971,2.1903,2.1794,2.1706,2.1509,2.1319,0.0,0.0,0.0,0.0,0.0,0.0,0.0,0.0,2.5167,2.7806,2.9578,3.1481,3.3703,3.6887,3.956,4.1327,4.1876,4.3439,4.6386,4.8984,5.1738,5.4805,5.6601,5.793,5.8887,5.9746,6.0449,6.0859,6.0566,6.0605,6.0918,6.0508,6.0273,6.0215,6.0156,6.0137,6.0039,5.9297,5.8906,5.8711,5.748,5.6973,5.6797,5.5508,5.4336,5.3301,5.2812,5.1328,4.9648,5.0,4.8984,4.7637,4.7969,4.5935,4.2852,3.9587,3.6234,3.3028,3.0152,2.9152,2.9058,2.9312,2.9806,3.0421,0.0,3.2078,3.2933,3.3801,3.2431,3.1274,3.1524,3.0517,2.87,2.6021,2.6319,2.6206,2.3689,2.3088,2.3055,2.3726,2.325,2.2945,2.3237,2.2998,2.2798,2.294,2.2852,2.2832,2.2974,2.2852,2.2852,2.2974,2.2995,2.3042,2.3171,2.3307,2.3381,2.3381,2.3381,2.3239,2.2995,2.3117,2.3029,2.2784,2.2764,2.2676,2.2554,2.252,2.2411,2.2289,2.2289,2.2289,2.2215,2.1815,2.1652,2.1597,0.0,0.0,0.0,0.0,0.0,0.0,0.0,0.0,0.0,2.594,2.6951,2.8857,3.2146,3.6236,3.7968,3.6313,3.9528,4.2997,4.6318,4.9004,5.2012,5.5527,5.7324,5.8555,5.918,6.0273,6.0898,6.1094,6.1133,6.125,6.1426,6.1015,6.0801,6.0801,6.0547,6.0312,6.0039,5.9687,5.9238,5.8711,5.791,5.7441,5.707,5.5801,5.4336,5.2851,5.1933,5.0703,0.0,4.8867,4.8183,4.7379,4.5891,4.3524,4.0521,3.7231,3.3993,3.1193,2.9697,2.9419,2.97,3.0341,3.1076,3.1917,3.2973,3.2456,3.1965,3.2733,3.124,2.9334,2.8014,2.7633,2.657,2.3712,2.3769,2.3767,2.2696,2.2466,2.2479,2.252,2.2479,2.2622,2.2995,2.3042,2.3137,2.3381,2.3347,2.3327,2.3402,2.3347,2.3327,2.3402,2.3402,2.3436,2.349,2.347,2.3449,2.3449,2.3361,2.3259,2.313,2.3185,2.3063,2.2784,2.2696,2.2567,2.2432,2.2432,2.2391,2.2337,2.2337,2.2337,2.2323,2.2127,2.195,2.1774,0.0,0.0,0.0,0.0,0.0,0.0,0.0,0.0,0.0,0.0,2.5144,2.7216,3.1684,3.4429,3.5481,3.4319,3.7924,4.1901,4.5723,4.8496,5.1719,5.5586,5.7539,5.8828,5.9531,6.0683,6.1269,6.1269,6.1543,6.1719,6.1719,6.1426,6.1269,6.125,6.0918,6.0625,6.0332,6.0098,5.9629,5.9004,5.832,5.7637,5.6875,5.5351,5.3613,5.1894,5.0957,4.9292,4.7366,4.6517,4.5592,4.4651,4.282,4.0407,3.7805,3.5423,3.2498,2.99,2.986,3.0114,3.0635,3.1583,3.2559,3.3614,3.487,3.3342,3.1882,3.2631,3.0289,2.7481,2.5584,2.5177,2.4405,2.2302,2.2201,2.2466,2.2656,2.2608,2.252,2.2411,2.2411,2.2588,2.2995,2.3151,2.3347,2.3666,2.368,2.37,2.3734,2.37,2.37,2.3734,2.37,2.37,2.3734,2.3626,2.3571,2.3571,2.3415,2.3327,2.3273,2.3205,2.3029,2.2784,2.2662,2.2534,2.2391,2.2391,2.1804,2.079,2.079,2.0098,1.925,1.925,1.9784,2.0366,0.0,0.0,0.0,0.0,0.0,0.0,0.0,0.0,0.0,0.0,0.0,0.0,0.0,3.0602,3.1733,3.7859,3.8045,3.9831,4.4694,4.7871,5.1289,5.5156,5.7383,5.9101,6.0371,6.125,6.1719,6.1719,6.1719,6.1719,6.1719,6.1719,6.1719,6.1719,6.166,6.166,6.1601,6.0781,6.039,6.0273,5.9004,5.7734,5.6367,5.4238,5.2109,5.0254,5.0215,4.6941,4.2594,4.2557,4.0614,3.8363,3.907,3.7563,3.5334,3.5,3.2484,3.0047,3.0595,3.1169,3.1891,3.3053,3.4242,3.5498,3.6941,3.5291,3.3792,3.4925,3.0304,2.5996,2.6173,2.393,2.2059,2.2079,2.2357,2.2656,2.2961,2.2744,2.2554,2.2554,2.2303,2.2235,2.2554,2.2961,2.3347,2.3666,2.368,2.3734,2.3877,2.3754,2.3754,2.3877,2.3754,2.3754,2.389,2.3877,2.3877,2.3877,2.3734,2.3592,2.3436,2.3151,2.292,2.2784,2.2784,2.2696,2.2554,2.2554,2.0353,1.7016,1.6872,1.4647,1.1584,1.1584,1.3692,1.6669,0.0,0.0,0.0,0.0,0.0,0.0,0.0,0.0,0.0,0.0,0.0,0.0,0.0,0.0,0.0,0.0,3.8179,4.0356,4.3082,4.666,4.9746,5.2207,5.5488,5.7715,5.8711,5.959,6.0332,6.084,6.084,6.084,6.084,6.084,6.1015,6.1308,6.1308,6.1133,6.084,6.0273,5.9687,5.9043,5.7441,5.6387,5.543,5.2695,5.0332,4.8079,0.0,4.2881,4.0764,3.8487,3.7217,3.6404,3.5122,3.4329,3.353,3.1774,3.0903,3.0675,3.145,3.2519,3.3801,3.5364,3.65,3.7031,3.6205,3.3802,3.1371,2.9567,2.5622,2.2519,2.2577,2.1899,2.1374,2.1631,2.2255,2.2784,2.2974,2.3097,2.292,2.2323,2.2344,2.2289,2.1991,2.2466,2.3029,2.3626,2.368,2.3788,2.4033,2.3999,2.3999,2.4053,2.3999,2.3999,2.4053,2.3944,2.389,2.389,2.3646,2.3449,2.3293,2.2995,2.154,1.9065,1.8889,1.7394,1.4975,1.4975,1.4257,1.3111,1.3111,1.2276,1.1163,1.1163,1.0381,0.9571,0.0,0.0,0.0,0.0,0.0,0.0,0.0,0.0,0.0,0.0,0.0,0.0,0.0,0.0,0.0,0.0,0.0,4.0156,4.1875,4.459,4.7129,4.9316,5.2246,5.4297,5.5312,5.6055,5.6758,5.7441,5.791,5.8242,5.8379,5.8828,5.9219,5.9473,5.9473,5.9297,5.9004,5.8437,5.7969,5.7422,5.5215,5.4082,5.3359,5.0176,4.7341,0.0,4.0449,3.8229,3.6878,3.4651,3.3577,3.2846,3.1473,3.1267,3.1453,3.0253,3.0568,3.153,3.2732,3.4135,3.5658,3.7301,3.7527,3.7066,3.6032,3.2415,2.8691,2.6562,2.3237,2.056,2.0404,2.0417,2.058,2.098,2.1618,2.2255,2.2784,2.2866,2.273,2.2323,2.2289,2.2167,2.1781,2.2093,2.2622,2.3381,2.3592,2.3788,2.4033,2.4087,2.4121,2.4121,2.4121,2.4121,2.4121,2.4012,2.3203,2.1794,2.1521,2.0442,1.8992,1.8803,1.7379,1.503,1.489,1.3421,1.1163,1.1163,1.0455,0.918,0.918,0.8349,0.7239,0.7217,0.5662,0.4112,0.0,0.0,0.0,0.0,0.0,0.0,0.0,0.0,0.0,0.0,0.0,0.0,0.0,0.0,0.0,0.0,0.0,0.0,4.0937,4.1894,4.3672,4.6543,4.7988,4.9316,5.0586,5.1035,5.1484,5.1914,5.3164,5.3984,5.4453,5.5625,5.623,5.6289,5.6269,5.6269,5.623,5.539,5.5273,5.5351,5.2383,5.0957,5.0234,4.6767,4.3387,4.0012,3.6423,3.3569,3.1392,3.1241,2.9871,2.8261,2.8301,2.8631,2.9312,3.0515,3.1517,3.2625,3.4389,3.5965,3.7323,3.8671,3.7268,3.5663,3.6014,3.101,2.6203,2.5786,2.2717,2.0098,1.9678,1.9481,1.961,2.0227,2.0627,2.1265,2.2432,2.2255,2.2147,2.2534,2.2215,2.195,2.1916,2.1916,2.2235,2.2961,2.3415,2.3714,2.389,2.4053,2.4121,2.4121,2.4121,2.4121,2.4121,2.3965,2.1787,1.7917,1.7546,1.519,1.1471,1.1394,1.1283,1.086,1.0854,1.0811,1.061,1.061,0.8491,0.5263,0.5259,0.3187,0.0,0.0,0.0,0.0549,0.0,0.0,0.0,0.0,0.0,0.0,0.0,0.0,0.0,0.0,0.0,0.0,0.0,0.0,0.0,0.0,0.0,0.0,3.9219,4.0937,4.2305,4.3066,4.5586,4.7266,4.791,4.8652,4.9238,4.9687,5.0019,5.041,5.084,5.0859,5.1367,5.2266,5.1953,5.1992,5.2246,5.1719,5.1367,5.0976,4.8906,4.8008,4.7456,4.3383,4.1042,3.9402,3.4799,3.2388,3.1159,2.9523,2.8791,2.8604,2.9259,2.9566,2.9967,3.1356,3.2866,3.4429,3.5965,3.7782,3.8887,3.7274,3.6619,3.5104,3.0254,2.7586,2.5267,2.2376,2.0272,1.8918,1.8708,1.8905,1.9379,2.0187,2.1319,2.2357,2.3117,2.3415,2.3381,2.294,2.2995,2.2866,2.2432,2.2479,2.273,2.313,2.3171,2.3436,2.4033,2.41,2.4121,2.4121,2.4121,2.4121,2.4121,2.1089,1.9074,1.7917,1.4808,1.2646,1.1542,1.1421,0.9878,0.7108,0.7076,0.5487,0.2799,0.2799,0.2239,0.1398,0.139,0.0832,0.0,0.0,0.0,0.0137,0.0,0.0,0.0,0.0,0.0,0.0,0.0,0.0,0.0,0.0,0.0,0.0,0.0,0.0,0.0,0.0,0.0,0.0,0.0,3.9707,4.0469,4.0644,4.2285,4.3476,4.4101,4.459,4.5312,4.6328,4.6328,4.6836,4.7832,4.7598,4.7969,4.8828,4.8574,4.8613,4.8808,4.8379,4.8281,0.0,0.0,4.5586,4.558,4.1202,3.8843,3.7356,3.3566,3.1285,3.0071,2.9358,2.9232,2.9526,3.0408,3.0862,3.141,3.3146,3.4629,3.6072,3.7662,3.8203,3.8051,3.6827,3.433,3.1278,2.7015,2.4738,2.2608,1.9856,1.8708,1.807,1.786,1.8199,1.8762,1.961,2.0878,2.2079,2.294,2.3327,2.347,2.3327,2.3395,2.3293,2.2886,2.292,2.3097,2.3402,2.3293,2.3449,2.3999,2.4087,2.4121,2.4121,2.4121,2.3218,2.1544,1.9283,1.6239,1.2599,1.0287,0.8299,0.6485,0.6417,0.5199,0.3285,0.313,0.1979,0.0,0.0,0.0,0.0,0.0,0.0,0.0,0.0,0.0,0.0,0.0,0.0,0.0,0.0,0.0,0.0,0.0,0.0,0.0,0.0,0.0,0.0,0.0,0.0,0.0,0.0,0.0,0.0,0.0,0.0,3.875,3.9101,3.9238,3.9629,4.0332,4.0469,4.123,4.2656,4.2656,4.3457,4.5,4.4941,4.5156,4.5625,4.5566,4.5566,4.5605,4.5293,4.5586,4.6055,4.3867,4.3487,4.3779,0.0,3.6658,3.4585,3.2236,3.0184,2.8845,3.002,3.0474,3.0715,3.1704,3.2452,3.3347,3.5338,3.658,3.7536,3.8716,3.7816,3.6407,3.5567,3.1017,2.6383,2.5098,2.228,1.9535,1.8287,1.7772,1.7446,1.7182,1.7514,1.8111,1.8972,2.0085,2.1265,2.25,2.2798,2.3117,2.368,2.3626,2.3483,2.3361,2.3327,2.3436,2.3714,2.3592,2.3626,2.391,2.4053,2.3816,2.3368,2.2757,2.0796,1.7326,1.6721,1.2964,0.6042,0.5406,0.3436,0.0,0.0,0.0,0.0,0.0,0.0,0.0,0.0,0.0,0.0,0.0,0.0,0.0,0.0,0.0,0.0,0.0,0.0,0.0,0.0,0.0,0.0,0.0,0.0,0.0,0.0,3.6743,3.7358,0.0,0.0,0.0,0.0,0.0,0.0,0.0,0.0,0.0,3.8691,3.9375,3.9668,3.9434,4.0156,4.0508,4.0449,4.0449,4.0781,4.1406,4.1055,4.1308,4.2051,4.168,4.1719,4.209,4.2363,4.2558,4.2676,4.2578,4.1504,3.9795,3.7173,3.479,0.0,3.0013,2.9095,2.9138,3.0327,3.1036,3.173,3.3347,3.4429,3.5404,3.6981,3.825,3.8742,3.6895,3.6725,3.5664,2.9796,2.7225,2.521,2.1867,1.9808,1.8599,1.788,1.729,1.689,1.6836,1.7297,1.8124,1.9501,2.0526,2.1638,2.3097,2.3436,2.3646,2.3999,2.4012,2.3999,2.3965,2.3856,2.3856,2.4033,2.391,2.389,2.4066,2.41,2.2602,1.9283,1.5972,1.3866,1.3107,0.9802,0.74,0.5891,0.2555,0.0748,0.0,0.0,0.0,0.0,0.0,0.0,0.0,0.0,0.0,0.0,0.0,0.0,0.0,0.0,0.0,0.0,0.0,0.0,0.0,0.0,0.0,0.0,0.0,3.6348,3.6582,3.7246,3.7695,3.8027,3.8223,3.8437,3.8574,0.0,0.0,0.0,0.0,0.0,0.0,3.8574,3.9199,3.9551,3.9551,4.0195,4.0742,4.1211,0.0,4.0664,4.1484,4.0625,4.0566,4.1172,4.1191,4.1308,4.1523,4.1953,4.2246,4.2461,4.2441,4.1341,3.9414,3.6913,3.3708,0.0,2.9041,2.8698,2.8965,2.9993,3.1022,3.2225,3.4162,3.5485,3.6607,3.8063,3.7916,3.7162,3.6464,3.4261,3.1282,2.7766,2.5087,2.2658,1.9967,1.8708,1.7806,1.6904,1.6551,1.6449,1.6605,1.7188,1.7982,1.9006,1.9997,2.1109,2.2445,2.2907,2.3327,2.3931,2.4066,2.4121,2.4121,2.2097,2.0875,2.0934,1.8925,1.877,2.0934,1.8978,1.7021,1.5071,1.3107,1.1006,0.8901,0.6946,0.4988,0.2875,0.0902,0.0,0.0,0.0,0.0,0.0,0.0,0.0,0.0,0.0,0.0,0.0,0.0,0.0,0.0,0.0,0.0,0.0,0.0,0.0,0.0,0.0,0.0,0.0,0.0,3.6816,3.7148,3.8086,3.8496,3.8574,3.8242,3.8496,3.8672,0.0,0.0,0.0,0.0,0.0,0.0,0.0,0.0,0.0,3.9883,0.0,0.0,4.2148,4.125,0.0,0.0,0.0,0.0,0.0,4.1797,4.1933,4.1953,4.2383,4.2754,0.0,0.0,4.1391,3.919,0.0,0.0,0.0,0.0,2.8617,2.8657,2.9593,3.0728,3.1955,3.3311,3.5204,3.7195,3.8388,3.7072,3.5214,3.5597,3.1502,2.7115,2.6127,2.327,2.0261,1.9047,1.8091,1.7161,1.6117,1.6022,1.6212,1.6476,1.706,1.7738,1.8423,1.9257,2.0295,2.1652,2.2201,2.2798,2.3734,2.4012,2.3816,2.2907,2.0031,1.777,1.6871,1.3107,1.251,1.6567,1.2957,1.0852,1.0852,0.9953,0.7999,0.4686,0.4686,0.3174,0.0,0.0,0.0,0.0,0.0,0.0,0.0,0.0,0.0,0.0,0.0,0.0,0.0,0.0,0.0,0.0,0.0,0.0,0.0,0.0,0.0,0.0,0.0,0.0,0.0,0.0,3.7246,3.7676,3.8926,3.9121,3.9121,3.9082,3.9121,3.8984,0.0,0.0,0.0,0.0,0.0,0.0,0.0,0.0,0.0,0.0,0.0,0.0,4.1289,4.1562,0.0,0.0,0.0,0.0,0.0,0.0,4.2363,4.2402,4.2832,0.0,0.0,0.0,0.0,0.0,0.0,0.0,0.0,0.0,2.8644,2.8449,2.9526,3.0181,3.036,2.9539,3.2786,3.7088,3.7742,3.6727,3.4831,3.2622,2.9694,2.6379,2.3055,2.1075,1.9752,1.8938,1.7758,1.6686,1.6171,1.6185,1.6334,1.649,1.6809,1.7372,1.8375,1.8728,1.9535,2.1421,2.195,2.2534,2.3578,2.3944,2.2602,1.8978,1.8379,1.6567,1.2957,0.8901,0.8301,1.2359,0.8748,0.6491,0.6491,0.3024,0.0908,0.0606,0.0606,0.0302,0.0,0.0,0.0,0.0,0.0,0.0,0.0,0.0,0.0,0.0,0.0,0.0,0.0,0.0,0.0,0.0,0.0,0.0,0.0,0.0,0.0,0.0,0.0,0.0,0.0,3.6484,3.6973,3.7656,3.8691,3.9297,3.9609,3.9609,3.9609,3.9336,3.8633,0.0,0.0,0.0,0.0,0.0,0.0,0.0,0.0,0.0,0.0,4.1035,4.1543,4.1719,0.0,0.0,0.0,0.0,0.0,0.0,4.2812,4.2851,4.3281,0.0,0.0,0.0,0.0,0.0,0.0,0.0,0.0,0.0,0.0,2.847,2.8751,2.8263,2.7417,2.6683,2.7817,2.965,3.1449,3.0417,2.8599,2.8561,2.6315,2.3567,2.2102,2.0627,1.9413,1.8674,1.7521,1.651,1.6157,1.6205,1.6381,1.6619,1.6836,1.7175,1.7772,1.7982,1.8586,1.9997,2.0451,2.0266,1.9419,1.9505,1.8226,1.4883,1.2209,0.9202,0.5135,0.3327,0.3024,0.4686,0.3327,0.2421,0.2421,0.0908,0.0,0.0,0.0,0.0,0.0,0.0,0.0,0.0,0.0,0.0,0.0,0.0,0.0,0.0,0.0,0.0,0.0,0.0,0.0,0.0,0.0,0.0,0.0,0.0,0.0,0.0,0.0,0.0,3.5918,3.6172,3.6719,3.75,3.8613,3.9297,3.9746,3.9883,3.9766,3.9434,3.8809,3.8652,0.0,0.0,0.0,0.0,0.0,0.0,0.0,0.0,0.0,4.1074,4.1797,4.1933,4.2207,0.0,0.0,4.2734,4.2637,0.0,0.0,0.0,0.0,0.0,0.0,0.0,0.0,0.0,0.0,0.0,0.0,0.0,0.0,0.0,0.0,0.0,2.5196,2.4217,2.3178,2.3029,2.6244,2.5581,2.4189,2.565,2.3868,2.1726,2.1564,2.0471,1.9237,1.8498,1.7419,1.6503,1.6212,1.6307,1.6517,1.6768,1.6944,1.7141,1.7439,1.7582,1.8002,1.8993,1.9447,1.8811,1.6534,1.6474,1.5052,1.0641,0.6601,0.3024,0.0152,0.0,0.0,0.0,0.0,0.0,0.0,0.0,0.0,0.0,0.0,0.0,0.0,0.0,0.0,0.0,0.0,0.0,0.0,0.0,0.0,0.0,0.0,0.0,0.0,0.0,0.0,0.0,0.0,0.0,0.0,0.0,0.0,0.0,0.0,0.0,0.0,3.6543,3.668,3.7285,3.8965,3.9199,3.9394,3.9844,3.9492,3.9199,3.9199,3.8809,0.0,0.0,0.0,0.0,0.0,0.0,0.0,0.0,0.0,4.1367,4.1797,4.2207,4.2637,4.3086,4.3496,4.3476,4.3066,0.0,0.0,0.0,0.0,0.0,0.0,0.0,0.0,3.3131,0.0,0.0,0.0,0.0,0.0,0.0,0.0,0.0,0.0,0.0,1.9671,1.8813,2.3637,2.4162,2.3546,2.458,2.3152,2.1408,2.1245,2.0315,1.9237,1.8498,1.7507,1.6666,1.6368,1.6537,1.6795,1.6951,1.7093,1.729,1.7595,1.765,1.7968,1.8864,1.9379,1.8818,1.6425,1.6535,1.4037,0.6824,0.2368,0.0,0.0,0.0,0.0,0.0,0.0,0.0,0.0,0.0,0.0,0.0,0.0,0.0,0.0,0.0,0.0,0.0,0.0,0.0,0.0,0.0,0.0,0.0,0.0,0.0,0.0,0.0,0.0,0.0,0.0,0.0,0.0,0.0,0.0,0.0,0.0,0.0,0.0,0.0,3.584,3.6641,3.7754,3.8144,3.8613,3.9336,3.9023,3.8887,3.918,3.9082,0.0,0.0,0.0,0.0,0.0,0.0,0.0,0.0,0.0,4.1211,4.2226,4.2363,4.2793,4.3516,4.3633,4.3476,4.3086,4.3086,4.2832,0.0,0.0,0.0,0.0,0.0,3.4396,3.0931,0.0,0.0,0.0,0.0,0.0,0.0,0.0,0.0,0.0,0.0,0.0,0.0,1.7427,1.8267,1.8771,1.9788,1.9765,1.9447,1.9393,1.8708,1.8002,1.7758,1.7053,1.6483,1.6585,1.6768,1.6951,1.71,1.7331,1.7534,1.7629,1.7738,1.7901,1.8179,1.6663,1.4456,1.156,0.7678,0.4397,0.2079,0.0749,0.0,0.0,0.0,0.0,0.0,0.0,0.0,0.0,0.0,0.0,0.0,0.0,0.0,0.0,0.0,0.0,0.0,0.0,0.0,0.0,0.0,0.0,0.0,0.0,0.0,0.0,0.0,0.0,0.0,0.0,0.0,0.0,0.0,0.0,0.0,0.0,0.0,0.0,0.0,3.5176,3.5898,3.6934,3.7285,3.7832,3.8848,3.8594,3.8555,3.9141,3.9199,0.0,0.0,0.0,0.0,0.0,0.0,0.0,0.0,4.0762,4.1308,4.2422,4.2422,4.2871,4.3711,4.3711,4.3476,4.3066,4.291,4.2598,0.0,0.0,0.0,0.0,3.5601,3.3204,2.9887,0.0,0.0,0.0,0.0,0.0,0.0,0.0,0.0,0.0,0.0,0.0,0.0,0.0,1.5242,1.6042,1.7148,1.7894,1.8375,1.8375,1.7894,1.7405,1.7344,1.689,1.653,1.6714,1.6917,1.7107,1.7249,1.748,1.7663,1.7717,1.7812,1.7555,1.6367,1.4748,1.2088,0.782,0.2962,0.0,0.0,0.0,0.0,0.0,0.0,0.0,0.0,0.0,0.0,0.0,0.0,0.0,0.0,0.0,0.0,0.0,0.0,0.0,0.0,0.0,0.0,0.0,0.0,0.0,0.0,0.0,0.0,0.0,0.0,0.0,0.0,0.0,0.0,0.0,0.0,0.0,0.0,0.0,0.0,0.0,0.0,3.4707,3.5156,3.6465,3.666,3.7129,3.8359,3.8144,3.8262,3.9082,0.0,0.0,0.0,0.0,0.0,0.0,0.0,0.0,4.1172,4.1172,4.1562,4.2383,4.2402,4.2851,4.3652,4.3691,4.3476,4.3066,4.2656,4.2226,0.0,0.0,0.0,0.0,3.3746,3.1866,0.0,0.0,0.0,0.0,0.0,0.0,0.0,0.0,0.0,0.0,0.0,0.0,0.0,0.0,0.0,0.0,0.0,1.7256,1.7901,1.7914,1.7609,1.7277,1.7168,1.6931,0.0,1.6761,1.7005,1.7249,1.7392,1.7555,1.7588,1.7619,1.7749,1.6792,1.3532,1.3018,1.085,0.5104,0.1792,0.0,0.0,0.0,0.0,0.0,0.0,0.0,0.0,0.0,0.0,0.0,0.0,0.0,0.0,0.0,0.0,0.0,0.0,0.0,0.0,0.0,0.0,0.0,0.0,0.0,0.0,0.0,0.0,0.0,0.0,0.0,0.0,0.0,0.0,0.0,0.0,0.0,0.0,0.0,0.0,0.0,0.0,0.0,0.0,0.0,3.6465,3.6914,3.7539,3.7793,3.8144,0.0,0.0,0.0,0.0,0.0,0.0,0.0,0.0,0.0,4.1152,4.1172,4.1426,4.1953,4.2266,4.2695,4.3223,4.3555,4.3476,4.3066,4.2969,4.25,0.0,0.0,0.0,0.0,3.3413,3.1425,0.0,0.0,0.0,0.0,2.8364,2.6736,0.0,0.0,0.0,0.0,0.0,0.0,0.0,0.0,1.4848,1.5059,1.5445,0.0,1.6069,1.6185,1.6218,1.63,0.0,1.6625,1.6639,1.6876,1.7161,1.7378,1.7412,1.7636,1.7144,1.483,1.6403,1.6077,1.0743,0.8069,0.5276,0.1613,0.0424,0.0,0.0,0.0,0.0,0.0,0.0,0.0,0.0,0.0,0.0,0.0,0.0,0.0,0.0,0.0,0.0,0.0,0.0,0.0,0.0,0.0,0.0,0.0,0.0,0.0,0.0,0.0,0.0,0.0,0.0,0.0,0.0,0.0,0.0,0.0,0.0,0.0,0.0,0.0,0.0,0.0,0.0,0.0,0.0,0.0,0.0,0.0,0.0,0.0,0.0,0.0,0.0,0.0,0.0,0.0,0.0,0.0,0.0,4.0293,4.1152,4.1172,4.1484,4.209,4.2305,4.2754,4.3359,4.3594,4.3574,4.3359,4.2949,4.1821,0.0,0.0,0.0,3.3907,3.2046,0.0,0.0,0.0,0.0,0.0,2.7042,2.5117,0.0,2.0443,1.8113,1.5961,0.0,0.0,0.0,0.0,1.495,1.5086,1.516,1.5242,1.5357,1.5581,1.5696,1.5886,1.6402,1.6524,1.6625,1.6998,1.7263,1.7008,1.5753,1.5705,1.4847,1.1825,1.2723,1.2144,0.7486,0.4285,0.1818,0.0136,0.0,0.0,0.0,0.0,0.0,0.0,0.0,0.0,0.0,0.0,0.0,0.0,0.0,0.0,0.0,0.0,0.0,0.0,0.0,0.0,0.0,0.0,0.0,0.0,0.0,0.0,0.0,0.0,0.0,0.0,0.0,0.0,0.0,0.0,0.0,0.0,0.0,0.0,0.0,0.0,0.0,0.0,0.0,0.0,0.0,0.0,0.0,0.0,0.0,0.0,0.0,0.0,0.0,0.0,0.0,0.0,0.0,0.0,0.0,4.0293,4.1152,4.1172,4.1562,4.2324,4.2402,4.2832,4.3613,4.3672,4.3711,4.3672,4.2446,4.072,0.0,0.0,3.4274,3.2241,3.0395,0.0,0.0,0.0,0.0,0.0,0.0,0.0,0.0,1.8505,1.6187,1.4326,1.4468,0.0,0.0,0.0,0.0,0.0,1.5181,1.5201,1.5289,1.5567,1.5676,1.5852,1.6395,1.6558,1.6603,1.6571,1.7009,1.6398,1.3106,1.2987,1.2274,0.8819,0.7843,0.6862,0.4812,0.1867,0.0,0.0,0.0,0.0,0.0,0.0,0.0,0.0,0.0,0.0,0.0,0.0,0.0,0.0,0.0,0.0,0.0,0.0,0.0,0.0,0.0,0.0,0.0,0.0,0.0,0.0,0.0,0.0,0.0,0.0,0.0,0.0,0.0,0.0,0.0,-0.052,-0.0776,-0.0772,0.0,0.0,0.0,0.0,0.0,0.0,0.0,0.0,0.0,0.0,0.0,0.0,0.0,0.0,0.0,0.0,0.0,0.0,0.0,0.0,0.0,3.9883,3.9902,4.0293,4.1152,4.1172,4.1406,4.1894,4.2246,4.2676,4.3183,4.3535,4.3711,4.3589,4.1136,3.9785,3.9116,0.0,3.2759,3.2437,2.9804,0.0,0.0,0.0,0.0,0.0,0.0,0.0,0.0,1.8355,1.6094,1.4326,1.4468,0.0,0.0,0.0,0.0,0.0,1.5181,1.5276,1.5418,1.5594,1.5825,1.6103,1.6442,1.672,1.6216,1.3929,1.5668,1.5857,1.0352,1.1541,1.1608,0.6039,0.3076,0.2121,0.4222,0.1918,0.0,0.0,0.0,0.0,0.0,0.0,0.0,0.0,0.0,0.0,0.0,0.0,0.0,0.0,0.0,0.0,0.0,0.0,0.0,0.0,0.0,0.0,0.0,0.0,0.0,0.0,0.0,0.0,0.0,0.0,0.0,0.0,0.0,0.0,-0.0387,-0.318,-0.4174,-0.4546,0.0,0.0,0.0,0.0,0.0,0.0,0.0,0.0,0.0,0.0,0.0,0.0,0.0,0.0,0.0,0.0,0.0,0.0,0.0,0.0,3.9414,3.9883,4.0117,4.0527,4.1172,4.1387,4.1719,4.2129,4.2558,4.2988,4.3418,4.3613,4.3711,4.3589,4.0861,3.8979,3.7638,3.4081,3.1902,3.0811,0.0,0.0,0.0,0.0,0.0,0.0,0.0,0.0,0.0,0.0,1.5161,1.4441,1.459,0.0,0.0,0.0,0.0,0.0,1.3554,1.4253,1.4809,1.2056,1.2577,1.3865,1.4261,1.3284,1.1935,1.074,1.1727,1.1475,0.7217,0.7602,0.713,0.277,0.0946,0.0486,0.1874,0.0892,0.0,0.0,0.0,0.0,0.0,0.0,0.0,0.0,0.0,0.0,0.0,0.0,0.0,0.0,0.0,0.0,0.0,0.0,0.0,0.0,0.0,0.0,0.0,0.0,0.0,0.0,0.0,0.0,0.0,0.0,-0.1026,-0.2699,-0.2672,-0.3677,-0.5464,-0.6933,-0.7544,-0.7795,0.0,0.0,0.0,0.0,0.0,0.0,0.0,0.0,0.0,0.0,0.0,0.0,0.0,0.0,0.0,0.0,0.0,0.0,0.0,0.0,3.9355,3.9726,4.0234,4.0781,4.1308,4.1641,4.2109,4.2734,4.2969,4.3301,4.3711,4.3711,4.3443,4.2825,4.0101,3.7775,3.558,3.3093,3.1085,2.9459,0.0,0.0,0.0,0.0,0.0,0.0,0.0,0.0,0.0,0.0,0.0,0.0,0.0,0.0,0.0,1.514,1.5181,1.4643,1.209,1.2989,1.355,0.9024,1.0415,1.2679,1.1692,1.0441,0.915,0.791,0.8281,0.7646,0.4136,0.3392,0.265,0.0357,0.0,0.0,0.0,0.0,0.0,0.0,0.0,0.0,0.0,0.0,0.0,0.0,0.0,0.0,0.0,0.0,0.0,0.0,0.0,0.0,0.0,0.0,0.0,0.0,0.0,0.0,0.0,0.0,-0.0389,-0.1155,-0.1153,-0.1525,-0.2264,-0.2259,-0.3632,-0.6006,-0.5996,-0.7973,-1.0812,-1.0812,-1.1315,-1.2055,0.0,0.0,0.0,0.0,0.0,0.0,0.0,0.0,0.0,0.0,0.0,0.0,0.0,0.0,0.0,0.0,0.0,0.0,0.0,0.0,3.9219,3.9258,4.0059,4.0918,4.1738,4.1777,4.2402,4.3613,4.3262,4.3301,4.3711,4.3711,4.2576,4.0427,3.8084,3.5761,3.3438,3.1095,2.9904,2.9459,2.9152,0.0,0.0,0.0,0.0,0.0,0.0,0.0,0.0,0.0,0.0,0.0,0.0,0.0,1.4997,1.514,1.5181,1.4643,1.209,1.163,1.1304,0.8593,1.2159,1.4965,0.9839,1.0802,1.1208,0.5626,0.6882,0.7147,0.1346,0.0343,0.0234,0.0,0.0,0.0,0.0,0.0,0.0,0.0,0.0,0.0,0.0,0.0,0.0,0.0,0.0,0.0,0.0,0.0,0.0,0.0,0.0,0.0,0.0,0.0,0.0,0.0,0.0,0.0,0.0,0.0,-0.1643,-0.4538,-0.4381,-0.6111,-0.8949,-0.8762,-0.886,-0.91,-0.9037,-1.1025,-1.3971,-1.3971,-1.5891,-1.8536,0.0,0.0,0.0,0.0,0.0,0.0,0.0,0.0,0.0,0.0,0.0,0.0,0.0,0.0,0.0,0.0,0.0,0.0,0.0,3.8965,3.9199,3.9199,4.0059,4.0918,4.1777,4.2324,4.2949,4.3711,4.3828,4.3828,4.3691,4.2243,4.1118,4.0174,3.6399,3.4257,3.3204,3.0765,2.9579,2.9446,2.8965,2.8711,0.0,0.0,0.0,0.0,0.0,0.0,0.0,0.0,1.4482,1.4679,1.4835,1.4984,1.4826,1.3269,1.281,1.1899,0.7838,0.789,0.8271,0.4084,0.7368,1.0517,0.6658,0.5399,0.4371,0.2009,0.249,0.2632,0.0456,0.0,0.0,0.0,0.0,0.0,0.0,0.0,0.0,0.0,0.0,0.0,0.0,0.0,0.0,0.0,0.0,0.0,0.0,0.0,0.0,0.0,0.0,0.0,0.0,0.0,0.0,0.0,0.0,0.0,-0.0126,-0.1999,-0.3592,-0.4929,-0.6752,-0.8317,-0.9484,-0.9458,-1.0659,-1.2589,-1.471,-1.6243,-1.74,-1.74,-1.8184,-1.9345,0.0,0.0,0.0,0.0,0.0,0.0,0.0,0.0,0.0,0.0,0.0,0.0,0.0,0.0,0.0,0.0,0.0,0.0,3.834,3.8633,3.8867,3.9004,3.9707,4.0508,4.1367,4.2363,4.3223,4.3926,4.4238,4.4082,4.3414,4.1314,3.9849,3.8863,3.5051,3.2955,3.216,3.0301,2.9432,2.9299,2.8804,2.8109,0.0,0.0,0.0,0.0,0.0,0.0,0.0,0.0,1.4645,1.4644,1.3999,1.3933,1.3469,1.0913,1.0153,0.9245,0.4963,0.5185,0.5525,0.1131,0.2926,0.5294,0.3365,0.2116,0.1136,0.0227,0.0,0.0,0.0,0.0,0.0,0.0,0.0,0.0,0.0,0.0,0.0,0.0,0.0,0.0,0.0,0.0,0.0,0.0,0.0,0.0,0.0,0.0,0.0,0.0,0.0,0.0,0.0,0.0,-0.0496,-0.1486,-0.1479,-0.1479,-0.161,-0.4785,-0.6699,-0.787,-1.0023,-1.1419,-1.243,-1.2395,-1.3694,-1.5959,-1.8228,-1.9061,-1.9061,-1.9061,-1.9128,-1.9217,0.0,0.0,0.0,0.0,0.0,0.0,0.0,0.0,0.0,0.0,0.0,0.0,0.0,0.0,0.0,0.0,0.0,0.0,3.7891,3.793,3.8125,3.8555,3.8984,3.9609,4.0508,4.1777,4.3086,4.4394,4.4394,4.3945,4.3004,4.1101,3.8761,3.6116,3.4175,3.2086,2.99,2.9606,2.9312,2.8931,2.8724,2.7025,2.4434,0.0,0.0,0.0,0.0,0.0,0.0,0.0,1.4719,1.45,1.1966,1.1299,1.0819,0.8353,0.7595,0.696,0.4479,0.3721,0.3164,0.0617,0.0,0.0,0.0,0.2339,0.3645,0.058,0.0,0.0,0.0,0.0,0.0,0.0,0.0,0.0,0.0,0.0,0.0,0.0,0.0,0.0,0.0,0.0,0.0,0.0,0.0,0.0,0.0,0.0,0.0,0.0,0.0,0.0,0.0,-0.0123,-0.1706,-0.4746,-0.479,-0.4795,-0.4865,-0.7955,-1.1275,-1.4269,-1.4163,-1.6003,-1.8972,-1.883,-1.8762,-1.8762,-1.8762,-1.8762,-1.8762,-1.8762,-1.8762,-1.8782,0.0,0.0,0.0,0.0,0.0,0.0,0.0,0.0,0.0,0.0,0.0,0.0,0.0,0.0,0.0,0.0,0.0,0.0,3.7871,3.793,3.8125,3.8555,3.8984,3.9609,4.0508,4.1777,4.3086,4.4394,4.2518,4.1462,4.1018,3.7012,3.4815,3.4104,3.1954,3.0526,2.9887,2.9379,2.9125,2.8831,2.6846,2.5538,2.4419,0.0,0.0,0.0,0.0,0.0,0.0,0.0,0.0,0.0,1.1595,1.0131,0.8258,0.57,0.4941,0.4391,0.1853,0.1084,0.0899,0.0206,0.0,0.0,0.0,0.0675,0.1039,0.0237,0.0,0.0,0.0,0.0,0.0,0.0,0.0,0.0,0.0,0.0,0.0,0.0,0.0,0.0,0.0,0.0,0.0,0.0,0.0,0.0,0.0,0.0,0.0,0.0,-0.219,-0.3273,-0.3273,-0.5525,-0.7057,-0.8009,-1.029,-1.0172,-0.8129,-1.1254,-1.321,-1.4271,-1.6484,-1.8007,-1.883,-1.8782,-1.8762,-1.8762,-1.8762,-1.8762,-1.8762,-1.8762,-1.883,-1.8938,0.0,0.0,0.0,0.0,0.0,0.0,0.0,0.0,0.0,0.0,3.6016,3.6016,0.0,0.0,0.0,0.0,0.0,0.0,0.0,3.7676,3.7949,3.8555,3.8828,3.9453,4.0508,4.0696,4.1385,4.2314,4.0787,3.9456,3.8415,3.4611,3.2991,3.3026,3.0815,2.9913,2.9873,2.9285,2.8496,2.7484,2.5607,2.3771,2.1772,0.0,0.0,0.0,0.0,0.0,0.0,0.0,0.0,0.0,1.0135,0.8164,0.5605,0.3044,0.2292,0.1923,0.0393,0.0,0.0,0.0,0.0,0.0,0.0,0.0,0.0,0.0,0.0,0.0,0.0,0.0,0.0,0.0,0.0,0.0,0.0,0.0,0.0,0.0,0.0,0.0,0.0,0.0,0.0,0.0,0.0,0.0,0.0,-0.1205,-0.192,-0.1915,-0.4887,-0.6546,-0.6546,-0.8405,-1.0033,-1.1331,-1.3149,-1.3742,-1.321,-1.5154,-1.593,-1.6052,-1.7943,-1.8762,-1.8762,-1.8762,-1.8762,-1.8762,-1.8762,-1.8762,-1.8762,-1.8762,-1.8871,-1.9006,0.0,0.0,0.0,0.0,0.0,0.0,0.0,0.0,0.0,0.0,3.6016,3.6016,0.0,0.0,0.0,0.0,0.0,0.0,0.0,0.0,3.7676,3.8535,3.8652,3.9164,4.0124,3.9012,3.8437,3.8469,3.8505,3.7452,3.539,3.345,3.2525,3.2309,3.0643,2.9913,2.9873,2.9022,2.7522,2.5554,2.4672,2.1726,1.7856,1.7751,0.0,0.0,0.0,0.0,0.0,0.0,0.0,0.0,0.7974,0.551,0.3046,0.0668,0.0,0.0,0.0,0.0,0.0,0.0,0.0,0.0,0.0,0.0,0.0,0.0,0.0,0.0,0.0,0.0,0.0,0.0,0.0,0.0,0.0,0.0,0.0,0.0,0.0,0.0,0.0,0.0,0.0,0.0,-0.0241,-0.0358,-0.0353,-0.3405,-0.5145,-0.5105,-0.8171,-0.9851,-0.9851,-1.0077,-1.1716,-1.4533,-1.4533,-1.6052,-1.8762,-1.8762,-1.8762,-1.8762,-1.8762,-1.8762,-1.8762,-1.8762,-1.8762,-1.8762,-1.8762,-1.8762,-1.8762,-1.8762,-1.8871,-1.9006,0.0,0.0,0.0,0.0,0.0,0.0,0.0,0.0,0.0,0.0,0.0,0.0,0.0,0.0,0.0,0.0,0.0,0.0,0.0,0.0,3.7676,3.8535,3.9238,3.8954,3.7484,3.7862,3.6437,3.3077,3.3427,3.3457,3.316,3.0879,2.9932,3.0178,2.9958,2.9913,2.9694,2.7385,2.6114,2.538,2.1284,1.9123,1.8043,1.6159,1.5195,0.0,0.0,0.0,0.0,0.0,0.0,0.0,0.4751,0.2855,0.0668,0.0193,0.0,0.0,0.0,0.0,0.0,0.0,0.0,0.0,0.0,0.0,0.0,0.0,0.0,0.0,0.0,0.0,0.0,0.0,0.0,0.0,0.0,0.0,0.0,0.0,0.0,0.0,0.0,0.0,0.0,0.0,-0.2224,-0.359,-0.3575,-0.6489,-0.8242,-0.8227,-1.1437,-1.3125,-1.3125,-1.5587,-1.7104,-1.782,-1.782,-1.8181,-1.8762,-1.8762,-1.8762,-1.8762,-1.8762,-1.8762,-1.8762,-1.8762,-1.8762,-1.8762,-1.8762,-1.8762,-1.8762,-1.8762,-1.8871,-1.9006,0.0,0.0,0.0,0.0,0.0,0.0,0.0,0.0,0.0,0.0,0.0,0.0,0.0,0.0,0.0,0.0,0.0,0.0,0.0,0.0,3.7676,3.8535,3.8404,3.7757,3.6646,3.5407,3.3676,3.1392,3.0585,3.0425,3.0808,2.9539,2.9272,2.97,2.9847,2.9847,2.9495,2.6793,2.4925,2.351,1.9761,1.7517,1.6363,1.5272,1.4855,1.4664,1.337,0.0,0.0,0.0,0.0,0.0,0.0,0.0,0.0,0.0,0.0,0.0,0.0,0.0,0.0,0.0,0.0,0.0,0.0,0.0,0.0,0.0,0.0,0.0,0.0,0.0,0.0,0.0,0.0,0.0,0.0,0.0,0.0,0.0,-0.1322,-0.2152,-0.2134,-0.3409,-0.4317,-0.4301,-0.5739,-0.6607,-0.6607,-0.9629,-1.1393,-1.1393,-1.4675,-1.6407,-1.6407,-1.7943,-1.8762,-1.8762,-1.8762,-1.8762,-1.8762,-1.8762,-1.8762,-1.8762,-1.8762,-1.8762,-1.8762,-1.8762,-1.8762,-1.8762,-1.8762,-1.8762,-1.8782,-1.885,-1.8972,-1.9115,0.0,0.0,0.0,0.0,0.0,0.0,0.0,0.0,0.0,0.0,0.0,0.0,0.0,0.0,0.0,0.0,0.0,0.0,0.0,0.0,0.0,3.8078,3.7087,3.6172,3.5547,3.2775,3.1182,3.0827,2.9034,2.8457,2.9045,2.8991,2.9245,2.9766,2.982,2.9521,2.8726,2.6102,2.3468,2.092,1.8489,1.6355,1.4618,1.4841,1.4606,1.3903,1.1938,1.0669,0.9572,0.7589,0.0,0.0,0.0,0.0,0.0,0.0,0.0,0.0,0.0,0.0,0.0,0.0,0.0,0.0,0.0,0.0,0.0,0.0,0.0,0.0,0.0,0.0,0.0,0.0,0.0,0.0,0.0,-0.0472,-0.0824,-0.0829,-0.3389,-0.5212,-0.5212,-0.7464,-0.8913,-0.8913,-0.9405,-0.97,-0.97,-1.272,-1.45,-1.4629,-1.7301,-1.8728,-1.8762,-1.8762,-1.8762,-1.8762,-1.8762,-1.8762,-1.8762,-1.8762,-1.8762,-1.8762,-1.8762,-1.8762,-1.8762,-1.8762,-1.8762,-1.8762,-1.8762,-1.8762,-1.8899,-1.951,-1.9892,-2.0167,0.0,0.0,0.0,0.0,0.0,0.0,0.0,0.0,0.0,0.0,3.6016,3.6016,0.0,0.0,0.0,0.0,0.0,0.0,3.7246,0.0,0.0,3.5961,3.6116,3.4659,3.1204,3.1103,3.0234,2.8628,2.8305,2.8457,2.9032,2.8778,2.8845,2.9165,2.9432,2.8423,2.6277,2.3675,2.1155,1.8621,1.6003,1.4958,1.4903,1.4808,1.3518,1.1804,1.1341,0.8462,0.4749,0.4414,0.2602,0.0,0.0,0.0,0.0,0.0,0.0,0.0,0.0,0.0,0.0,0.0,0.0,0.0,0.0,0.0,0.0,0.0,0.0,0.0,0.0,0.0,0.0,0.0,0.0,0.0,0.0,-0.2214,-0.3948,-0.3922,-0.6549,-0.8257,-0.8257,-0.865,-0.895,-0.895,-1.1347,-1.2849,-1.2849,-1.5777,-1.7616,-1.7734,-1.8242,-1.862,-1.8762,-1.8762,-1.8762,-1.8762,-1.8762,-1.8762,-1.8762,-1.8762,-1.8762,-1.8762,-1.8762,-1.8762,-1.8762,-1.8762,-1.8762,-1.8762,-1.8762,-1.8762,-1.9124,-2.203,-2.3132,-2.3775,0.0,0.0,0.0,0.0,0.0,0.0,0.0,0.0,0.0,0.0,0.0,3.6289,0.0,0.0,0.0,3.6016,3.6016,3.6289,3.6894,3.7734,3.7295,3.5246,3.4848,3.3257,3.034,2.9545,2.8814,2.8221,2.7976,2.8203,2.8705,2.7241,2.6872,2.7444,2.7569,2.6252,2.3644,2.1083,1.9392,1.8051,1.5557,1.4774,1.497,1.4984,1.3466,1.1192,0.9723,0.6904,0.3618,0.2118,0.097,0.0,0.0,0.0,0.0,0.0,0.0,0.0,0.0,0.0,0.0,0.0,0.0,0.0,0.0,0.0,0.0,0.0,0.0,0.0,0.0,0.0,0.0,0.0,-0.139,-0.2549,-0.2542,-0.5071,-0.7002,-0.695,-0.9547,-1.1459,-1.1407,-1.2927,-1.3912,-1.3912,-1.5214,-1.596,-1.596,-1.7334,-1.8124,-1.8199,-1.8335,-1.8477,-1.864,-1.864,-1.8674,-1.8762,-1.8762,-1.8762,-1.8762,-1.8762,-1.8762,-1.8762,-1.8762,-1.8762,-1.8762,-1.8762,-1.9784,-2.1264,-2.1264,-2.2464,-2.4304,-2.5862,-2.6533,-2.6984,0.0,0.0,0.0,0.0,0.0,0.0,0.0,0.0,0.0,0.0,0.0,0.0,0.0,0.0,0.0,0.0,3.6016,3.6211,3.6641,3.6945,3.6195,3.4186,3.3055,3.1557,2.9435,2.8235,2.7736,2.803,2.7802,2.7706,2.7749,2.5868,2.474,2.4387,2.4878,2.3646,2.1115,1.9255,1.8002,1.7163,1.5371,1.4835,1.4984,1.4425,1.2588,1.0059,0.7592,0.5045,0.2584,0.0679,0.0,0.0,0.0,0.0,0.0,0.0,0.0,-0.128,-0.207,-0.2316,-0.2223,-0.2237,-0.2241,-0.2017,-0.1346,-0.168,-0.2021,-0.1243,-0.1697,-0.2267,-0.228,-0.1605,-0.1378,-0.2177,-0.4125,-0.5612,-0.5601,-0.8217,-1.0004,-1.0041,-1.2723,-1.4491,-1.452,-1.6624,-1.786,-1.786,-1.786,-1.786,-1.786,-1.7968,-1.8057,-1.8091,-1.8199,-1.8335,-1.8477,-1.8511,-1.8565,-1.8654,-1.8728,-1.8742,-1.8708,-1.8742,-1.9219,-1.9907,-1.9103,-1.9219,-1.9907,-1.9907,-2.1725,-2.4464,-2.4464,-2.6053,-2.8457,-2.9365,-2.9933,-3.0293,0.0,0.0,0.0,0.0,0.0,0.0,0.0,0.0,0.0,0.0,0.0,0.0,3.6074,3.6387,3.6465,3.6055,3.6016,3.6211,3.6641,3.5675,3.4112,3.2035,3.0748,0.0,2.7001,2.7216,2.7428,2.7722,2.7709,2.694,2.5542,2.5354,2.311,1.941,2.1413,2.0953,1.8783,1.8683,1.7131,1.4831,1.474,1.4835,1.4785,1.2348,0.988,0.7501,0.4941,0.0,0.0,0.0,0.0,0.0,0.0,0.0,0.0,0.0,0.0,0.0,-0.7697,-0.8426,-0.8485,-0.8485,-0.8485,-0.7708,-0.4923,-0.6481,-0.7596,-0.4812,-0.6488,-0.8491,-0.8389,-0.6122,-0.5148,-0.7935,-0.8546,-0.8675,-0.872,-1.1312,-1.319,-1.3187,-1.5862,-1.7652,-1.7632,-1.786,-1.786,-1.786,-1.786,-1.786,-1.786,-1.786,-1.7935,-1.8091,-1.8091,-1.8179,-1.8335,-1.8464,-1.8464,-1.8335,-1.862,-1.8694,-1.8552,-1.8694,-2.0363,-2.2867,-2.0023,-2.0363,-2.3105,-2.3105,-2.4912,-2.7647,-2.7647,-2.7881,-2.8676,-3.1909,-3.3232,-3.3955,0.0,0.0,0.0,0.0,0.0,0.0,0.0,0.0,0.0,0.0,0.0,0.0,0.0,3.6816,3.7012,3.6855,3.6836,3.6316,3.5142,3.4993,3.3431,3.0004,2.9895,2.8928,2.6827,2.6921,2.7121,2.7415,2.5906,2.5131,2.4886,2.1967,1.9949,1.8794,1.9656,1.8677,1.6383,1.6287,1.581,1.4825,1.3142,1.2534,1.2367,0.9817,0.7315,0.5083,0.4127,0.0,0.0,0.0,0.0,0.0,0.0,-0.2738,-0.3299,-0.5148,-0.6489,-0.7525,-0.8581,-0.8948,-0.8872,-0.8923,-0.8933,-0.8596,-0.7593,-0.8157,-0.8596,-0.7593,-0.8157,-0.9483,-1.1385,-0.9313,-0.7654,-0.875,-1.0568,-1.1813,-1.1781,-1.4352,-1.6237,-1.6305,-1.7197,-1.786,-1.786,-1.786,-1.786,-1.786,-1.786,-1.786,-1.786,-1.786,-1.788,-1.7948,-1.7948,-1.8023,-1.8179,-1.8321,-1.8375,-1.8321,-2.0546,-2.152,-2.1571,-2.369,-2.5255,-2.6149,-2.5132,-2.5255,-2.6272,-2.6272,-2.808,-3.0812,-3.0812,-3.2316,-3.4525,-3.5497,-3.6346,-3.7116,0.0,0.0,0.0,0.0,0.0,0.0,0.0,0.0,0.0,0.0,0.0,0.0,0.0,0.0,3.7461,3.7305,3.6701,3.5669,3.4252,3.337,3.1645,2.8879,2.8817,2.8227,2.6827,2.6827,2.6637,2.6177,2.4574,2.3245,2.2353,1.9374,1.7705,1.7345,1.7512,1.6699,1.5174,1.4232,1.3871,1.3657,1.1018,1.0018,0.9824,0.7252,0.5293,0.3704,0.2828,0.0,0.0,0.0,0.0,0.0,0.0,0.0,-0.6515,-0.9491,-1.0401,-1.0652,-1.1598,-1.1956,-1.1965,-1.1923,-1.1937,-1.1612,-1.0599,-1.1159,-1.1612,-1.0599,-1.127,-1.2501,-1.4503,-1.3278,-1.1937,-1.1937,-1.3616,-1.4958,-1.4958,-1.6631,-1.786,-1.786,-1.786,-1.786,-1.786,-1.786,-1.786,-1.786,-1.786,-1.786,-1.786,-1.786,-1.786,-1.786,-1.786,-1.7914,-1.8023,-1.9169,-1.9654,-1.9617,-2.2999,-2.4465,-2.4515,-2.6818,-2.842,-2.9459,-2.9459,-2.9459,-2.9459,-2.9459,-3.115,-3.3862,-3.3862,-3.5405,-3.7676,-3.7569,-3.7969,-3.8544,0.0,0.0,0.0,0.0,0.0,0.0,0.0,0.0,3.6055,3.6055,0.0,0.0,0.0,0.0,0.0,3.7312,3.5492,3.4234,3.4072,3.0793,2.8832,2.8756,2.7509,2.6814,2.6827,2.6733,2.5788,2.3975,2.3575,2.1494,1.7746,1.7755,1.6557,1.4557,1.4797,1.4945,1.4798,1.2428,1.1385,1.1102,0.8546,0.7453,0.723,0.4633,0.3617,0.3281,0.0897,-0.0102,-0.0208,-0.021,0.0,0.0,0.0,0.0,0.0,-1.2673,-1.3523,-1.4165,0.0,0.0,0.0,-1.786,-1.786,-1.7086,-1.4165,-1.585,-1.708,-1.4165,-1.585,-1.786,-1.786,-1.786,-1.786,-1.786,-1.786,-1.786,-1.786,-1.786,-1.786,-1.786,-1.786,-1.786,-1.786,-1.786,-1.786,-1.786,-1.786,-1.786,-1.786,-1.786,-1.7977,-1.7977,-1.7977,-1.8088,-1.8184,-2.1072,-2.2481,-2.2328,-2.5856,-2.75,-2.7317,-2.7866,-2.9765,-3.2473,-3.2508,-3.2508,-3.2508,-3.2508,-3.4308,-3.6941,-3.6941,-3.7128,-3.7422,-3.7702,-3.7996,-3.829,0.0,0.0,0.0,0.0,0.0,0.0,3.6484,3.6758,3.6953,0.0,0.0,0.0,0.0,0.0,3.8201,3.6645,3.5667,3.3896,3.0906,2.9777,2.8555,2.7102,2.6729,2.66,2.6814,2.5055,2.4021,2.3715,2.0506,1.8388,1.7289,1.592,1.4107,1.1927,1.2051,1.1171,0.9764,1.0879,1.0342,0.8451,0.5839,0.483,0.4584,0.2066,-0.02,-0.1825,-0.0512,-0.27,-0.6017,-0.3945,-0.3232,-0.3811,0.0,0.0,0.0,0.0,0.0,0.0,-1.7632,0.0,0.0,0.0,0.0,0.0,-1.6852,-1.7307,-1.7632,-1.6852,-1.7307,-1.786,-1.786,-1.786,-1.786,-1.786,-1.786,-1.786,-1.786,-1.786,-1.786,-1.786,-1.786,-1.786,-1.786,-1.786,-1.786,-1.786,-1.786,-1.786,-1.786,-1.786,-1.8853,-2.0905,-2.1015,-2.1983,-2.4145,-2.4962,-2.5397,-2.5349,-2.863,-3.0212,-3.0276,-3.2883,-3.46,-3.5397,-3.5604,-3.5669,-3.5669,-3.5669,-3.6139,-3.6941,-3.6941,-3.7128,-3.7382,-3.7462,-3.7823,-3.8263,0.0,0.0,0.0,0.0,0.0,3.6738,3.6894,3.7148,3.7305,0.0,0.0,0.0,0.0,0.0,3.7292,3.5215,3.3992,3.2252,2.9736,2.8797,2.7745,2.6479,2.6507,2.6707,2.7001,2.4608,2.3096,2.251,1.8876,1.6669,1.5817,1.3659,1.2042,1.0809,0.9865,0.8144,0.6049,0.7611,0.7376,0.58,0.3269,0.1557,0.0296,-0.1195,-0.3555,-0.5814,-0.418,-0.5093,-0.691,-0.651,-0.7213,0.0,0.0,0.0,0.0,0.0,0.0,0.0,0.0,0.0,-1.786,-1.786,0.0,0.0,-1.786,-1.786,-1.786,-1.786,-1.786,-1.786,-1.786,-1.786,-1.786,-1.786,-1.786,-1.786,-1.786,-1.786,-1.786,-1.786,-1.786,-1.786,-1.786,-1.786,-1.786,-1.786,-1.906,-2.0255,-2.1453,-2.1437,-2.2303,-2.3937,-2.3937,-2.4797,-2.6519,-2.7715,-2.836,-2.836,-3.1558,-3.3115,-3.3127,-3.5458,-3.65,-3.6513,-3.6834,-3.6941,-3.6941,-3.6941,-3.6941,-3.6941,-3.6941,-3.7048,-3.7235,-3.7489,-3.8533,-3.9982,0.0,0.0,3.6152,3.6601,3.6758,3.6953,3.7383,3.748,3.7519,0.0,3.7986,3.7949,3.6782,0.0,0.0,0.0,3.1394,3.0061,2.9621,2.7884,2.676,2.6493,2.6734,2.692,2.6967,2.4683,2.2521,2.0632,1.7996,1.5723,1.3633,1.1527,1.0264,0.9829,0.7858,0.5574,0.3235,0.3359,0.3207,0.2673,0.0483,-0.1961,-0.4286,-0.4537,-0.6611,-0.9141,-0.8837,-0.7575,-0.6294,-0.8604,-1.1418,0.0,0.0,0.0,0.0,0.0,-1.786,0.0,0.0,0.0,0.0,-1.7914,-1.7901,0.0,-1.788,-1.788,-1.786,-1.786,-1.786,-1.786,-1.786,-1.786,-1.786,-1.786,-1.786,-1.786,-1.786,-1.786,-1.786,-1.786,-1.786,-1.786,-1.786,-1.786,-1.786,-1.786,-2.0584,-2.3511,-2.6313,-2.6529,-2.6637,-2.6961,-2.6961,-2.7176,-2.75,-3.0086,-3.1379,-3.1391,-3.4248,-3.5578,-3.5605,-3.6153,-3.6393,-3.6433,-3.6754,-3.6901,-3.6901,-3.7246,-3.7162,-3.6941,-3.6941,-3.7149,-3.7451,-3.8005,-4.0079,-4.277,0.0,3.6016,3.6152,3.6601,3.7226,3.7832,3.8262,3.8613,3.8828,3.8828,3.7746,3.7053,3.7156,0.0,0.0,0.0,3.0731,2.9603,2.7892,2.7419,2.7161,2.7094,2.7148,2.6475,2.4807,2.2415,2.0244,1.8172,1.5838,1.35,1.1161,1.0817,0.8647,0.501,0.4523,0.302,0.0741,0.0749,-0.0571,-0.2727,-0.3148,-0.3695,-0.4477,-0.6873,-0.9635,-1.1913,-0.9689,-1.1527,-1.4781,-1.3112,-1.4492,-1.6624,0.0,0.0,0.0,-1.786,0.0,0.0,0.0,0.0,0.0,0.0,-1.8145,0.0,-1.8036,-1.7948,-1.786,-1.786,-1.786,-1.786,-1.786,-1.786,-1.786,-1.786,-1.786,-1.786,-1.786,-1.786,-1.786,-1.786,-1.786,-1.786,-1.786,-1.786,-1.786,-1.786,-2.0584,-2.3511,-2.6313,-2.6529,-2.7607,-2.9979,-3.0086,-3.1166,-3.346,-3.4108,-3.4319,-3.4319,-3.4927,-3.5284,-3.5297,-3.5645,-3.5805,-3.5832,-3.6353,-3.658,-3.6826,-3.9304,-3.8966,-3.6941,-3.6941,-3.8321,-4.0402,-4.0812,-4.2785,-4.52,3.6016,3.6016,3.623,3.6875,3.75,3.8144,3.8789,3.8229,3.7746,3.7859,3.6374,3.51,3.4418,0.0,0.0,0.0,0.0,0.0,0.0,2.7482,2.6908,2.5602,2.5715,2.4759,2.2509,2.0377,1.8723,1.7628,1.415,1.1814,1.054,0.8262,0.5872,0.3547,0.2379,0.0461,-0.1864,-0.1976,-0.3554,-0.601,-0.4753,-0.5949,-0.8792,-1.032,-1.2646,-1.5146,-1.3737,-1.515,-1.7319,-1.4376,-1.5395,-1.7632,-1.6077,-1.6631,-1.786,0.0,-1.7914,-1.8329,0.0,0.0,0.0,-2.2399,-2.2727,0.0,0.0,-2.1261,-2.005,-2.005,-1.8942,-1.786,-1.786,-1.906,-2.005,-2.005,-2.005,-2.005,-2.005,-1.8853,-1.786,-1.786,-1.786,-1.786,-1.786,-1.786,-1.906,-2.1983,-2.4905,-2.7823,-3.0632,-3.0846,-3.1497,-3.301,-3.301,-3.3778,-3.5191,-3.5191,-3.5191,-3.5191,-3.5191,-3.5191,-3.5204,-3.5498,-3.5631,-3.5645,-3.7554,-3.8481,-3.8839,-4.1744,-4.2235,-4.1213,-4.1213,-4.2065,-4.339,-4.3736,-4.5686,-4.8202,3.4865,3.5226,3.5632,3.6104,3.6813,3.746,3.7987,3.673,3.5769,3.6082,3.4479,3.2887,3.1527,0.0,0.0,0.0,0.0,0.0,0.0,0.0,2.6146,2.408,2.3752,2.2575,2.0275,1.8634,1.7318,1.6442,1.2591,1.0257,0.9256,0.5369,0.339,0.2772,0.0371,-0.1864,-0.3854,-0.447,-0.6418,-0.8691,-0.6709,-0.8775,-1.3022,-1.3607,-1.5481,-1.765,-1.7684,-1.7758,-1.7522,-1.5057,-1.585,-1.786,-1.786,-1.786,0.0,0.0,0.0,0.0,0.0,0.0,0.0,0.0,-2.7236,-2.7043,0.0,0.0,0.0,-2.3075,-2.1226,-1.961,-1.961,-2.1453,-2.2957,-2.2922,-2.2948,-2.3066,-2.2922,-2.0999,-1.9177,-1.7977,-1.786,-1.786,-1.786,-1.8412,-2.1108,-2.6961,-2.9551,-3.2148,-3.5085,-3.5191,-3.5191,-3.5191,-3.5191,-3.5191,-3.5191,-3.5191,-3.5191,-3.5191,-3.5191,-3.5507,-3.6019,-3.616,-3.6573,-3.7209,-3.9686,-4.1028,-4.1606,-4.445,-4.5838,-4.6124,-4.566,-4.5783,-4.6347,-4.6543,-4.8489,-5.1092,3.0946,3.2316,3.3194,3.2215,3.3848,3.4895,3.3916,3.3859,3.3959,3.4246,3.2487,3.1197,3.1362,0.0,0.0,0.0,0.0,0.0,2.8181,0.0,0.0,2.4608,2.2643,2.049,1.8165,1.7921,1.5733,1.1511,1.0993,0.8521,0.4363,0.3854,0.2493,0.0278,-0.2237,-0.3574,-0.4181,-0.6571,-0.9348,-1.2139,-1.2023,-1.2355,-1.3269,-1.5991,-1.7275,-1.7663,-1.7792,-1.7846,-1.786,-1.7522,-1.7632,-1.786,-1.786,-1.786,-1.786,-1.786,0.0,0.0,0.0,0.0,0.0,-2.7702,-2.7469,-2.7166,-2.7166,0.0,-2.5988,-2.5988,0.0,-2.5556,-2.5556,0.0,0.0,-2.5731,-2.586,-2.5919,-2.5731,-2.5547,-2.3611,-1.8508,-1.786,-1.786,-1.786,-2.0255,-2.4155,-2.9979,-3.0727,-3.2148,-3.5085,-3.5191,-3.5191,-3.5191,-3.5191,-3.5191,-3.5191,-3.5191,-3.5191,-3.5191,-3.5191,-3.653,-3.8871,-3.89,-4.0141,-4.2485,-4.3046,-4.3431,-4.3735,-4.7182,-4.8635,-4.85,-4.6301,-4.7054,-4.9188,-4.9347,-5.1189,-5.357,3.0097,3.0946,0.0,3.1413,3.2436,3.3167,3.3149,3.2506,3.1641,3.0321,2.9596,2.9397,2.9509,0.0,0.0,0.0,0.0,2.8337,0.0,0.0,0.0,0.0,2.0443,1.8104,1.5858,1.4428,1.2692,1.0725,0.7967,0.5574,0.361,0.214,0.0187,-0.2258,-0.3417,-0.5648,-0.8599,-0.9943,-1.2235,-1.5008,-1.532,-1.5536,-1.5859,-1.7133,-1.7704,-1.7998,-1.98,-2.0372,-2.0694,-2.2311,-2.1781,-2.0694,-2.2311,-2.0584,-1.8508,-2.1874,-2.2607,0.0,0.0,-2.8842,-3.0454,-3.2348,-3.2576,-3.2398,-3.2398,-3.067,-2.9004,-2.9004,0.0,0.0,0.0,0.0,0.0,0.0,-2.8938,-2.8971,-2.8872,-2.7544,-2.5556,-2.3175,-2.2848,-2.2848,-2.2848,-2.3937,-2.6421,-3.0621,-3.2467,-3.3883,-3.5085,-3.5191,-3.5191,-3.5191,-3.5191,-3.5191,-3.5191,-3.6831,-3.7548,-3.7652,-3.9166,-4.0477,-4.1604,-4.1604,-4.2201,-4.3436,-4.5104,-4.6018,-4.6447,-4.9551,-5.1126,-5.1478,-5.0483,-5.0911,-5.2203,-5.2203,-5.2961,-5.4023,2.8594,0.0,2.9593,2.9687,3.0373,3.0953,3.1229,3.052,2.9367,2.7648,2.7913,2.8221,2.8221,2.8301,0.0,0.0,2.7925,2.762,0.0,0.0,2.227,0.0,0.0,0.0,0.0,1.162,1.0126,0.8746,0.5305,0.2863,0.1499,-0.0188,-0.2364,-0.4848,-0.5774,-0.8264,-1.1978,-1.3073,-1.5245,-1.8024,-1.8299,-1.9003,-1.9799,-1.9089,-1.9404,-2.0576,-2.2647,-2.3402,-2.372,-2.5772,-2.5122,-2.372,-2.588,-2.3611,-2.1108,-2.5231,-2.5663,-2.568,-3.0128,-3.2181,-3.348,-3.5821,-3.6166,-3.5952,-3.5952,-3.391,-3.2042,-3.2042,-3.0419,0.0,0.0,0.0,-3.2127,-3.2042,0.0,-3.2091,-3.1944,-3.0159,-2.8253,-2.6745,-2.6529,-2.6853,-2.7607,-2.7715,-2.8897,-3.1817,-3.3989,-3.5191,-3.5191,-3.5191,-3.5191,-3.5191,-3.5191,-3.5612,-3.6321,-3.8248,-3.9683,-4.0389,-4.2404,-4.3723,-4.443,-4.443,-4.4832,-4.5652,-4.7681,-4.8657,-4.9132,-5.1204,-5.2441,-5.3027,-5.3262,-5.3555,-5.3867,-5.3984,-5.4023,-5.4023,2.516,2.6498,2.71,2.5548,2.6843,2.7684,2.6724,2.7055,2.7457,2.7642,2.7949,2.8221,2.8221,2.8417,0.0,0.0,0.0,2.5337,2.5252,0.0,1.822,0.0,0.0,1.3475,0.0,1.0942,0.8557,0.3783,0.3635,0.1123,-0.356,-0.3595,-0.5033,-0.7599,-1.0358,-1.1778,-1.231,-1.5239,-1.8448,-2.1373,-2.1356,-2.3134,-2.5584,-2.2996,-2.3828,-2.6205,-2.6313,-2.6313,-2.6421,-2.6421,-2.6421,-2.6421,-2.6421,-2.6421,-2.6313,-2.6421,-2.8468,-3.0691,-3.1175,-3.3342,-3.5618,-3.6019,-3.5859,-3.5645,-3.5645,-3.5298,-3.5085,-3.5085,-3.498,-3.4953,-3.5231,0.0,0.0,0.0,0.0,0.0,0.0,-3.4807,-3.281,-2.7176,-2.6529,-2.7607,-3.0514,-3.0739,-3.1923,-3.4874,-3.5191,-3.5191,-3.5191,-3.5191,-3.5191,-3.5191,-3.5191,-3.653,-3.9166,-3.927,-4.0579,-4.3217,-4.3217,-4.4732,-4.7284,-4.7284,-4.8688,-5.1134,-5.1231,-5.1231,-5.129,-5.1914,-5.2109,-5.2207,-5.3027,-5.3379,-5.3437,-5.3867,-5.4023,-5.4023,0.0,0.0,2.6047,2.5765,2.6012,2.6405,2.6613,2.7014,2.7442,2.7923,2.8257,2.8524,2.8711,2.8831,2.8178,2.6586,0.0,2.4797,2.2938,2.0039,0.0,0.0,0.0,1.3484,0.0,0.0,0.6934,0.3638,0.1968,-0.0471,-0.3784,-0.3796,-0.6098,-1.0258,-1.1435,-1.4102,-1.7724,-1.9111,-2.1526,-2.4423,-2.4661,-2.538,-2.63,-2.5156,-2.5537,-2.6745,-2.8682,-2.9433,-2.9658,-3.1604,-3.0952,-2.9765,-3.1604,-2.9658,-2.7284,-3.1071,-3.1604,-3.1296,-3.3349,-3.4713,-3.5658,-3.5752,-3.5698,-3.5631,-3.5631,-3.5404,-3.5244,-3.5444,-3.5485,-3.5511,-3.5605,0.0,0.0,0.0,0.0,0.0,0.0,-3.5137,-3.4438,-3.2479,-3.0525,-3.0525,-3.3447,-3.1871,-3.1774,-3.4687,-3.491,-3.491,-3.491,-3.5097,-3.6006,-3.7846,-3.795,-3.9166,-4.1911,-4.3723,-4.5151,-4.6053,-4.778,-4.9199,-5.0002,-5.0002,-5.051,-5.1426,-5.1426,-5.1426,-5.1445,-5.1582,-5.1816,-5.2306,-5.4191,-5.5422,-5.5996,-5.6368,-5.6553,-5.6832,2.5371,2.5451,2.5571,2.5758,2.5732,2.5892,2.656,2.7094,2.7589,2.8167,2.7714,2.7493,2.7672,2.7059,2.5949,2.4341,2.3655,2.2573,2.0648,1.849,0.0,1.5691,1.4212,0.0,0.0,0.0,0.0,0.0,-0.0189,-0.2648,-0.513,-0.6079,-0.8759,-1.2936,-1.324,-1.6053,-2.0414,-2.1106,-2.3766,-2.7574,-2.8734,-2.9236,-2.9157,-2.9078,-2.8622,-2.8468,-3.1391,-3.2467,-3.2692,-3.4544,-3.4002,-3.2798,-3.465,-3.2586,-3.0312,-3.4108,-3.3883,-3.2798,-3.465,-3.5338,-3.5471,-3.5471,-3.5471,-3.5471,-3.5471,-3.5324,-3.5244,-3.5431,-3.5471,-3.5511,-3.5605,0.0,0.0,0.0,0.0,0.0,0.0,-3.5191,-3.5191,-3.5191,-3.3566,-3.3129,-3.498,-3.3193,-3.2751,-3.4805,-3.4817,-3.5324,-3.6329,-3.6524,-3.795,-4.0682,-4.0682,-4.1997,-4.4732,-4.647,-4.7879,-4.8786,-5.0608,-5.1426,-5.1426,-5.1426,-5.1426,-5.1426,-5.1426,-5.1426,-5.1426,-5.1426,-5.2049,-5.3355,-5.5096,-5.6719,-5.8084,-5.8751,-5.9116,-5.9419,2.5905,2.5758,2.5571,2.5571,2.5812,2.6092,2.6386,2.708,2.7662,2.8052,2.6389,2.5213,2.5213,2.3358,2.2041,2.195,2.0042,1.8719,1.8282,1.6077,0.0,0.0,1.0981,0.8739,0.3896,0.0,0.0,0.0,-0.257,-0.513,-0.788,-1.0248,-1.2816,-1.5221,-1.5662,-1.7599,-2.0466,-2.1286,-2.5032,-3.0614,-3.3279,-3.4059,-3.3731,-3.4126,-3.2859,-3.126,-3.4201,-3.5191,-3.5191,-3.5191,-3.5191,-3.5191,-3.5191,-3.5191,-3.5191,-3.5191,-3.5191,-3.5191,-3.5191,-3.5191,-3.5191,-3.5191,-3.5191,-3.5191,-3.5191,-3.5191,-3.5204,-3.5217,-3.5217,-3.5297,-3.5578,-3.5631,0.0,0.0,0.0,0.0,-3.5231,-3.5296,-3.5401,-3.5401,-3.5401,-3.5401,-3.5401,-3.5028,-3.4961,-3.5334,-3.5092,-3.6156,-3.9107,-3.9343,-4.0667,-4.342,-4.3521,-4.4832,-4.7582,-4.7582,-4.8903,-5.1426,-5.1426,-5.1426,-5.1426,-5.1426,-5.1426,-5.1426,-5.1426,-5.1426,-5.162,-5.162,-5.2988,-5.5346,-5.5883,-5.764,-5.9921,-6.0746,-6.1469,-6.1902,2.5945,2.6239,2.6493,2.6493,2.6547,2.6707,2.7001,2.607,2.5519,2.6066,2.4274,2.3004,2.3182,2.2708,2.164,1.9894,1.9208,1.8095,1.6175,0.0,0.0,1.1299,0.9535,0.7008,0.3898,0.3803,0.0,-0.2854,-0.3518,-0.6079,-1.0441,-1.1102,-1.2913,-1.5533,-1.5757,-1.8797,-2.361,-2.4216,-2.7796,-3.3279,-3.4238,-3.3188,-3.1267,-3.3681,-3.291,-3.0905,-3.403,-3.5191,-3.5191,-3.5191,-3.5191,-3.5191,-3.5191,-3.5191,-3.5191,-3.5191,-3.5191,-3.5191,-3.5191,-3.5191,-3.5191,-3.5191,-3.5191,-3.5191,-3.5191,-3.5191,-3.5257,-3.5471,-3.5511,-3.5538,-3.5618,-3.5631,0.0,0.0,0.0,0.0,0.0,-3.6935,-3.8262,-3.8262,-3.8262,-3.8262,-3.8262,-3.5941,-3.5267,-3.7447,-3.7142,-3.7402,-3.8522,-4.0677,-4.3255,-4.6252,-4.637,-4.7681,-5.0315,-5.0413,-5.0725,-5.1426,-5.1426,-5.1426,-5.1426,-5.1426,-5.1426,-5.1426,-5.1426,-5.2451,-5.4189,-5.4189,-5.5565,-5.8079,-6.0045,-6.2539,-6.4966,-6.4144,-6.4841,-6.6316,2.6146,2.6507,2.6867,2.6987,2.6303,2.5848,2.6082,2.6121,2.5909,2.5472,2.3429,2.2061,2.2293,2.0492,1.8702,1.739,1.6263,1.5019,1.3572,1.1072,0.0,0.8022,0.6633,0.4177,0.057,0.0475,0.0,-0.5415,0.0,-0.8637,-1.139,-1.2528,-1.4525,-1.7245,-1.7403,-2.0721,-2.6365,-2.8175,-3.0953,-3.4336,-3.4496,-3.3434,0.0,-3.3954,-3.3707,-3.2366,-3.4492,-3.5191,-3.5191,-3.5191,-3.5191,-3.5191,-3.5191,-3.5191,-3.5191,-3.5191,-3.5191,-3.5191,-3.5191,-3.5191,-3.5191,-3.5191,-3.5191,-3.5191,-3.5191,-3.5191,-3.5244,-3.5404,-3.5444,-3.5444,-3.5444,-3.5444,-3.5391,0.0,0.0,0.0,-3.704,-3.9373,-4.1092,-4.1092,-4.1092,-4.1502,-4.2709,-3.768,-3.5963,-3.9992,-3.866,-3.8982,-4.1863,-4.3571,-4.5865,-4.9082,-4.9199,-4.9904,-5.1426,-5.1426,-5.1426,-5.1426,-5.1426,-5.1426,-5.1426,-5.2527,-5.2988,-5.3084,-5.4209,-5.5398,-5.6688,-5.6688,-5.8149,-6.0632,-6.3113,-6.5111,-6.6516,-6.5989,-6.6789,-6.8221,2.603,2.6293,2.6528,2.6859,2.5324,2.4041,2.3731,2.5494,2.6302,2.4737,2.2495,2.1051,2.1196,1.7532,1.5038,1.5147,1.2893,1.1345,1.1248,0.8594,0.6057,0.3759,0.3124,0.076,-0.3708,-0.4086,-0.551,0.0,-1.0342,-1.1579,-1.1956,-1.451,-1.6928,-1.9244,-1.9811,-2.2997,-2.8271,-3.1918,-3.3721,-3.4202,-3.4282,-3.4162,-3.4002,-3.4549,-3.4603,-3.4442,-3.5004,-3.5191,-3.5191,-3.5191,-3.5191,-3.5191,-3.5191,-3.5191,-3.5191,-3.5191,-3.5191,-3.5191,-3.5191,-3.5191,-3.5191,-3.5191,-3.5191,-3.5191,-3.5191,-3.5191,-3.5191,-3.5191,-3.5191,-3.5191,-3.5191,-3.5191,-3.5296,0.0,-3.7444,-3.8959,-3.9683,-4.1808,-4.342,-4.3824,-4.3824,0.0,-4.7681,-4.0311,-3.7578,-4.2857,-4.0431,-4.1013,-4.6368,-4.7009,-4.8401,-5.1231,-5.1406,-5.1426,-5.1426,-5.1426,-5.1426,-5.1426,-5.1697,-5.1891,-5.1988,-5.4474,-5.5565,-5.5659,-5.7872,-5.8997,-5.9271,-5.9271,-6.0722,-6.3201,-6.5285,-6.6112,-6.6187,-6.6764,-6.7593,-6.8346,2.4069,2.4422,2.4687,2.4735,2.319,2.1389,1.9535,1.9779,1.9997,1.9707,1.7772,1.6354,1.6258,1.5624,1.5106,1.5018,1.2847,1.138,1.136,0.7018,0.4274,0.3793,-0.0285,-0.2851,-0.3803,-0.5889,-0.8164,0.0,-1.1197,-1.2528,-1.461,-1.7118,-1.8599,-1.9252,-2.1508,-2.461,-2.8436,-3.1896,-3.3467,-3.3614,-3.4122,-3.4295,-3.4282,-3.4629,-3.4736,-3.4736,-3.507,-3.5191,-3.5191,-3.5191,-3.5191,-3.5191,-3.5191,-3.5191,-3.5191,-3.5191,-3.5191,-3.5191,-3.5191,-3.5191,-3.5191,-3.5191,-3.5191,-3.5191,-3.5191,-3.5191,-3.5191,-3.5191,-3.5191,-3.5191,-3.5191,-3.5191,-3.5914,-3.8248,-3.7026,-3.7429,-4.1997,-4.3014,-4.4127,-4.637,-4.6669,-4.778,-5.0413,-4.5036,-4.2707,-4.5868,-4.4984,-4.493,-4.6283,-4.8401,-4.9972,-5.0898,-5.125,-5.1426,-5.1426,-5.1426,-5.1426,-5.1426,-5.3447,-5.4474,-5.4548,-5.706,-5.8171,-5.8171,-5.863,-5.9999,-6.1846,-6.1846,-6.329,-6.5483,-6.594,-6.6112,-6.6187,-6.6764,-6.7091,-6.7367,2.2117,2.2262,2.2501,2.275,2.1076,1.941,1.8431,1.744,1.715,1.8242,1.7409,1.6781,1.6781,1.4626,1.3093,1.3098,0.9651,0.7501,0.7501,0.39,0.1237,-0.0095,-0.2471,-0.5036,-0.769,-0.892,-1.0814,-1.3375,-1.3375,-1.4691,-1.7118,-1.8313,-2.0352,-2.3179,-2.6069,-2.8498,-3.0581,-3.2439,-3.3454,-3.3921,-3.4376,-3.4549,-3.4576,-3.4883,-3.4897,-3.4803,-3.5097,-3.5191,-3.5191,-3.5191,-3.5191,-3.5191,-3.5191,-3.5191,-3.5191,-3.5191,-3.5191,-3.5191,-3.5191,-3.5191,-3.5191,-3.5191,-3.5191,-3.5191,-3.5191,-3.5191,-3.5191,-3.5191,-3.5191,-3.5191,-3.5191,-3.5191,-3.6111,-3.8871,-3.9373,-4.0785,-4.4832,-4.6651,-4.7978,-4.9297,-4.9324,-4.9698,-5.0997,-4.8409,-4.718,-4.8475,-4.6823,-4.6393,-4.7855,-4.9144,-5.0137,-5.0781,-5.0996,-5.1847,-5.3275,-5.3371,-5.3924,-5.5209,-5.6408,-5.706,-5.7153,-5.9636,-6.0722,-6.0812,-6.2001,-6.329,-6.4391,-6.4391,-6.5025,-6.6112,-6.6112,-6.6112,-6.6137,-6.6438,-6.6538,-6.6739,2.015,2.0143,2.0298,2.0686,1.8971,1.7349,1.6911,1.5431,1.5213,1.7388,1.7162,1.6743,1.6834,1.2986,1.0432,1.0493,0.645,0.3803,0.3803,0.0952,-0.1715,-0.3708,-0.4846,-0.7308,-1.1296,-1.1956,-1.3187,-1.5181,-1.5181,-1.6479,-1.8871,-1.9419,-2.2512,-2.7658,-3.0197,-3.1744,-3.2478,-3.2893,-3.3521,-3.4255,-3.4616,-3.4803,-3.4883,-3.511,-3.5057,-3.4883,-3.511,-3.5191,-3.5191,-3.5124,-3.5151,-3.5191,-3.5191,-3.5191,-3.5191,-3.5191,-3.5191,-3.5191,-3.5191,-3.5191,-3.5191,-3.5191,-3.5191,-3.5191,-3.5191,-3.5191,-3.5191,-3.5191,-3.5191,-3.5401,-3.5914,-3.6124,-3.6935,-3.9668,-4.1895,-4.4228,-4.6968,-4.9199,-5.0686,-5.1212,-5.0996,-5.0742,-5.0547,-5.0234,-5.013,-5.0496,-4.7932,-4.7234,-4.9301,-4.9394,-5.0008,-5.123,-5.1523,-5.3019,-5.5847,-5.5847,-5.6874,-5.8814,-5.9362,-5.9545,-5.9636,-6.2113,-6.329,-6.3378,-6.5285,-6.6112,-6.6112,-6.6112,-6.6112,-6.6112,-6.6112,-6.6112,-6.6137,-6.6237,-6.6212,-6.6338,1.8391,1.8225,1.8317,1.8442,1.6743,1.4567,1.2233,1.1782,1.2616,1.5153,1.3433,1.1975,1.1873,0.9518,0.7935,0.7777,0.5292,0.3803,0.3803,-0.076,-0.3518,-0.3803,-0.8258,-1.0913,-1.139,-1.3664,-1.4993,-1.5181,-1.5181,-1.6479,-1.8964,-2.1175,-2.5191,-3.0492,-3.1276,-3.1824,-3.2198,-3.304,-3.3601,-3.3975,-3.4536,-3.4923,-3.5164,-3.5191,-3.5177,-3.5164,-3.5191,-3.5191,-3.5151,-3.4897,-3.4977,-3.5191,-3.5191,-3.5191,-3.5191,-3.5191,-3.5191,-3.5191,-3.5191,-3.5191,-3.5191,-3.5191,-3.5191,-3.5191,-3.5191,-3.5191,-3.5191,-3.5191,-3.5191,-3.5914,-3.8456,-3.8974,-3.9771,-4.2506,-4.3115,-4.4228,-4.6968,-4.7582,-4.8558,-5.061,-5.082,-5.0508,-4.9726,-4.9609,-5.0053,-5.1322,-4.966,-4.8741,-4.8965,-4.8945,-5.021,-5.2911,-5.3725,-5.5565,-5.8447,-5.8447,-5.8539,-5.8814,-6.1106,-6.2113,-6.2202,-6.4653,-6.5742,-6.5742,-6.6026,-6.6112,-6.6112,-6.6112,-6.6112,-6.6112,-6.6112,-6.6112,-6.6187,-6.6689,-6.6564,-6.6287,1.5851,1.4571,1.3694,1.3829,1.19,1.0138,0.9228,0.9089,0.9488,1.0526,0.9771,0.9097,0.906,0.6819,0.5311,0.5289,0.2942,0.0857,-0.0665,-0.2661,-0.513,-0.8258,-1.0342,-1.2145,-1.3664,-1.6184,-1.7398,-1.7398,-1.7398,-1.9419,-2.3279,-2.2739,-2.5489,-3.0822,-3.141,-3.2024,-3.2679,-3.34,-3.3975,-3.4649,-3.6674,-3.6628,-3.5401,-3.704,-3.7638,-3.7638,-3.7638,-3.8531,-3.9658,-3.9536,-3.8692,-3.7311,-3.55,-3.6169,-3.7297,-3.55,-3.5057,-3.5151,-3.4977,-3.4937,-3.4937,-3.4937,-3.4803,-3.467,-3.467,-3.467,-3.467,-3.467,-3.4817,-3.5746,-3.8472,-3.9135,-4.0698,-4.5051,-4.5753,-4.6669,-4.9395,-4.9598,-4.9778,-5.0724,-5.0351,-4.9805,-4.918,-4.8887,-4.935,-5.1052,-5.0737,-5.0466,-5.0486,-5.1789,-5.2855,-5.3527,-5.5,-5.7446,-6.0992,-6.069,-6.1404,-6.3177,-6.4192,-6.4653,-6.4653,-6.5656,-6.6112,-6.6112,-6.6112,-6.6112,-6.6112,-6.6112,-6.6112,-6.6112,-6.6112,-6.6112,-6.6308,-6.78,-6.8229,-6.8241,1.2378,1.0883,0.9784,0.9862,0.8528,0.7283,0.6539,0.6458,0.6174,0.5418,0.5323,0.5605,0.6364,0.4183,0.2378,0.1615,-0.0095,-0.219,-0.4751,-0.5605,-0.7595,-1.1197,-1.2145,-1.3651,-1.6198,-1.8042,-1.9233,-1.9974,-1.9974,-2.2086,-2.6139,-2.5365,-2.7104,-3.1076,-3.1664,-3.2318,-3.3013,-3.3627,-3.4175,-3.4968,-3.7986,-3.8071,-3.6726,-3.9477,-4.043,-4.0338,-4.0338,-4.1224,-4.2509,-4.241,-4.1907,-4.0779,-3.8031,-3.8471,-3.9658,-3.7723,-3.7234,-3.7334,-3.702,-3.6505,-3.5955,-3.5858,-3.5075,-3.4514,-3.5321,-3.541,-3.5614,-3.6402,-3.6191,-3.6846,-4.0334,-4.1129,-4.2501,-4.643,-4.7729,-4.8648,-4.9641,-5.0301,-5.0527,-5.0254,-4.9824,-4.9258,-4.8555,-4.8203,-4.9051,-5.1507,-5.1808,-5.2021,-5.232,-5.3948,-5.5,-5.5417,-5.7019,-5.9616,-6.3312,-6.3094,-6.3999,-6.6112,-6.6112,-6.6112,-6.6112,-6.6112,-6.6112,-6.6112,-6.6112,-6.6112,-6.6112,-6.6112,-6.6112,-6.6112,-6.6112,-6.6515,-6.723,-6.8721,-6.9686,-7.0502,0.7881,0.7499,0.748,0.7652,0.7635,0.674,0.4276,0.3803,0.2949,0.0382,0.0095,0.1048,0.3613,0.1524,-0.0953,-0.3518,-0.3708,-0.4846,-0.7406,-0.987,-1.1296,-1.139,-1.3852,-1.6292,-1.8778,-1.8871,-2.0067,-2.2464,-2.2464,-2.3747,-2.6241,-2.9284,-3.1089,-3.169,-3.2278,-3.2706,-3.3013,-3.3627,-3.4055,-3.4541,-3.7549,-3.8971,-3.958,-4.2201,-4.3003,-4.269,-4.269,-4.236,-4.1998,-4.1751,-4.3529,-4.5585,-4.3372,-4.2343,-4.203,-4.2491,-4.259,-4.2508,-4.2047,-4.0325,-3.8702,-3.8287,-3.6213,-3.5014,-3.7606,-3.8197,-3.8887,-4.1354,-3.9875,-3.979,-4.5027,-4.6017,-4.6017,-4.6114,-4.8403,-4.9206,-4.6519,-4.8499,-4.9863,-4.8984,-4.9258,-4.9023,-4.7715,-4.7598,-4.9277,-5.3309,-5.313,-5.3286,-5.427,-5.44,-5.5976,-5.9307,-6.0439,-6.231,-6.5198,-6.575,-6.6112,-6.6112,-6.6112,-6.6112,-6.6112,-6.6112,-6.6112,-6.6112,-6.6112,-6.6112,-6.6112,-6.6112,-6.6112,-6.6112,-6.6112,-6.7374,-6.9301,-6.9274,-7.0664,-7.2506,0.7359,0.5946,0.4812,0.4898,0.3535,0.2156,0.1331,0.1239,0.0286,-0.2284,-0.257,-0.2948,-0.3889,-0.3136,-0.3615,-0.6171,-0.6364,-0.7501,-1.0059,-1.0913,-1.2145,-1.3946,-1.6371,-1.8135,-1.8871,-2.2178,-2.4204,-2.5036,-2.5204,-2.5834,-2.6851,-2.9762,-3.1289,-3.169,-3.2278,-3.2812,-3.3393,-3.5563,-3.6839,-3.7724,-4.234,-4.3157,-4.1964,-4.4556,-4.5322,-4.499,-4.499,-4.5927,-4.7057,-4.7023,-4.746,-4.7893,-4.7531,-4.6181,-4.439,-4.249,-4.213,-4.2146,-4.1785,-4.1276,-4.0649,-4.0537,-3.974,-3.9257,-4.0041,-4.0236,-4.0529,-4.1292,-4.0918,-4.1588,-4.5219,-4.603,-4.6694,-4.8594,-4.9682,-4.9872,-4.8977,-4.9335,-4.9629,-4.9355,-4.918,-4.8789,-4.8086,-4.911,-5.0878,-5.337,-5.4531,-5.5614,-5.6558,-5.8137,-5.936,-5.9915,-6.1422,-6.3176,-6.5283,-6.5082,-6.5383,-6.6112,-6.6112,-6.6112,-6.6112,-6.6112,-6.6112,-6.6112,-6.6112,-6.6112,-6.6112,-6.6112,-6.6112,-6.6283,-6.7712,-6.8721,-6.9686,-7.253,-7.4042,-7.4839,0.4651,0.3244,0.2276,0.2213,0.1024,-0.0282,-0.1237,-0.1429,-0.2381,-0.4941,-0.5225,-0.6174,-0.8731,-0.7595,-0.7308,-0.892,-0.9015,-1.0153,-1.2616,-1.3733,-1.4953,-1.6565,-1.8964,-2.0714,-2.1626,-2.466,-2.6695,-2.7612,-2.7884,-2.8297,-2.8669,-3.0369,-3.1503,-3.2107,-3.3409,-3.4297,-3.5068,-3.7802,-3.9386,-4.02,-4.4563,-4.5336,-4.4278,-4.6961,-4.771,-4.7357,-4.7357,-4.8178,-4.9277,-4.9277,-4.9101,-4.8906,-4.918,-4.8289,-4.6811,-4.5059,-4.4702,-4.4711,-4.442,-4.3748,-4.3141,-4.2891,-4.1996,-4.1428,-4.2386,-4.2673,-4.2881,-4.3927,-4.3453,-4.3722,-4.6348,-4.7043,-4.7704,-4.9386,-4.9687,-4.9629,-4.9453,-4.9199,-4.8965,-4.8808,-4.8691,-4.8516,-4.8223,-4.9121,-5.0788,-5.3637,-5.4563,-5.6182,-5.8847,-6.0422,-6.1173,-6.1181,-6.2432,-6.3751,-6.4982,-6.4856,-6.5233,-6.6112,-6.6112,-6.6112,-6.6112,-6.6112,-6.6112,-6.6112,-6.6112,-6.6112,-6.6197,-6.6976,-6.7315,-6.7543,-6.9686,-7.0961,-7.1975,-7.4658,-7.608,-7.6959,0.0449,-0.0183,-0.0278,-0.0278,-0.0377,-0.1333,-0.3708,-0.4088,-0.4941,-0.7501,-0.788,-0.8826,-1.1385,-1.1673,-1.1763,-1.1951,-1.1768,-1.271,-1.5268,-1.7584,-1.8964,-1.9141,-2.1452,-2.3838,-2.6139,-2.6411,-2.7624,-2.998,-3.0261,-3.0688,-3.1249,-3.1249,-3.1799,-3.2895,-3.5352,-3.6847,-3.7727,-4.0352,-4.166,-4.2107,-4.4831,-4.6138,-4.6658,-4.9129,-4.9863,-4.9492,-4.9492,-4.9219,-4.8867,-4.8867,-4.8867,-4.8867,-4.8867,-4.8867,-4.8945,-4.9355,-4.9492,-4.9394,-4.8965,-4.7422,-4.5775,-4.5376,-4.3452,-4.2386,-4.4701,-4.5267,-4.5943,-4.8327,-4.6878,-4.5999,-4.8381,-4.8769,-4.8769,-4.8769,-4.8769,-4.8633,-4.8223,-4.8164,-4.8027,-4.7656,-4.7969,-4.8223,-4.8242,-4.8103,-4.9793,-5.3868,-5.3648,-5.5672,-6.0956,-6.119,-6.1692,-6.2797,-6.335,-6.3877,-6.4404,-6.4957,-6.5534,-6.6112,-6.6112,-6.6112,-6.6112,-6.6112,-6.6112,-6.6112,-6.6283,-6.6344,-6.6515,-6.8664,-6.9521,-6.9768,-7.1843,-7.3915,-7.56,-7.5779,-7.7107,-7.8789,0.0091,-0.1559,-0.2871,-0.2892,-0.4498,-0.6027,-0.6639,-0.674,-0.7595,-1.0153,-1.0531,-1.148,-1.404,-1.4328,-1.5066,-1.7002,-1.5435,-1.5348,-1.7856,-1.8592,-1.9697,-2.1544,-2.4021,-2.5582,-2.6229,-2.8076,-2.9572,-3.0581,-3.0662,-3.0996,-3.157,-3.157,-3.2815,-3.5112,-3.6015,-3.7655,-3.9979,-4.2838,-4.4364,-4.4927,-4.7573,-4.8612,-4.8802,-4.9386,-4.9414,-4.9023,-4.9023,-4.8945,-4.8867,-4.8867,-4.8867,-4.8867,-4.8867,-4.8867,-4.8887,-4.8984,-4.9023,-4.8984,-4.8887,-4.8555,-4.8111,-4.8015,-4.7493,-4.7214,-4.7883,-4.7976,-4.8084,-4.8326,-4.7882,-4.7492,-4.7839,-4.7891,-4.7891,-4.7891,-4.7891,-4.7851,-4.7734,-4.7734,-4.7812,-4.8027,-4.8144,-4.834,-4.8672,-5.111,-5.3036,-5.4123,-5.6543,-5.8916,-6.1115,-6.119,-6.1692,-6.2797,-6.2948,-6.3299,-6.3877,-6.4404,-6.5157,-6.6112,-6.6112,-6.6112,-6.6112,-6.6112,-6.6112,-6.6197,-6.7854,-6.8581,-6.8747,-7.0907,-7.1763,-7.1923,-7.4042,-7.5145,-7.5779,-7.7431,-7.8397,-7.8789,-0.3201,-0.4612,-0.558,-0.5517,-0.6667,-0.8018,-0.9196,-0.9299,-1.0248,-1.281,-1.3093,-1.4128,-1.6658,-1.6939,-1.7856,-2.0344,-1.8321,-1.7949,-2.0344,-2.1626,-2.2831,-2.4113,-2.6592,-2.7883,-2.7883,-2.9182,-3.0207,-3.0795,-3.0795,-3.1634,-3.3323,-3.3323,-3.4935,-3.7821,-3.9218,-4.0818,-4.276,-4.557,-4.6953,-4.7272,-4.864,-4.9219,-4.9219,-4.9219,-4.9062,-4.8867,-4.8867,-4.8867,-4.8867,-4.8867,-4.8867,-4.8867,-4.8867,-4.8867,-4.8867,-4.8867,-4.8867,-4.8867,-4.8867,-4.8867,-4.8867,-4.8867,-4.8867,-4.8808,-4.8613,-4.8555,-4.8437,-4.8008,-4.793,-4.7851,-4.7617,-4.7578,-4.7578,-4.7578,-4.7578,-4.7519,-4.7305,-4.7285,-4.7441,-4.7871,-4.8862,-4.9651,-5.0095,-5.2605,-5.4648,-5.5343,-5.7204,-5.9163,-6.114,-6.1416,-6.1943,-6.2797,-6.2822,-6.3224,-6.4028,-6.4831,-6.5509,-6.6112,-6.6112,-6.6112,-6.6112,-6.6112,-6.6661,-6.7627,-6.8804,-6.9849,-7.088,-7.303,-7.3915,-7.4148,-7.6259,-7.7033,-7.721,-7.8397,-7.8789,-7.8789,-0.7187,-0.791,-0.8155,-0.8155,-0.8492,-0.9488,-1.1673,-1.2328,-1.3269,-1.5448,-1.6104,-1.7126,-1.9242,-1.9419,-2.0437,-2.2831,-2.1175,-2.0899,-2.2923,-2.5036,-2.6411,-2.6785,-2.8809,-2.9913,-2.9913,-3.0258,-3.0556,-3.0795,-3.1505,-3.3073,-3.5323,-3.5695,-3.7583,-4.0637,-4.293,-4.4486,-4.5663,-4.7957,-4.8867,-4.8867,-4.8867,-4.8867,-4.8867,-4.8867,-4.8867,-4.8867,-4.8867,-4.8867,-4.8867,-4.8867,-4.8867,-4.8867,-4.8867,-4.8867,-4.8867,-4.8867,-4.8867,-4.8867,-4.8867,-4.8867,-4.8867,-4.8867,-4.8867,-4.875,-4.8301,-4.8203,-4.8066,-4.7578,-4.748,-4.7461,-4.7402,-4.7383,-4.7383,-4.7383,-4.7324,-4.7187,-4.6875,-4.6777,-4.7003,-4.7939,-4.9799,-5.126,-5.1963,-5.3684,-5.5412,-5.6899,-5.7195,-5.8458,-6.106,-6.1617,-6.2169,-6.2822,-6.2822,-6.335,-6.4454,-6.5383,-6.5936,-6.6112,-6.6112,-6.6258,-6.6601,-6.6601,-6.777,-6.9768,-7.0068,-7.1283,-7.3136,-7.5221,-7.608,-7.6259,-7.8077,-7.8789,-7.8789,-7.8789,-7.8789,-7.8789,-0.7542,-0.9309,-1.0795,-1.0795,-1.2605,-1.4134,-1.4516,-1.6363,-1.784,-1.8313,-2.0067,-2.1544,-2.1912,-2.1912,-2.2923,-2.54,-2.5309,-2.5218,-2.5582,-2.5957,-2.7148,-2.9272,-2.9734,-2.9913,-2.9913,-3.182,-3.2223,-3.0795,-3.4804,-3.6302,-3.5323,-3.7436,-4.0031,-4.287,-4.3558,-4.5279,-4.7752,-4.8599,-4.8867,-4.8867,-4.8867,-4.8867,-4.8867,-4.8867,-4.8867,-4.8867,-4.8867,-4.8867,-4.8867,-4.8867,-4.8867,-4.8867,-4.8867,-4.8867,-4.8867,-4.8867,-4.8867,-4.8867,-4.8867,-4.8867,-4.8867,-4.8867,-4.8867,-4.875,-4.8301,-4.8203,-4.7988,-4.7187,-4.7031,-4.6914,-4.6562,-4.6504,-4.6504,-4.6504,-4.6211,-4.6074,-4.6367,-4.6094,-4.6828,-4.9465,-5.0154,-5.14,-5.4167,-5.5656,-5.6772,-5.7536,-5.8564,-5.9747,-6.114,-6.1266,-6.1768,-6.2797,-6.2822,-6.335,-6.4454,-6.463,-6.5183,-6.6112,-6.6112,-6.7061,-6.8804,-6.8804,-6.9931,-7.2082,-7.3887,-7.4811,-7.5297,-7.7431,-7.8325,-7.8325,-7.8717,-7.8789,-7.8789,-7.8789,-7.8789,-7.8789,-1.1377,-1.2671,-1.3469,-1.3469,-1.4422,-1.5643,-1.7032,-1.8135,-1.9419,-2.0714,-2.182,-2.3014,-2.4398,-2.4489,-2.5491,-2.7973,-2.8166,-2.8166,-2.8166,-2.8166,-2.8719,-2.9824,-2.9913,-3.0526,-3.1745,-3.4082,-3.4927,-3.4277,-3.6756,-3.8273,-3.8967,-4.0344,-4.2586,-4.5611,-4.58,-4.6892,-4.8574,-4.8769,-4.8867,-4.8867,-4.8867,-4.8867,-4.8867,-4.8867,-4.8867,-4.8867,-4.8867,-4.8867,-4.8867,-4.8867,-4.8867,-4.8867,-4.8867,-4.8867,-4.8867,-4.8867,-4.8691,-4.8516,-4.8516,-4.8516,-4.8457,-4.8223,-4.834,-4.834,-4.7676,-4.7519,-4.7344,-4.6719,-4.6601,-4.6523,-4.6328,-4.6308,-4.623,-4.5996,-4.5996,-4.5996,-4.5976,-4.7061,-4.8401,-5.0053,-5.2378,-5.4403,-5.5906,-5.7692,-5.8858,-5.9078,-5.9935,-6.0763,-6.1592,-6.1893,-6.2295,-6.2822,-6.3124,-6.4203,-6.6176,-6.6511,-6.7607,-6.9548,-6.9548,-7.0121,-7.1041,-7.1041,-7.2161,-7.4197,-7.5145,-7.6259,-7.7431,-7.8397,-7.8789,-7.8789,-7.8789,-7.8789,-7.8789,-7.8789,-7.8789,-7.8789,-1.4772,-1.5181,-1.5368,-1.5917,-1.6011,-1.6845,-1.9326,-2.0252,-2.1258,-2.3208,-2.393,-2.4945,-2.6876,-2.7057,-2.7792,-2.9734,-2.9913,-3.0093,-3.0691,-3.0705,-3.0705,-3.0705,-3.1212,-3.2351,-3.417,-3.6399,-3.7564,-3.742,-3.8845,-4.0456,-4.2189,-4.3029,-4.4905,-4.7578,-4.7578,-4.8047,-4.8867,-4.8867,-4.8867,-4.8867,-4.8867,-4.8867,-4.8867,-4.8867,-4.8867,-4.8867,-4.8867,-4.8867,-4.8867,-4.8867,-4.8867,-4.8867,-4.8867,-4.8867,-4.8867,-4.8867,-4.8476,-4.8066,-4.8066,-4.8066,-4.7988,-4.7656,-4.7832,-4.7871,-4.7109,-4.6933,-4.6816,-4.6387,-4.6308,-4.6308,-4.6308,-4.6308,-4.6191,-4.5879,-4.6016,-4.6248,-4.6597,-4.824,-5.004,-5.1527,-5.4724,-5.7019,-5.767,-5.9138,-6.0236,-6.0512,-6.0814,-6.1291,-6.1969,-6.2855,-6.3593,-6.4203,-6.4388,-6.5715,-6.8386,-6.8947,-7.034,-7.2506,-7.2506,-7.2743,-7.3214,-7.3214,-7.4379,-7.6334,-7.6334,-7.7284,-7.8789,-7.8789,-7.8789,-7.8789,-7.8789,-7.8789,-7.8789,-7.8789,-7.8789,-7.8789,-1.5153,-1.5181,-1.5917,-1.822,-1.8592,-1.9419,-2.1912,-2.4204,-2.5764,-2.5957,-2.7883,-2.9451,-2.9644,-2.9644,-2.9734,-2.9913,-2.9913,-3.0781,-3.3043,-3.3131,-3.3131,-3.3131,-3.5201,-3.6399,-3.6572,-3.88,-3.932,-3.787,-4.2334,-4.3819,-4.2585,-4.4914,-4.6581,-4.7578,-4.7578,-4.8047,-4.8867,-4.8867,-4.8867,-4.8867,-4.8867,-4.8867,-4.8867,-4.8867,-4.8867,-4.8867,-4.8867,-4.8867,-4.8867,-4.8867,-4.8867,-4.8867,-4.8867,-4.8867,-4.8867,-4.8867,-4.8262,-4.7617,-4.7617,-4.7617,-4.7617,-4.7578,-4.7598,-4.75,-4.7031,-4.6933,-4.6816,-4.6387,-4.6308,-4.6308,-4.6308,-4.6308,-4.6289,-4.6269,-4.5957,-4.6597,-4.8937,-4.9154,-5.0721,-5.5228,-5.6046,-5.73,-5.9765,-5.9782,-5.9985,-6.104,-6.0663,-6.0864,-6.1943,-6.3829,-6.5986,-6.8359,-6.7262,-6.785,-7.0451,-7.1029,-7.1714,-7.2506,-7.2506,-7.3499,-7.5372,-7.5372,-7.6558,-7.8542,-7.8542,-7.8644,-7.8789,-7.8789,-7.8789,-7.8789,-7.8789,-7.8789,-7.8789,-7.8789,-7.8789,-7.8789,-1.7476,-1.8693,-1.9983,-2.0991,-2.1175,-2.2004,-2.4398,-2.5582,-2.6785,-2.8256,-2.9272,-2.9913,-2.9913,-2.9913,-3.0526,-3.1909,-3.2086,-3.3043,-3.5375,-3.6917,-3.7003,-3.5533,-3.7775,-3.897,-3.897,-4.1479,-4.2537,-4.1898,-4.4281,-4.5135,-4.4554,-4.5716,-4.6758,-4.7578,-4.7578,-4.8047,-4.8867,-4.8867,-4.8867,-4.8867,-4.8867,-4.8867,-4.8867,-4.8867,-4.8867,-4.8867,-4.8867,-4.8867,-4.8867,-4.8867,-4.8867,-4.8867,-4.8867,-4.8867,-4.875,-4.8223,-4.7832,-4.7461,-4.6933,-4.6973,-4.7109,-4.6855,-4.6992,-4.707,-4.6641,-4.6543,-4.6504,-4.6328,-4.6308,-4.6308,-4.6308,-4.6308,-4.6627,-4.7772,-4.8069,-4.8835,-5.0931,-5.2563,-5.4165,-5.6008,-5.7431,-5.8677,-5.9706,-5.9608,-5.996,-6.109,-6.2146,-6.3182,-6.4348,-6.6276,-6.8579,-7.1234,-7.1231,-7.1653,-7.2584,-7.3284,-7.4515,-7.6438,-7.6438,-7.6811,-7.7608,-7.7608,-7.8004,-7.8789,-7.8789,-7.8789,-7.8789,-7.8789,-7.8789,-7.8789,-7.8789,-7.8789,-7.8789,-7.8789,-7.8789,-7.8933,-2.0067,-2.136,-2.2739,-2.3564,-2.3656,-2.4489,-2.6966,-2.7341,-2.7973,-2.9644,-3.0526,-3.0959,-3.0959,-3.1657,-3.269,-3.4329,-3.4504,-3.5446,-3.7775,-4.009,-4.068,-3.9055,-4.0511,-4.137,-4.137,-4.3369,-4.4453,-4.459,-4.5312,-4.5742,-4.5879,-4.6172,-4.668,-4.7383,-4.7519,-4.7988,-4.8672,-4.8808,-4.8867,-4.8867,-4.8867,-4.8867,-4.8867,-4.8867,-4.8867,-4.8867,-4.8867,-4.8867,-4.8867,-4.8867,-4.8867,-4.8867,-4.8867,-4.8769,-4.8535,-4.7949,-4.7578,-4.7246,-4.666,-4.6699,-4.6855,-4.6562,-4.6621,-4.6699,-4.6543,-4.6406,-4.6308,-4.6308,-4.6308,-4.6551,-4.7228,-4.7195,-4.7788,-4.9847,-5.0289,-5.1144,-5.3206,-5.5075,-5.6431,-5.7169,-5.8578,-5.9483,-5.9483,-6.0074,-6.0916,-6.2065,-6.3975,-6.5872,-6.7593,-6.9113,-7.1052,-7.3702,-7.4416,-7.4824,-7.5028,-7.5743,-7.699,-7.8789,-7.8789,-7.8789,-7.8789,-7.8789,-7.8789,-7.8789,-7.8789,-7.8789,-7.8789,-7.8789,-7.8789,-7.8789,-7.8789,-7.9118,-7.9658,-7.9658,-7.998,-8.0618,-2.2556,-2.2556,-2.3289,-2.5775,-2.6229,-2.7057,-2.9541,-2.9913,-2.9913,-2.9913,-3.1997,-3.3395,-3.3395,-3.5462,-3.683,-3.683,-3.683,-3.7861,-4.0156,-4.2409,-4.3711,-4.3711,-4.3711,-4.3711,-4.3711,-4.416,-4.4609,-4.5019,-4.5469,-4.5898,-4.6308,-4.6308,-4.6523,-4.6953,-4.7383,-4.7812,-4.8242,-4.8672,-4.8867,-4.8867,-4.8867,-4.8867,-4.8867,-4.8867,-4.8867,-4.8867,-4.8867,-4.8867,-4.8867,-4.8867,-4.8867,-4.8848,-4.8848,-4.8555,-4.8203,-4.8203,-4.7598,-4.6933,-4.6933,-4.6933,-4.6933,-4.6933,-4.6621,-4.6426,-4.6836,-4.6601,-4.6308,-4.6308,-4.6308,-4.6967,-4.9191,-4.9154,-4.9741,-5.2502,-5.2518,-5.3093,-5.5824,-5.6239,-5.7035,-5.9251,-5.9483,-5.9483,-5.9483,-6.1316,-6.2963,-6.4099,-6.6005,-6.844,-7.1726,-7.1927,-7.3161,-7.5817,-7.6514,-7.7143,-7.7801,-7.846,-7.8789,-7.8789,-7.8789,-7.8789,-7.8789,-7.8789,-7.8789,-7.8789,-7.8789,-7.8789,-7.8789,-7.8789,-7.8789,-7.8789,-7.8861,-7.991,-8.1411,-8.1411,-8.2524,-8.3995,-2.5127,-2.6502,-2.7883,-2.8719,-2.8809,-2.9079,-2.9824,-3.1301,-3.2351,-3.2351,-3.4329,-3.5793,-3.5793,-3.6399,-3.7432,-3.914,-3.9225,-4.0259,-4.2576,-4.3361,-4.3711,-4.3711,-4.3711,-4.3711,-4.3711,-4.4453,-4.4902,-4.5019,-4.5762,-4.6172,-4.6308,-4.6308,-4.6523,-4.6953,-4.7383,-4.7812,-4.8242,-4.8672,-4.8867,-4.8867,-4.8867,-4.8867,-4.8867,-4.8867,-4.8867,-4.8867,-4.8867,-4.8867,-4.8867,-4.8867,-4.8652,-4.8359,-4.8047,-4.8066,-4.8144,-4.7851,-4.7363,-4.6933,-4.6933,-4.6719,-4.6484,-4.6484,-4.6621,-4.6699,-4.6523,-4.6387,-4.6706,-4.829,-4.8281,-4.8733,-5.0948,-5.0966,-5.1441,-5.4221,-5.4494,-5.5383,-5.8114,-5.8525,-5.8759,-5.9405,-6.0736,-6.1542,-6.1542,-6.3219,-6.4873,-6.6045,-6.8838,-7.1452,-7.3882,-7.405,-7.4793,-7.6444,-7.6724,-7.7382,-7.8489,-7.8699,-7.8789,-7.8789,-7.8789,-7.8789,-7.8789,-7.8789,-7.8789,-7.8789,-7.8789,-7.8789,-7.8933,-8.009,-8.0618,-8.0756,-8.199,-8.2758,-8.3218,-8.3218,-8.3543,-8.4187,-2.7702,-2.8899,-2.9913,-2.9913,-3.0705,-3.1301,-3.1301,-3.3204,-3.4766,-3.4766,-3.6744,-3.8203,-3.8203,-3.897,-4.009,-4.1537,-4.1639,-4.2243,-4.3609,-4.3711,-4.3711,-4.3711,-4.3711,-4.3789,-4.3984,-4.4668,-4.5117,-4.5293,-4.5957,-4.6308,-4.6308,-4.6308,-4.6523,-4.6953,-4.7383,-4.7812,-4.8242,-4.8672,-4.8867,-4.8867,-4.8867,-4.8867,-4.8867,-4.8867,-4.875,-4.8613,-4.8789,-4.875,-4.8594,-4.8594,-4.8418,-4.8183,-4.8105,-4.8144,-4.8125,-4.7715,-4.7266,-4.6933,-4.6933,-4.6738,-4.6562,-4.6562,-4.6621,-4.666,-4.6562,-4.7086,-4.7966,-4.9276,-5.006,-5.1096,-5.3287,-5.3303,-5.3836,-5.6559,-5.6799,-5.734,-5.9253,-5.9483,-5.9792,-6.0584,-6.1666,-6.2683,-6.3465,-6.5214,-6.7157,-6.9179,-7.166,-7.3603,-7.4869,-7.4869,-7.5377,-7.6425,-7.6455,-7.7083,-7.84,-7.84,-7.8519,-7.8789,-7.8789,-7.8789,-7.8789,-7.8789,-7.8789,-7.8861,-7.9516,-7.9839,-7.998,-8.172,-8.2458,-8.2524,-8.3608,-8.4442,-8.5009,-8.5009,-8.5444,-8.6151,-2.9913,-3.0093,-3.0182,-3.0182,-3.2174,-3.3731,-3.3731,-3.562,-3.7089,-3.7089,-3.914,-4.0596,-4.0596,-4.2493,-4.3711,-4.3711,-4.3711,-4.3711,-4.3711,-4.3711,-4.3711,-4.3711,-4.3711,-4.3945,-4.4433,-4.4824,-4.5234,-4.5683,-4.6094,-4.6308,-4.6308,-4.6308,-4.6504,-4.6894,-4.7363,-4.7793,-4.8183,-4.8652,-4.8867,-4.8867,-4.8867,-4.8828,-4.8808,-4.8808,-4.8738,-4.8515,-4.8744,-4.8738,-4.8515,-4.8314,-4.8405,-4.8665,-4.9,-4.8842,-4.8468,-4.8055,-4.7464,-4.6973,-4.6933,-4.6933,-4.6914,-4.714,-4.6826,-4.6649,-4.7042,-4.8423,-4.9701,-5.0125,-5.1739,-5.3756,-5.6008,-5.5977,-5.6438,-5.8998,-5.9031,-5.8982,-5.9639,-5.9792,-6.0507,-6.2386,-6.2831,-6.3611,-6.5285,-6.7317,-6.9758,-7.2671,-7.4121,-7.4869,-7.4869,-7.4869,-7.5198,-7.5886,-7.5916,-7.6514,-7.7801,-7.7801,-7.813,-7.8789,-7.8789,-7.8789,-7.8789,-7.9005,-7.9046,-7.9118,-8.0894,-8.1615,-8.1751,-8.3543,-8.4251,-8.4251,-8.4378,-8.5382,-8.6753,-8.6753,-8.7737,-8.9072,-2.9913,-3.139,-3.2602,-3.2602,-3.4504,-3.6053,-3.6053,-3.8032,-3.9564,-3.9564,-4.1537,-4.2927,-4.2927,-4.3361,-4.3711,-4.3711,-4.3711,-4.3711,-4.3711,-4.3711,-4.3711,-4.3711,-4.3711,-4.4082,-4.4863,-4.498,-4.5234,-4.5683,-4.6094,-4.6308,-4.6308,-4.6308,-4.6348,-4.6465,-4.7246,-4.7637,-4.7773,-4.8535,-4.8867,-4.8867,-4.8867,-4.8652,-4.834,-4.834,-4.9422,-5.0737,-4.9009,-4.9733,-5.1121,-4.8938,-4.9653,-5.1419,-5.0818,-5.0777,-5.0901,-5.0446,-4.8977,-4.7363,-4.7031,-4.6933,-4.7278,-4.8687,-4.8952,-4.889,-4.8994,-4.9359,-5.061,-5.4069,-5.4844,-5.5542,-5.7752,-5.7717,-5.7696,-5.8728,-5.8805,-5.9414,-6.1464,-6.1741,-6.2461,-6.4355,-6.5949,-6.7025,-6.7439,-7.0156,-7.2165,-7.2827,-7.4121,-7.4869,-7.4869,-7.4869,-7.5198,-7.5886,-7.5916,-7.6514,-7.7801,-7.7801,-7.813,-7.8789,-7.8789,-7.8789,-7.8861,-8.023,-8.0825,-8.0963,-8.2692,-8.3413,-8.3543,-8.5258,-8.5935,-8.6057,-8.747,-8.8233,-8.8552,-8.8552,-8.8756,-8.9072,-3.1568,-3.3468,-3.5027,-3.5027,-3.6917,-3.8459,-3.8459,-4.0427,-4.189,-4.189,-4.2927,-4.3711,-4.3711,-4.3711,-4.3711,-4.3711,-4.3711,-4.3711,-4.3711,-4.3711,-4.3808,-4.4023,-4.506,-4.6021,-4.6848,-4.6889,-4.6601,-4.5976,-4.6191,-4.6308,-4.6308,-4.6308,-4.6523,-4.6933,-4.7383,-4.8285,-4.9449,-4.9914,-5.0605,-5.1449,-5.1449,-5.1303,-5.1115,-5.1324,-5.2054,-5.2866,-5.2107,-5.2719,-5.3492,-5.2276,-5.2719,-5.3712,-5.3452,-5.356,-5.3647,-5.317,-5.217,-5.1124,-5.0576,-5.0304,-5.0332,-5.1271,-5.135,-5.1198,-5.1198,-5.2011,-5.3415,-5.5711,-5.6818,-5.7692,-5.885,-5.8855,-5.8755,-5.9056,-5.9896,-6.093,-6.2211,-6.3172,-6.4454,-6.637,-6.7439,-6.8567,-6.9793,-7.1733,-7.3043,-7.3343,-7.43,-7.4869,-7.4869,-7.5594,-7.6185,-7.655,-7.7693,-7.8738,-7.9759,-8.0099,-8.0594,-8.1275,-8.044,-8.0051,-8.0121,-8.1855,-8.2626,-8.2723,-8.4409,-8.5163,-8.532,-8.7024,-8.7737,-8.7853,-8.8756,-8.9072,-8.9072,-8.9072,-8.9072,-8.914,-3.3994,-3.5793,-3.7432,-3.7432,-3.931,-4.0848,-4.0848,-4.2493,-4.3711,-4.3711,-4.3711,-4.3856,-4.4186,-4.4576,-4.4822,-4.4822,-4.4822,-4.4822,-4.4822,-4.4822,-4.4982,-4.53,-4.7191,-4.8592,-4.9381,-4.9487,-4.8669,-4.688,-4.688,-4.688,-4.688,-4.7208,-4.7761,-4.8462,-4.8542,-4.9848,-5.1966,-5.1966,-5.2909,-5.4342,-5.4253,-5.4163,-5.4141,-5.4628,-5.4794,-5.4907,-5.5468,-5.5539,-5.5382,-5.5744,-5.5933,-5.5983,-5.6328,-5.6464,-5.6373,-5.5938,-5.5591,-5.5158,-5.4445,-5.4042,-5.3834,-5.3988,-5.3731,-5.3579,-5.3906,-5.5147,-5.6295,-5.6693,-5.8241,-5.9483,-5.9483,-5.9483,-5.9637,-5.992,-6.1316,-6.2609,-6.3245,-6.4714,-6.6412,-6.8383,-6.8586,-6.9454,-7.1685,-7.2505,-7.3193,-7.3851,-7.451,-7.5006,-7.5316,-7.6568,-7.7481,-7.7896,-7.9825,-8.1273,-8.2043,-8.2714,-8.3354,-8.3995,-8.2824,-8.2124,-8.1922,-8.3673,-8.4442,-8.4505,-8.6179,-8.6932,-8.7083,-8.8495,-8.9072,-8.9072,-8.9072,-8.9072,-8.9072,-8.9072,-8.9173,-8.9376,-3.6313,-3.8203,-3.9818,-3.9818,-4.1723,-4.3278,-4.3278,-4.3526,-4.3711,-4.3711,-4.3711,-4.4432,-4.6264,-4.8043,-4.9126,-4.9126,-4.9126,-4.9126,-4.9126,-4.9126,-4.917,-4.9236,-4.9949,-5.0596,-5.1049,-5.1575,-5.097,-4.9126,-4.9126,-4.9126,-4.9211,-5.1114,-5.2077,-5.2231,-5.2565,-5.3281,-5.3979,-5.3894,-5.4264,-5.4811,-5.4387,-5.3962,-5.3689,-5.3756,-5.4985,-5.6491,-5.5076,-5.5095,-5.5767,-5.5856,-5.7194,-5.8766,-5.8861,-5.8799,-5.879,-5.8354,-5.7059,-5.5453,-5.4109,-5.4019,-5.4507,-5.5613,-5.5758,-5.6215,-5.8187,-5.7376,-5.6717,-5.8681,-5.9328,-5.9483,-5.9483,-5.9483,-6.0074,-6.1741,-6.2264,-6.3538,-6.6886,-6.7536,-6.8451,-7.0272,-7.0563,-7.0867,-7.1816,-7.2505,-7.3193,-7.3851,-7.451,-7.5489,-7.6865,-7.716,-7.8246,-8.0358,-8.0701,-8.1529,-8.2842,-8.297,-8.3354,-8.3995,-8.5225,-8.5039,-8.3737,-8.5349,-8.6179,-8.6239,-8.8003,-8.8756,-8.8756,-8.9016,-8.9072,-8.9072,-8.9072,-8.9072,-8.9072,-8.9072,-8.9478,-9.0087,-3.88,-4.0596,-4.2243,-4.2243,-4.301,-4.3711,-4.3711,-4.4658,-4.5434,-4.5434,-4.6465,-4.7565,-4.8518,-4.9462,-4.9986,-4.9986,-4.9986,-4.9986,-4.9986,-4.9986,-5.0233,-5.0793,-5.2202,-5.32,-5.3631,-5.4164,-5.3969,-5.2845,-5.1878,-5.1449,-5.1427,-5.2425,-5.3078,-5.3264,-5.3488,-5.438,-5.5772,-5.5749,-5.6385,-5.7458,-5.7243,-5.7084,-5.6917,-5.7204,-5.8185,-5.9299,-5.9123,-5.9392,-5.9691,-5.9775,-6.0386,-6.1242,-6.1242,-6.1242,-6.1193,-6.1055,-6.0359,-5.956,-5.8578,-5.8482,-5.8728,-5.8949,-5.9017,-5.9182,-5.9776,-5.9206,-5.8714,-5.9403,-5.9483,-5.9483,-5.9483,-6.0355,-6.1391,-6.2264,-6.4192,-6.6188,-6.7878,-6.9019,-6.9979,-7.0824,-7.1218,-7.1727,-7.2385,-7.3073,-7.4105,-7.5648,-7.6116,-7.7116,-7.9227,-8.0131,-8.1339,-8.2775,-8.4156,-8.5185,-8.5788,-8.6185,-8.6548,-8.6846,-8.762,-8.7024,-8.5444,-8.7143,-8.7969,-8.7969,-8.8756,-8.9072,-8.9072,-8.9072,-8.9072,-8.9072,-8.9072,-8.9072,-8.9072,-8.9072,-8.9309,-8.9681]},{"header":{"parameterUnit":"m.s-1","parameterCategory":1,"la1":30.6,"la2":28.766,"lo1":-90.7593,"lo2":-88.6598,"dy":0.0162,"dx":0.0183,"nx":116,"ny":114,"refTime":"2023-10-09T00:00:00:Z","depth":0,"parameterNumber":3,"parameterNumberName":"V-component_of_WINDS"},"data":[0.0,0.0,0.0,0.0,0.0,0.0,0.0,0.0,0.0,0.0,0.0,0.0,0.0,0.0,0.0,0.0,0.0,0.0,0.0,0.0,0.0,0.0,0.0,0.0,0.0,0.0,0.0,0.0,0.0,0.0,0.0,0.0,0.0,0.0,0.0,0.0,0.0,0.0,0.0,0.0,0.0,0.0,0.0,0.0,0.0,0.0,0.0,0.0,0.0,0.0,0.0,0.0,0.0,0.0,0.0,0.0,0.0,0.0,0.0,0.0,0.0,0.0,0.0,0.0,0.0,0.0,0.0,0.0,0.0,0.0,0.0,0.0,0.0,0.0,0.0,0.0,0.0,0.0,0.0,0.0,0.0,0.0,0.0,0.0,0.0,0.0,0.0,0.0,0.0,0.0,0.0,0.0,0.0,0.0,0.0,0.0,0.0,0.0,0.0,0.0,0.0,0.0,0.0,0.0,0.0,0.0,0.0,0.0,0.0,0.0,0.0,0.0,0.0,0.0,0.0,0.0,0.0,0.0,0.0,0.0,0.0,0.0,0.0,0.0,0.0,0.0,0.0,0.0,0.0,0.0,0.0,0.0,0.0,0.0,0.0,0.0,0.0,0.0,0.0,0.0,0.0,0.0,0.0,0.0,0.0,0.0,0.0,0.0,0.0,0.0,0.0,0.0,0.0,0.0,0.0,0.0,0.0,0.0,0.0,0.0,0.0,0.0,0.0,0.0,0.0,0.0,0.0,0.0,0.0,0.0,0.0,0.0,0.0,0.0,0.0,0.0,0.0,0.0,0.0,0.0,0.0,0.0,0.0,0.0,0.0,0.0,0.0,0.0,0.0,0.0,0.0,0.0,0.0,0.0,0.0,0.0,0.0,0.0,0.0,0.0,0.0,0.0,0.0,0.0,0.0,0.0,0.0,0.0,0.0,0.0,0.0,0.0,0.0,0.0,0.0,0.0,0.0,0.0,0.0,0.0,0.0,0.0,0.0,0.0,0.0,0.0,0.0,0.0,0.0,0.0,0.0,0.0,0.0,0.0,0.0,0.0,0.0,0.0,0.0,0.0,0.0,0.0,0.0,0.0,0.0,0.0,0.0,0.0,0.0,0.0,0.0,0.0,0.0,0.0,0.0,0.0,0.0,0.0,0.0,0.0,0.0,0.0,0.0,0.0,0.0,0.0,0.0,0.0,0.0,0.0,0.0,0.0,0.0,0.0,0.0,0.0,0.0,0.0,0.0,0.0,0.0,0.0,0.0,0.0,0.0,0.0,0.0,0.0,0.0,0.0,0.0,0.0,0.0,0.0,0.0,0.0,0.0,0.0,0.0,0.0,0.0,0.0,0.0,0.0,0.0,0.0,0.0,0.0,0.0,0.0,0.0,0.0,0.0,0.0,0.0,0.0,0.0,0.0,0.0,0.0,0.0,0.0,0.0,0.0,0.0,0.0,0.0,0.0,0.0,0.0,0.0,0.0,0.0,0.0,0.0,0.0,0.0,0.0,0.0,0.0,0.0,0.0,0.0,0.0,0.0,0.0,0.0,0.0,0.0,0.0,0.0,0.0,0.0,0.0,0.0,0.0,0.0,0.0,0.0,0.0,0.0,0.0,0.0,0.0,0.0,0.0,0.0,0.0,0.0,0.0,0.0,0.0,0.0,0.0,0.0,0.0,0.0,0.0,0.0,0.0,0.0,0.0,0.0,0.0,0.0,0.0,0.0,0.0,0.0,0.0,0.0,0.0,0.0,0.0,0.0,0.0,0.0,0.0,0.0,0.0,0.0,0.0,0.0,0.0,0.0,0.0,0.0,0.0,0.0,0.0,0.0,0.0,0.0,0.0,0.0,0.0,0.0,0.0,0.0,0.0,0.0,0.0,0.0,0.0,0.0,0.0,0.0,0.0,0.0,0.0,0.0,0.0,0.0,0.0,0.0,0.0,0.0,0.0,0.0,0.0,0.0,0.0,0.0,0.0,0.0,0.0,0.0,0.0,0.0,0.0,0.0,0.0,0.0,0.0,0.0,0.0,0.0,0.0,0.0,0.0,0.0,0.0,0.0,0.0,0.0,0.0,0.0,0.0,0.0,0.0,0.0,0.0,0.0,0.0,0.0,0.0,0.0,0.0,0.0,0.0,0.0,0.0,0.0,0.0,0.0,0.0,0.0,0.0,0.0,0.0,0.0,0.0,0.0,0.0,0.0,0.0,0.0,0.0,0.0,0.0,0.0,0.0,0.0,0.0,0.0,0.0,0.0,0.0,0.0,0.0,0.0,0.0,0.0,0.0,0.0,0.0,0.0,0.0,0.0,0.0,0.0,0.0,0.0,0.0,0.0,0.0,0.0,0.0,0.0,0.0,0.0,0.0,0.0,0.0,0.0,0.0,0.0,0.0,0.0,0.0,0.0,0.0,0.0,0.0,0.0,0.0,0.0,0.0,0.0,0.0,0.0,0.0,0.0,0.0,0.0,0.0,0.0,0.0,0.0,0.0,0.0,0.0,0.0,0.0,0.0,0.0,0.0,0.0,0.0,0.0,0.0,0.0,0.0,0.0,0.0,0.0,0.0,0.0,0.0,0.0,0.0,0.0,0.0,0.0,0.0,0.0,0.0,0.0,0.0,0.0,0.0,0.0,0.0,0.0,0.0,0.0,0.0,0.0,0.0,0.0,0.0,0.0,0.0,0.0,0.0,0.0,0.0,0.0,0.0,0.0,0.0,0.0,0.0,0.0,0.0,0.0,0.0,0.0,0.0,0.0,0.0,0.0,0.0,0.0,0.0,0.0,0.0,0.0,0.0,0.0,0.0,0.0,0.0,0.0,0.0,0.0,0.0,0.0,0.0,0.0,0.0,0.0,0.0,0.0,0.0,0.0,0.0,0.0,0.0,0.0,0.0,0.0,0.0,0.0,0.0,0.0,0.0,0.0,0.0,0.0,0.0,0.0,0.0,0.0,0.0,0.0,0.0,0.0,0.0,0.0,0.0,0.0,0.0,0.0,0.0,0.0,0.0,0.0,0.0,0.0,0.0,0.0,0.0,0.0,0.0,0.0,0.0,0.0,0.0,0.0,0.0,0.0,0.0,0.0,0.0,0.0,0.0,0.0,0.0,0.0,0.0,0.0,0.0,0.0,0.0,0.0,0.0,0.0,0.0,0.0,0.0,0.0,0.0,0.0,0.0,0.0,0.0,0.0,0.0,0.0,0.0,0.0,0.0,0.0,0.0,0.0,0.0,0.0,0.0,0.0,0.0,0.0,0.0,0.0,0.0,0.0,0.0,0.0,0.0,0.0,0.0,0.0,0.0,0.0,0.0,0.0,0.0,0.0,0.0,0.0,0.0,0.0,0.0,0.0,0.0,0.0,0.0,0.0,0.0,0.0,0.0,0.0,0.0,0.0,0.0,0.0,0.0,0.0,0.0,0.0,0.0,0.0,0.0,0.0,0.0,0.0,0.0,0.0,0.0,0.0,0.0,0.0,0.0,0.0,0.0,0.0,0.0,0.0,0.0,0.0,0.0,0.0,0.0,0.0,0.0,0.0,0.0,0.0,0.0,0.0,0.0,0.0,0.0,0.0,0.0,0.0,0.0,0.0,0.0,0.0,0.0,0.0,0.0,0.0,0.0,0.0,0.0,0.0,0.0,0.0,0.0,0.0,0.0,0.0,0.0,0.0,0.0,0.0,0.0,0.0,0.0,0.0,0.0,0.0,0.0,0.0,0.0,0.0,0.0,0.0,0.0,0.0,0.0,0.0,0.0,0.0,0.0,0.0,0.0,0.0,0.0,0.0,0.0,0.0,0.0,0.0,0.0,0.0,0.0,0.0,0.0,0.0,0.0,0.0,0.0,0.0,0.0,0.0,0.0,0.0,0.0,0.0,0.0,0.0,0.0,0.0,0.0,0.0,0.0,0.0,0.0,0.0,0.0,0.0,0.0,0.0,0.0,0.0,0.0,0.0,0.0,0.0,0.0,0.0,0.0,0.0,0.0,0.0,0.0,0.0,0.0,0.0,0.0,0.0,0.0,0.0,0.0,0.0,0.0,0.0,0.0,0.0,0.0,0.0,0.0,0.0,0.0,0.0,0.0,0.0,0.0,0.0,0.0,0.0,0.0,0.0,0.0,0.0,0.0,0.0,0.0,0.0,0.0,0.0,0.0,0.0,0.0,0.0,0.0,0.0,0.0,0.0,0.0,0.0,0.0,0.0,0.0,0.0,0.0,0.0,0.0,0.0,0.0,0.0,0.0,0.0,0.0,0.0,0.0,0.0,0.0,0.0,0.0,0.0,0.0,0.0,0.0,0.0,0.0,0.0,0.0,0.0,0.0,0.0,0.0,0.0,0.0,0.0,0.0,0.0,0.0,0.0,0.0,0.0,0.0,0.0,0.0,0.0,0.0,0.0,0.0,0.0,0.0,0.0,0.0,0.0,0.0,0.0,0.0,0.0,0.0,0.0,0.0,0.0,0.0,0.0,0.0,0.0,0.0,0.0,0.0,0.0,0.0,0.0,0.0,0.0,0.0,0.0,0.0,0.0,0.0,0.0,0.0,0.0,0.0,0.0,0.0,0.0,0.0,0.0,0.0,0.0,0.0,0.0,0.0,0.0,0.0,0.0,0.0,0.0,0.0,0.0,0.0,0.0,0.0,0.0,0.0,0.0,0.0,0.0,0.0,0.0,0.0,0.0,0.0,0.0,0.0,0.0,0.0,0.0,0.0,0.0,0.0,0.0,0.0,0.0,0.0,0.0,0.0,0.0,0.0,0.0,0.0,0.0,0.0,0.0,0.0,0.0,0.0,0.0,0.0,0.0,0.0,0.0,0.0,0.0,0.0,0.0,0.0,0.0,0.0,0.0,0.0,0.0,0.0,0.0,0.0,0.0,0.0,0.0,0.0,0.0,0.0,0.0,0.0,0.0,0.0,0.0,0.0,0.0,0.0,0.0,0.0,0.0,0.0,0.0,0.0,0.0,0.0,0.0,0.0,0.0,0.0,0.0,0.0,0.0,0.0,0.0,0.0,0.0,0.0,0.0,0.0,0.0,0.0,0.0,0.0,0.0,0.0,0.0,0.0,0.0,0.0,0.0,0.0,0.0,0.0,0.0,0.0,0.0,0.0,0.0,0.0,0.0,0.0,0.0,0.0,0.0,0.0,0.0,0.0,0.0,0.0,0.0,0.0,0.0,0.0,0.0,0.0,0.0,0.0,0.0,0.0,0.0,0.0,0.0,0.0,0.0,0.0,0.0,0.0,0.0,0.0,0.0,0.0,0.0,0.0,0.0,0.0,0.0,0.0,0.0,0.0,0.0,0.0,0.0,0.0,0.0,0.0,0.0,0.0,0.0,0.0,0.0,0.0,0.0,0.0,0.0,0.0,0.0,0.0,0.0,0.0,0.0,0.0,0.0,0.0,0.0,0.0,0.0,0.0,0.0,0.0,0.0,0.0,0.0,0.0,0.0,0.0,0.0,0.0,0.0,0.0,0.0,0.0,0.0,0.0,0.0,0.0,0.0,0.0,0.0,0.0,0.0,0.0,0.0,0.0,0.0,0.0,0.0,0.0,0.0,0.0,0.0,0.0,0.0,0.0,0.0,0.0,0.0,0.0,0.0,0.0,0.0,0.0,0.0,0.0,0.0,0.0,0.0,0.0,0.0,0.0,0.0,0.0,0.0,0.0,0.0,0.0,0.0,0.0,0.0,0.0,0.0,0.0,0.0,0.0,0.0,0.0,0.0,0.0,0.0,0.0,0.0,0.0,0.0,0.0,0.0,0.0,0.0,0.0,0.0,0.0,0.0,0.0,0.0,0.0,0.0,0.0,0.0,0.0,0.0,0.0,0.0,0.0,0.0,0.0,0.0,0.0,0.0,0.0,0.0,0.0,0.0,0.0,0.0,0.0,0.0,0.0,0.0,0.0,0.0,0.0,0.0,0.0,0.0,0.0,0.0,0.0,0.0,0.0,0.0,0.0,0.0,0.0,0.0,0.0,0.0,0.0,0.0,0.0,0.0,0.0,0.0,0.0,0.0,0.0,0.0,0.0,0.0,0.0,0.0,0.0,0.0,0.0,0.0,0.0,0.0,0.0,0.0,0.0,0.0,0.0,0.0,0.0,0.0,0.0,0.0,0.0,0.0,8.5306,8.538,0.0,0.0,0.0,0.0,0.0,0.0,0.0,0.0,0.0,0.0,0.0,0.0,0.0,0.0,0.0,0.0,0.0,0.0,0.0,0.0,0.0,0.0,0.0,0.0,0.0,0.0,0.0,0.0,0.0,0.0,0.0,0.0,0.0,0.0,0.0,0.0,0.0,6.4106,6.4415,6.4918,6.5628,6.5628,6.5425,6.5121,0.0,0.0,0.0,0.0,0.0,0.0,0.0,0.0,0.0,0.0,0.0,0.0,0.0,0.0,0.0,0.0,0.0,0.0,0.0,0.0,0.0,0.0,0.0,0.0,0.0,0.0,0.0,0.0,0.0,0.0,0.0,0.0,0.0,0.0,0.0,0.0,0.0,0.0,0.0,0.0,0.0,0.0,0.0,0.0,0.0,0.0,0.0,0.0,0.0,0.0,0.0,0.0,0.0,0.0,0.0,0.0,0.0,0.0,0.0,0.0,0.0,0.0,0.0,0.0,0.0,0.0,0.0,0.0,0.0,0.0,8.7802,8.6958,0.0,0.0,0.0,0.0,0.0,0.0,0.0,0.0,0.0,0.0,0.0,0.0,0.0,0.0,0.0,0.0,0.0,0.0,0.0,0.0,0.0,0.0,0.0,6.9633,7.0127,7.0242,7.0132,6.9712,0.0,0.0,0.0,0.0,0.0,0.0,6.4823,6.548,6.5657,6.5189,6.617,6.7354,6.8707,6.9485,6.8944,6.7184,6.5933,0.0,0.0,0.0,0.0,0.0,0.0,0.0,0.0,0.0,0.0,0.0,0.0,0.0,0.0,0.0,0.0,0.0,0.0,0.0,0.0,0.0,0.0,0.0,0.0,0.0,0.0,0.0,0.0,0.0,0.0,0.0,0.0,0.0,0.0,0.0,0.0,0.0,0.0,0.0,0.0,0.0,0.0,0.0,0.0,0.0,0.0,0.0,0.0,0.0,0.0,0.0,0.0,0.0,0.0,0.0,0.0,0.0,0.0,0.0,0.0,0.0,0.0,0.0,8.9748,9.0482,9.1289,9.1987,9.2758,9.3382,9.0665,8.9014,8.8316,8.883,0.0,0.0,0.0,0.0,0.0,0.0,0.0,0.0,0.0,0.0,0.0,0.0,0.0,0.0,0.0,0.0,0.0,0.0,0.0,0.0,0.0,6.9633,7.0302,7.0821,7.0283,6.9825,6.9494,0.0,0.0,0.0,0.0,0.0,6.5568,6.5691,6.6336,6.7455,6.9553,7.1007,7.1819,7.2563,7.3105,7.3274,6.9992,6.891,6.9553,0.0,0.0,0.0,0.0,0.0,0.0,0.0,0.0,0.0,0.0,0.0,0.0,0.0,0.0,0.0,0.0,0.0,0.0,0.0,0.0,0.0,0.0,0.0,0.0,0.0,0.0,0.0,0.0,0.0,0.0,0.0,0.0,0.0,0.0,0.0,0.0,0.0,0.0,0.0,0.0,0.0,7.8589,7.9507,0.0,0.0,0.0,0.0,0.0,0.0,0.0,0.0,0.0,0.0,0.0,0.0,0.0,8.9454,9.0592,9.0996,9.1583,9.2464,9.2574,9.3015,9.3822,9.3932,9.441,9.5144,9.474,0.0,9.3272,9.2684,0.0,0.0,0.0,0.0,0.0,0.0,0.0,0.0,0.0,0.0,0.0,0.0,0.0,0.0,0.0,0.0,0.0,0.0,0.0,0.0,0.0,6.989,7.0676,7.0868,7.2121,7.1905,6.9605,7.0396,0.0,0.0,0.0,6.6798,6.6305,6.6711,6.8267,7.1041,7.2868,7.4593,7.6183,7.6927,7.7435,7.7671,7.5642,7.3274,7.077,7.0026,0.0,0.0,0.0,0.0,0.0,0.0,0.0,0.0,0.0,0.0,0.0,0.0,0.0,0.0,0.0,0.0,0.0,0.0,0.0,0.0,0.0,0.0,0.0,0.0,0.0,0.0,0.0,0.0,0.0,0.0,0.0,0.0,0.0,0.0,0.0,0.0,0.0,0.0,0.0,7.8993,8.0424,8.1672,8.1819,8.1966,0.0,0.0,0.0,0.0,0.0,0.0,0.0,0.0,0.0,9.1546,9.1987,9.2758,9.4006,9.4373,9.496,9.5804,9.6282,9.6906,9.7676,9.7676,9.786,9.8154,9.7713,9.7346,9.6869,9.5144,9.441,9.4299,0.0,0.0,0.0,0.0,9.6105,9.6836,0.0,0.0,0.0,0.0,0.0,0.0,0.0,0.0,0.0,0.0,0.0,0.0,6.9219,7.0803,7.1906,7.2094,7.3983,7.3897,7.0932,7.1694,7.0786,6.7531,6.7489,6.7325,6.6812,6.847,7.0872,7.4052,7.6318,7.828,7.9972,8.0885,8.1325,8.1291,8.0547,7.7536,7.2969,7.1988,7.0601,6.8977,0.0,0.0,0.0,0.0,0.0,0.0,0.0,0.0,0.0,0.0,0.0,0.0,0.0,0.0,0.0,0.0,0.0,0.0,0.0,0.0,0.0,0.0,0.0,0.0,0.0,0.0,0.0,0.0,0.0,0.0,0.0,0.0,0.0,0.0,0.0,0.0,0.0,8.1012,8.2296,8.3287,8.3948,8.4242,0.0,0.0,0.0,0.0,0.0,0.0,9.0849,9.1363,9.2905,9.5731,9.6208,9.7016,9.8227,9.8447,9.8851,9.9438,9.9989,10.0613,10.12,10.12,10.131,10.1494,10.0929,10.0787,10.0824,9.7682,9.5951,9.529,9.5878,9.6103,9.6179,9.6769,9.7606,9.846,0.0,0.0,0.0,0.0,0.0,0.0,0.0,0.0,0.0,0.0,0.0,6.8394,7.057,7.2691,7.444,7.5638,7.5284,7.4816,7.4361,7.218,7.0329,6.903,6.9331,6.8682,6.6854,7.1007,7.3984,7.5574,7.9938,8.2137,8.2272,8.3727,8.4403,8.437,8.3625,8.119,7.7536,7.6048,7.4153,7.2124,7.1379,0.0,0.0,0.0,0.0,0.0,0.0,0.0,0.0,0.0,0.0,0.0,0.0,0.0,0.0,0.0,0.0,0.0,0.0,0.0,0.0,0.0,0.0,0.0,0.0,0.0,0.0,0.0,0.0,0.0,0.0,0.0,0.0,0.0,0.0,0.0,0.0,0.0,0.0,8.3508,8.5416,0.0,0.0,0.0,0.0,8.9014,8.9895,9.1767,9.5034,9.6649,9.8227,9.9952,10.1494,10.2301,10.2412,10.3182,10.3586,10.3586,10.3586,10.3696,10.3696,10.3696,10.41,10.4876,10.5024,10.5393,10.5804,10.0898,9.8447,9.7713,9.775,9.7728,9.7692,9.7729,9.8771,10.0298,0.0,0.0,0.0,0.0,0.0,0.0,0.0,0.0,6.7283,6.8348,6.9176,7.0342,7.2015,7.4537,7.6426,7.7234,7.8368,7.838,7.6908,7.4547,7.2619,7.1289,6.9507,6.9343,7.1086,7.3612,7.6589,8.0006,8.3558,8.5554,8.6027,8.7516,8.7955,8.7448,8.6738,8.5148,8.2746,7.8822,7.5879,7.3713,7.2496,7.1109,0.0,0.0,0.0,0.0,0.0,0.0,0.0,0.0,0.0,0.0,0.0,0.0,0.0,0.0,0.0,0.0,0.0,0.0,0.0,0.0,0.0,0.0,0.0,0.0,0.0,0.0,0.0,0.0,0.0,0.0,0.0,0.0,0.0,0.0,0.0,0.0,0.0,8.7876,8.9748,0.0,8.9748,9.0629,9.184,9.3198,9.5034,9.7493,10.0723,10.1384,10.2779,10.4908,10.5568,10.6082,10.6596,10.689,10.7598,10.8696,10.8696,10.9303,11.0416,10.9891,10.9779,11.0002,10.9599,10.9471,10.9621,10.7293,10.4908,10.2698,10.2698,10.23,10.1916,10.1916,10.2513,10.3497,0.0,0.0,0.0,0.0,0.0,0.0,0.0,0.0,6.6846,6.7879,6.9841,7.1802,7.3374,7.6547,7.9037,8.0124,8.1122,8.0919,7.9228,7.6414,7.3977,7.2135,7.0364,7.1041,7.4559,7.7299,8.0412,8.393,8.6941,8.8632,8.914,9.0121,9.0188,8.9444,8.897,8.7922,8.6264,8.2306,7.9025,7.6352,7.4864,7.368,7.2665,0.0,0.0,0.0,0.0,0.0,0.0,0.0,0.0,0.0,0.0,0.0,0.0,0.0,0.0,0.0,0.0,0.0,0.0,0.0,0.0,0.0,0.0,0.0,0.0,0.0,0.0,0.0,0.0,0.0,0.0,0.0,0.0,0.0,0.0,8.7068,9.0078,9.1657,9.4263,9.5584,9.474,9.5658,9.6869,9.8227,10.0099,10.2412,10.5385,10.6082,10.7431,10.9575,11.0023,11.052,11.1404,11.1404,11.1871,11.3111,11.3111,11.3697,11.4803,11.4275,11.4005,11.4005,11.3796,11.3692,11.3578,11.3392,11.1796,10.9295,10.6994,10.561,10.4904,10.5207,10.5608,10.6122,0.0,0.0,0.0,0.0,0.0,0.0,0.0,6.6476,6.6427,6.6361,6.9524,7.2633,7.4705,7.8845,8.234,8.4573,8.3389,8.2171,8.1359,7.7467,7.4008,7.1503,7.2157,7.4018,7.7096,8.2103,8.5486,8.7042,8.9918,9.1305,9.1305,9.1305,9.0932,9.0256,9.0256,8.9444,8.7989,8.6569,8.3828,8.0344,7.872,7.8044,7.7502,0.0,0.0,0.0,0.0,0.0,0.0,0.0,0.0,0.0,0.0,0.0,0.0,0.0,0.0,0.0,0.0,0.0,0.0,0.0,0.0,0.0,0.0,0.0,0.0,0.0,0.0,0.0,0.0,0.0,0.0,0.0,0.0,0.0,8.4976,9.0408,9.452,9.463,9.8814,10.1384,10.0613,10.0613,10.1604,10.388,10.4912,10.6418,10.8878,11.0501,11.2201,11.3928,11.4785,11.5582,11.6511,11.6473,11.662,11.6616,11.6616,11.6578,11.6612,11.6612,11.6612,11.6683,11.7503,11.7898,11.7916,11.8825,11.86,11.7177,11.0693,10.7588,10.6884,10.7686,10.7978,10.8098,0.0,0.0,0.0,0.0,0.0,0.0,0.0,6.5632,6.5998,6.7041,7.1268,7.5183,7.7817,8.246,8.6027,8.7719,8.6027,8.4065,8.2238,7.6991,7.3638,7.2947,7.5168,7.8619,8.3253,8.5283,8.755,9.0087,9.144,9.1812,9.1305,9.1846,9.1711,9.1,9.1,9.0763,9.0357,8.9951,8.8564,8.6264,8.2069,7.9397,7.7807,0.0,0.0,0.0,0.0,0.0,0.0,0.0,0.0,0.0,0.0,0.0,0.0,0.0,0.0,0.0,0.0,0.0,0.0,0.0,0.0,0.0,0.0,0.0,0.0,0.0,0.0,0.0,0.0,0.0,0.0,0.0,8.7729,8.9638,9.0629,9.5327,9.9512,10.1898,10.4908,10.6486,10.5678,10.6596,10.7587,10.8285,11.0187,11.2189,11.412,11.5205,11.6592,11.8311,11.8612,11.8796,11.9115,11.9681,11.9984,12.0099,12.0707,12.1274,12.1997,12.1997,12.1997,12.1997,12.1604,12.1488,12.1398,12.0415,11.9792,11.9308,11.6171,11.4191,11.2874,11.3105,11.2774,11.2291,0.0,0.0,0.0,0.0,0.0,0.0,0.0,6.5375,6.6071,6.6737,7.2186,7.6831,7.9046,8.4094,8.7583,8.8125,8.6129,8.3625,8.075,7.642,7.4589,7.589,7.9035,8.278,8.7076,8.914,9.1169,9.3199,9.4248,9.4383,9.3639,9.4079,9.374,9.2725,9.2725,9.2387,9.1778,9.1778,9.1102,8.9715,8.6366,8.3693,8.1494,7.9498,7.828,7.7536,7.6284,7.598,7.5879,7.3849,0.0,0.0,0.0,0.0,0.0,0.0,0.0,0.0,0.0,0.0,0.0,0.0,0.0,0.0,0.0,0.0,0.0,0.0,0.0,0.0,0.0,0.0,0.0,0.0,9.217,9.5217,9.8264,10.0796,10.3403,10.6302,10.9482,11.1177,11.0701,11.2223,11.3432,11.3689,11.5393,11.7006,11.8318,11.8908,11.9778,12.1092,12.1168,12.14,12.1781,12.22,12.2515,12.2594,12.3092,12.3611,12.4101,12.4101,12.4101,12.4101,12.3601,12.3408,12.3293,12.1908,12.1408,12.1216,0.0,0.0,0.0,0.0,11.4984,11.4599,0.0,0.0,0.0,0.0,0.0,0.0,0.0,6.5448,6.6268,6.5955,7.2481,7.7553,7.8579,8.4031,8.7414,8.6941,8.4674,8.1765,7.8213,7.6115,7.6509,7.9981,8.35,8.6805,8.9884,9.3334,9.5466,9.6311,9.7461,9.7698,9.7123,9.7056,9.6311,9.5093,9.5093,9.4315,9.3064,9.2962,9.2489,9.1744,9.0899,8.9106,8.6535,8.3084,8.2441,8.3016,8.0412,7.8686,7.7502,7.6521,0.0,0.0,0.0,0.0,0.0,0.0,0.0,0.0,0.0,0.0,0.0,0.0,0.0,0.0,0.0,0.0,0.0,0.0,0.0,0.0,0.0,0.0,0.0,0.0,9.7317,10.1697,10.6718,10.6902,10.7299,10.9491,11.3188,11.5574,11.5725,11.7186,11.8395,11.9112,11.9895,12.0719,12.1403,12.162,0.0,0.0,0.0,12.3628,12.4409,12.4601,12.4601,12.4409,12.4601,12.4601,12.4409,12.4601,12.4601,12.4409,12.4409,12.4293,12.4216,12.3408,12.3024,12.2793,12.0216,11.8792,11.7907,11.6292,11.5715,11.5792,0.0,0.0,0.0,0.0,0.0,0.0,0.0,6.5338,6.5621,6.5951,7.2061,7.6412,7.6388,8.1697,8.5723,8.6805,8.3727,8.0648,7.8145,7.757,7.9497,8.4347,8.8032,9.1677,9.5296,9.6683,9.8037,9.9356,9.8442,9.824,9.8645,9.807,9.7631,9.736,9.736,9.7225,9.6886,9.6277,9.5601,9.4823,9.347,9.0527,8.6771,8.5418,8.3964,8.2543,8.1968,8.1968,8.1934,7.9972,7.9126,7.8483,7.6048,7.4864,0.0,0.0,0.0,0.0,0.0,0.0,0.0,0.0,0.0,0.0,0.0,0.0,0.0,0.0,0.0,0.0,0.0,0.0,0.0,9.8258,10.2382,10.7029,11.2718,11.4517,11.5394,11.5816,11.7793,11.9398,11.9999,12.0403,12.0697,12.0776,12.1678,12.2283,12.2398,12.3097,12.4008,12.4789,12.562,12.5978,12.6178,12.7486,12.7486,12.6178,12.7602,0.0,12.6178,12.7602,12.7486,12.6178,12.6178,12.5794,12.5101,12.4216,12.3909,12.3601,12.11,11.9985,11.9715,11.8715,11.8407,11.8407,0.0,0.0,0.0,0.0,0.0,0.0,0.0,6.5999,6.67,6.7214,7.1908,7.5191,7.5307,7.9715,8.232,8.1393,7.8551,7.7029,7.7401,7.8822,8.2137,8.7753,9.1203,9.4383,9.7394,9.8916,10.0202,10.1419,10.1386,10.1386,10.1318,10.0608,10.01,9.966,9.9288,9.8916,9.851,9.8138,9.736,9.6244,9.5127,9.3131,9.0662,8.914,8.8057,8.7313,8.6569,8.5824,8.4979,8.349,8.2238,8.0987,7.9092,7.8108,7.7457,0.0,0.0,0.0,0.0,0.0,0.0,0.0,0.0,0.0,0.0,0.0,0.0,0.0,0.0,8.8343,9.0876,0.0,9.9299,10.5072,10.881,11.2408,11.6998,11.9099,11.9904,11.888,12.0311,12.1715,12.2621,12.3494,12.4202,12.4584,12.5392,12.5997,12.5997,12.6389,12.6909,12.7294,12.7717,12.7986,12.7986,12.8794,12.8794,12.7986,12.8794,12.8794,12.7986,12.8794,12.8717,12.7909,12.7486,12.7101,12.6601,12.5293,12.4486,12.3985,12.2716,12.1985,12.16,12.11,12.0408,11.9792,0.0,0.0,0.0,0.0,0.0,0.0,0.0,6.6733,6.7679,6.8316,7.1519,7.3831,7.4065,7.7286,7.8189,7.5119,7.417,7.4895,7.757,8.0784,8.5182,9.1034,9.418,9.6751,9.8848,10.098,10.2401,10.3111,10.4193,10.4464,10.399,10.328,10.2603,10.1995,10.1386,10.0709,10.0168,9.9863,9.9051,9.7901,9.6853,9.6074,9.533,9.303,9.2286,9.2252,9.0899,8.8801,8.6636,8.6163,8.4403,8.234,8.1866,8.1581,8.1078,7.9466,7.9413,0.0,0.0,0.0,0.0,0.0,0.0,0.0,0.0,8.3544,8.5306,8.7068,9.0145,9.3626,9.7338,10.1222,10.5814,11.1595,11.4679,11.7589,12.0897,12.2603,12.3096,12.2019,12.2794,12.3902,12.4895,12.6298,12.7486,12.8294,12.8909,12.9294,12.941,12.9294,12.9294,12.941,12.9487,12.9487,12.9717,12.991,12.991,12.991,12.991,12.9794,12.9487,12.9602,12.9487,12.9217,12.8486,12.8102,12.7794,12.6409,12.5409,12.4601,12.4601,12.4216,12.3601,12.3101,12.1985,12.0908,0.0,0.0,0.0,0.0,0.0,0.0,0.0,0.0,6.6866,6.7547,7.0321,7.1971,7.126,7.3182,7.3818,7.1943,7.5937,7.9179,8.075,8.4843,8.9613,9.4924,9.8037,10.0337,10.1995,10.3483,10.4701,10.5411,10.4904,10.4971,10.5513,10.4802,10.4396,10.4295,10.4193,10.416,10.399,10.2705,10.2028,10.169,9.9559,9.8679,9.8375,9.6142,9.4112,9.2319,9.1474,8.8903,8.5993,8.6602,8.4843,8.2509,8.3084,8.3513,8.3427,8.1391,8.1145,8.1238,7.9848,7.9553,7.9837,8.0534,8.1893,8.3581,0.0,8.8133,9.0482,9.2868,9.6575,9.9948,10.1915,10.7307,11.249,11.5583,11.8719,12.1982,12.5518,12.6107,12.6708,12.8015,12.699,12.6887,12.8502,12.8783,12.9294,13.0102,12.9602,12.9487,13.0294,12.9602,12.9602,13.0294,13.041,13.0679,13.141,13.2179,13.2603,13.2603,13.2603,13.1795,13.041,13.1102,13.0602,12.9217,12.9102,12.8602,12.7909,12.7717,12.7101,12.6409,12.6409,12.6409,12.5986,12.3716,12.2793,12.2485,0.0,0.0,0.0,0.0,0.0,0.0,0.0,0.0,0.0,6.7575,6.9529,7.0536,6.953,6.9609,6.9928,7.0318,7.2992,7.6386,8.0428,8.4877,9.0087,9.6176,9.9288,10.1419,10.2502,10.4396,10.5479,10.5817,10.5885,10.6088,10.6392,10.5682,10.531,10.531,10.487,10.4464,10.399,10.3382,10.2603,10.169,10.0303,9.9491,9.8848,9.665,9.4112,9.1541,8.9951,8.782,0.0,8.464,8.3456,8.2477,8.3002,8.3387,8.3543,8.241,8.2066,8.1793,8.0768,8.0828,8.1599,8.3361,8.538,8.7692,9.0592,9.3925,9.6936,9.8903,10.3391,10.7596,10.9803,11.4003,11.8022,12.0581,12.2998,12.5185,12.7091,12.7409,12.7486,12.7717,12.7486,12.8294,13.041,13.0679,13.1218,13.2603,13.241,13.2295,13.2718,13.241,13.2295,13.2718,13.2718,13.291,13.3218,13.3103,13.2987,13.2987,13.2487,13.191,13.1179,13.1487,13.0794,12.9217,12.8717,12.7986,12.7217,12.7217,12.6986,12.6678,12.6678,12.6678,12.6601,12.5486,12.4486,12.3485,0.0,0.0,0.0,0.0,0.0,0.0,0.0,0.0,0.0,0.0,6.9082,6.9762,6.8926,6.8122,6.7977,6.8833,7.0395,7.3685,7.9194,8.3998,8.9579,9.6277,9.966,10.1893,10.3111,10.5107,10.6122,10.6122,10.6595,10.69,10.69,10.6392,10.6122,10.6088,10.5513,10.5005,10.4498,10.4092,10.328,10.2198,10.1014,9.9829,9.851,9.5872,9.2861,8.9884,8.826,8.6243,8.4147,8.2428,8.1828,8.1811,8.2476,8.3077,8.3436,8.2948,8.2502,8.215,8.2039,8.2737,8.4168,8.6775,8.9454,9.2354,9.5804,9.9648,10.3072,10.5089,10.9683,11.3919,11.6001,11.9086,12.1997,12.4105,12.5909,12.7409,12.8486,12.8217,12.7717,12.7101,12.7101,12.8102,13.041,13.1295,13.241,13.4218,13.4295,13.4411,13.4603,13.4411,13.4411,13.4603,13.4411,13.4411,13.4603,13.3987,13.368,13.368,13.2795,13.2295,13.1987,13.1602,13.0602,12.9217,12.8525,12.7794,12.6986,12.6986,12.689,12.6783,12.6783,12.6895,12.6907,12.6907,12.5797,12.42,0.0,0.0,0.0,0.0,0.0,0.0,0.0,0.0,0.0,0.0,0.0,0.0,0.0,6.9754,6.9032,6.7086,6.9707,7.336,7.7803,8.2915,8.8835,9.5533,9.939,10.2367,10.4566,10.6088,10.69,10.69,10.69,10.69,10.69,10.69,10.69,10.69,10.6798,10.6798,10.6697,10.5276,10.4599,10.4396,10.2198,9.9999,9.7631,9.3943,9.0256,8.7042,8.6974,8.4251,8.0743,8.0674,8.0359,8.0203,8.1684,8.2903,8.375,8.2958,8.2465,8.2553,8.4058,8.5637,8.7619,9.0812,9.4079,9.753,10.1494,10.5092,10.841,11.1616,11.5101,11.787,11.8671,12.1693,12.4308,12.5216,12.6794,12.8486,13.0217,12.8986,12.7909,12.7909,12.6486,12.6101,12.7909,13.0217,13.241,13.4218,13.4295,13.4603,13.5411,13.4718,13.4718,13.5411,13.4718,13.4718,13.5488,13.5411,13.5411,13.5411,13.4603,13.3795,13.291,13.1295,12.9987,12.9217,12.9217,12.8717,12.7909,12.7909,12.7605,12.7108,12.7088,12.7324,12.76,12.76,12.6291,12.4514,0.0,0.0,0.0,0.0,0.0,0.0,0.0,0.0,0.0,0.0,0.0,0.0,0.0,0.0,0.0,0.0,6.9054,7.1328,7.4809,8.0818,8.6163,9.0425,9.6108,9.9965,10.169,10.3212,10.4498,10.5377,10.5377,10.5377,10.5377,10.5377,10.5682,10.6189,10.6189,10.5885,10.5377,10.4396,10.3382,10.2265,9.9491,9.7664,9.6007,9.1271,8.7177,8.3697,0.0,8.0015,7.8306,7.7405,7.7374,7.7846,7.9117,8.0144,8.0948,8.1443,8.2654,8.4278,8.6407,8.9344,9.2868,9.7163,10.0283,10.3496,10.8205,11.1431,11.4086,11.6421,11.7392,11.7908,11.8215,11.9613,12.1216,12.2678,12.6217,12.9217,13.0294,13.0987,12.9987,12.6601,12.6717,12.6409,12.4716,12.7409,13.0602,13.3987,13.4295,13.4911,13.6296,13.6103,13.6103,13.6411,13.6103,13.6103,13.6411,13.5795,13.5488,13.5488,13.4103,13.2987,13.2102,13.041,12.9589,12.9502,12.8304,12.7806,12.7719,12.7719,12.7604,12.7413,12.7413,12.7496,12.7598,12.7598,12.6606,12.5103,0.0,0.0,0.0,0.0,0.0,0.0,0.0,0.0,0.0,0.0,0.0,0.0,0.0,0.0,0.0,0.0,0.0,6.9553,7.2529,7.7232,8.1629,8.5418,9.0493,9.4045,9.5804,9.7089,9.8307,9.9491,10.0303,10.0878,10.1115,10.1893,10.257,10.3009,10.3009,10.2705,10.2198,10.1216,10.0405,9.9457,9.5635,9.3673,9.2421,8.6907,8.3039,0.0,7.8117,7.7097,7.667,7.5816,7.6084,7.6913,7.7653,7.862,7.9849,8.1729,8.3985,8.6628,8.9931,9.3786,9.797,10.2485,10.5973,10.9193,11.2987,11.5904,11.7806,11.7984,11.749,11.6599,11.5715,11.5792,11.6715,11.8985,12.2601,12.6217,12.9217,12.9679,12.8909,12.6601,12.6409,12.5717,12.3524,12.5293,12.8294,13.2603,13.3795,13.4911,13.6296,13.6603,13.6796,13.6796,13.6796,13.6796,13.6796,13.618,13.5924,13.5682,13.3985,13.2811,13.2,13.0685,12.9818,12.9403,12.82,12.7695,12.7598,12.7598,12.7502,12.7286,12.7286,12.7383,12.749,12.71,12.6514,12.5596,0.0,0.0,0.0,0.0,0.0,0.0,0.0,0.0,0.0,0.0,0.0,0.0,0.0,0.0,0.0,0.0,0.0,0.0,7.0906,7.2563,7.5642,8.0615,8.3118,8.5418,8.7617,8.8395,8.9173,8.9918,9.2083,9.3503,9.4315,9.6345,9.7394,9.7495,9.7461,9.7461,9.7394,9.5939,9.5736,9.5872,9.0729,8.826,8.7008,8.1207,7.8271,7.7068,7.5935,7.5618,7.5787,7.5891,7.6567,7.7384,7.7494,7.8662,8.0534,8.3838,8.6591,8.9638,9.4483,9.8814,10.2893,10.6974,11.098,11.4414,11.5982,11.8308,11.9425,11.6916,11.5522,11.3984,11.1598,11.0483,11.1214,11.4714,11.6984,12.06,12.7217,12.6217,12.5601,12.7794,12.5986,12.4486,12.4293,12.4293,12.6101,13.0217,13.2795,13.4487,13.5488,13.6411,13.6796,13.6796,13.6796,13.6796,13.6796,13.6783,13.6593,13.6091,13.4406,13.3317,13.2786,13.1891,13.0607,12.8996,12.8919,12.8413,12.7685,12.7685,12.7412,12.6883,12.6805,12.6991,12.7187,12.6406,12.6015,12.5897,0.0,0.0,0.0,0.0,0.0,0.0,0.0,0.0,0.0,0.0,0.0,0.0,0.0,0.0,0.0,0.0,0.0,0.0,6.7929,7.0906,7.3274,7.4593,7.8957,8.1866,8.2983,8.4268,8.5283,8.6061,8.6636,8.7313,8.8057,8.8091,8.897,9.0527,8.9985,9.0053,9.0493,8.9579,8.897,8.8294,8.4708,8.3152,8.2613,7.9076,7.7189,7.6504,7.725,7.6767,7.5925,7.666,7.7521,7.8589,8.0388,8.1232,8.2333,8.6151,9.0298,9.4593,9.8814,10.3806,10.8682,11.2213,11.4399,11.6179,11.8584,11.8311,11.699,11.5787,11.1413,10.729,10.6097,10.7213,10.9906,11.4484,12.0908,12.6794,13.1102,13.2795,13.2603,13.0102,13.041,12.9679,12.7217,12.7486,12.8909,13.1179,13.141,13.291,13.6296,13.668,13.6796,13.6796,13.6796,13.6796,13.6796,13.7019,13.6801,13.6091,13.5207,13.4406,13.3604,13.2203,13.0995,13.0196,12.9611,12.8906,12.8289,12.8289,12.83,12.8117,12.7414,12.7184,12.7304,12.7109,12.6211,12.5312,0.0,0.0,0.0,0.0,0.0,0.0,0.0,0.0,0.0,0.0,0.0,0.0,0.0,0.0,0.0,0.0,0.0,0.0,0.0,6.8774,7.0094,7.0398,7.324,7.5303,7.6386,7.7232,7.8483,8.0242,8.0242,8.1122,8.2847,8.2441,8.3084,8.4573,8.4133,8.42,8.4539,8.3795,8.3625,0.0,0.0,7.8957,7.9546,7.6882,7.5825,7.5959,7.7198,7.7434,7.7327,7.9311,8.0314,8.1122,8.3544,8.4792,8.6297,9.1069,9.5144,9.9108,10.3476,10.8634,11.3313,11.5481,11.7306,11.8278,11.7601,11.6384,11.4309,11.0495,10.6097,10.2481,10.1289,10.3212,10.6405,11.1214,11.8407,12.5216,13.0102,13.2295,13.3103,13.2295,13.2679,13.2102,12.9794,12.9987,13.0987,13.2718,13.2102,13.2987,13.6103,13.6603,13.6796,13.6796,13.6796,13.6912,13.6988,13.7206,13.7206,13.7117,13.6409,13.5684,13.5,13.3596,13.2319,13.0896,13.0392,12.9594,12.8593,12.8203,12.7812,12.7383,12.6484,12.6211,12.6211,12.5781,12.5312,12.4883,0.0,0.0,0.0,0.0,0.0,0.0,0.0,0.0,0.0,0.0,0.0,0.0,0.0,0.0,0.0,0.0,0.0,0.0,0.0,0.0,6.7117,6.7726,6.7963,6.8639,6.9857,7.0094,7.1413,7.3883,7.3883,7.527,7.7942,7.7841,7.8213,7.9025,7.8923,7.8923,7.8991,7.845,7.8957,7.9769,7.598,7.5703,7.738,0.0,7.4953,7.5889,7.6874,7.787,7.925,8.248,8.3728,8.4389,8.7105,8.916,9.162,9.7089,10.0503,10.348,10.8204,11.3021,11.6801,11.7712,11.9396,11.9625,11.4988,11.3299,11.0791,10.3712,10.0789,9.8942,9.7442,9.9327,10.2712,10.7598,11.3907,12.06,12.7602,12.9294,13.1102,13.4295,13.3987,13.318,13.2487,13.2295,13.291,13.4487,13.3795,13.3987,13.5603,13.6411,13.6809,13.6887,13.691,13.7103,13.7388,13.7424,13.779,13.8383,13.7589,13.691,13.6289,13.539,13.3593,13.1211,13.1211,13.0195,12.8515,12.7812,12.6992,12.6289,12.5312,12.5,12.4883,12.3984,12.4101,12.4687,0.0,0.0,0.0,0.0,0.0,0.0,0.0,0.0,0.0,0.0,6.4125,6.5033,0.0,0.0,0.0,0.0,0.0,0.0,0.0,0.0,0.0,6.7015,6.8199,6.8707,6.8301,6.9553,7.0161,7.006,7.006,7.0635,7.1718,7.1109,7.1548,7.2834,7.2191,7.2259,7.2902,7.3375,7.3713,7.3916,7.3747,7.4491,7.5639,7.6006,7.6783,0.0,7.8187,7.8867,8.0057,8.3324,8.527,8.7178,9.162,9.4593,9.7273,10.1604,10.5091,10.8277,11.1886,11.5595,11.8499,11.9505,11.8514,11.6722,11.4493,11.0226,10.5482,10.1404,9.8057,9.5788,9.548,9.8096,10.2789,11.0598,11.6407,12.2716,13.0987,13.291,13.4103,13.6103,13.618,13.6103,13.5911,13.5295,13.5295,13.6296,13.5603,13.5488,13.6488,13.668,13.6896,13.7206,13.7513,13.7702,13.7698,13.8011,13.8317,13.839,13.7788,13.7107,13.6289,13.539,13.3593,13.1211,13.1211,13.0195,12.8593,12.8398,12.8281,12.8008,12.6406,12.5781,12.5703,12.4883,12.4218,12.3906,0.0,0.0,0.0,0.0,0.0,0.0,0.0,6.2956,6.3362,6.4512,6.529,6.5865,6.6203,6.6576,6.6812,0.0,0.0,0.0,0.0,0.0,0.0,6.6812,6.7895,6.8504,6.8504,6.962,7.0567,7.1379,0.0,7.0432,7.1853,7.0364,7.0263,7.1312,7.1345,7.1548,7.1921,7.2665,7.3172,7.3544,7.351,7.4582,7.6322,7.6957,7.7988,0.0,7.872,7.8846,7.958,8.2406,8.5233,8.8536,9.3859,9.7493,10.0576,10.4577,10.8197,11.1468,11.4776,11.8506,12.1506,12.1476,11.9305,11.5891,11.1111,10.6097,10.0981,9.5865,9.3864,9.3287,9.4172,9.748,10.1981,10.779,11.3407,11.9715,12.7294,12.991,13.2295,13.5719,13.6488,13.6796,13.6796,13.6623,13.6617,13.7003,13.6822,13.6804,13.7003,13.7209,13.7387,13.7614,13.7698,13.7921,13.8112,13.8302,13.8504,13.8681,13.7887,13.7109,13.6289,13.539,13.3593,13.1211,13.1211,13.0195,12.8515,12.7617,12.7187,12.7109,12.539,12.4687,12.4687,12.4297,12.3906,12.3593,0.0,0.0,0.0,0.0,0.0,0.0,0.0,6.3768,6.4343,6.5967,6.6677,6.6812,6.6237,6.6677,6.6981,0.0,0.0,0.0,0.0,0.0,0.0,0.0,0.0,0.0,6.9079,0.0,0.0,7.3003,7.1447,0.0,0.0,0.0,0.0,0.0,7.2394,7.2631,7.2665,7.3409,7.4052,0.0,0.0,7.5446,7.7752,0.0,0.0,0.0,0.0,7.8626,7.8736,8.1305,8.4425,8.8094,9.3418,9.8051,10.2191,10.5831,10.9603,11.3408,11.6887,12.0723,12.3583,12.2918,11.9712,11.4907,10.8021,10.2597,9.7326,9.1402,9.0864,9.1941,9.3441,9.6749,10.0596,10.4482,10.9213,11.5099,12.2793,12.5909,12.9294,13.4603,13.618,13.6809,13.6885,13.7099,13.7292,13.7405,13.7698,13.7792,13.7403,13.7712,13.7894,13.7894,13.8001,13.8206,13.8514,13.8514,13.8518,13.8593,13.789,13.6992,13.6015,13.5117,13.3398,13.1211,13.1015,13.0,12.8515,12.6914,12.6289,12.6093,12.4414,12.3789,12.3789,12.3593,12.3515,12.3515,0.0,0.0,0.0,0.0,0.0,0.0,0.0,6.4512,6.5256,6.7421,6.776,6.776,6.7692,6.776,6.7523,0.0,0.0,0.0,0.0,0.0,0.0,0.0,0.0,0.0,0.0,0.0,0.0,7.1515,7.1988,0.0,0.0,0.0,0.0,0.0,0.0,7.3375,7.3443,7.4187,0.0,0.0,0.0,0.0,0.0,0.0,0.0,0.0,0.0,7.8699,7.7897,8.1122,8.292,8.4559,8.8604,9.5216,10.1898,10.3696,10.8194,11.3486,11.763,12.0778,12.2784,12.2895,11.8016,11.2022,10.7405,10.0712,9.4634,9.171,9.1787,9.2633,9.3518,9.5326,9.8519,10.4212,10.6213,11.0791,12.1485,12.4486,12.7794,13.3718,13.5795,13.6896,13.7209,13.7291,13.7403,13.7712,13.8112,13.8188,13.7806,13.8082,13.8285,13.8285,13.8599,13.8786,13.8905,13.8905,13.8515,13.7695,13.7617,13.6718,13.5117,13.4297,13.289,13.1211,13.039,12.9492,12.8515,12.7617,12.7187,12.6992,12.5312,12.4687,12.4609,12.3789,12.3515,12.3515,0.0,0.0,0.0,0.0,0.0,0.0,6.3193,6.4038,6.5222,6.7015,6.8064,6.8605,6.8605,6.8605,6.8132,6.6914,0.0,0.0,0.0,0.0,0.0,0.0,0.0,0.0,0.0,0.0,7.1075,7.1954,7.2259,0.0,0.0,0.0,0.0,0.0,0.0,7.4153,7.4221,7.4965,0.0,0.0,0.0,0.0,0.0,0.0,0.0,0.0,0.0,0.0,7.8222,7.8993,8.037,8.1941,8.3045,8.789,9.4398,10.0507,10.6076,11.1588,11.7275,12.1199,12.3394,12.2991,11.6984,11.0098,10.5905,9.9365,9.3633,9.1633,9.1902,9.2903,9.4249,9.548,9.7403,10.0789,10.1981,10.5405,11.3407,11.5984,12.0297,12.8976,13.1491,13.3921,13.7281,13.7819,13.8092,13.8381,13.8593,13.8599,13.8514,13.8593,13.8689,13.8689,13.8786,13.8906,13.8906,13.8906,13.8515,13.7617,13.6484,13.539,13.4218,13.289,13.1601,13.039,13.0117,12.9101,12.7695,12.6914,12.6211,12.5703,12.4492,12.3984,12.3984,12.3593,12.3515,12.3515,0.0,0.0,0.0,0.0,0.0,6.2212,6.2651,6.3599,6.4952,6.688,6.8064,6.8842,6.9079,6.8876,6.8301,6.7218,6.6948,0.0,0.0,0.0,0.0,0.0,0.0,0.0,0.0,0.0,7.1142,7.2394,7.2631,7.3105,0.0,0.0,7.4018,7.3849,0.0,0.0,0.0,0.0,0.0,0.0,0.0,0.0,0.0,0.0,0.0,0.0,0.0,0.0,0.0,0.0,0.0,7.9911,7.9519,8.2184,8.7084,9.5442,10.2601,10.9108,11.5106,11.9993,12.3216,12.2293,11.6099,10.9098,10.4905,9.8788,9.3595,9.1941,9.2479,9.3672,9.5095,9.6095,9.7211,9.8904,9.9712,10.2097,10.7713,11.0291,11.4718,12.3507,12.6195,12.9597,13.5207,13.7419,13.8599,13.8906,13.8906,13.8906,13.8906,13.8906,13.8906,13.8906,13.8593,13.8515,13.8515,13.8007,13.7304,13.6484,13.5,13.3789,13.3008,13.1484,13.0508,12.9883,12.9414,12.8398,12.7187,12.6093,12.5312,12.4687,12.3789,12.3515,12.3515,12.3515,12.3515,12.3515,0.0,0.0,0.0,0.0,0.0,0.0,6.3294,6.3531,6.458,6.7489,6.7895,6.8233,6.9011,6.8402,6.7895,6.7895,6.7218,0.0,0.0,0.0,0.0,0.0,0.0,0.0,0.0,0.0,7.165,7.2394,7.3105,7.3849,7.4627,7.5337,7.5303,7.4593,0.0,0.0,0.0,0.0,0.0,0.0,0.0,0.0,8.0732,0.0,0.0,0.0,0.0,0.0,0.0,0.0,0.0,0.0,0.0,7.9637,8.1489,8.8216,9.7359,10.621,11.0302,11.6391,12.1408,12.0485,11.5215,10.9098,10.4905,9.9288,9.4518,9.2826,9.3787,9.5249,9.6134,9.6942,9.8057,9.9788,10.0096,10.1904,10.6982,10.9906,11.3212,11.7805,12.0511,12.4406,13.0212,13.5682,13.8906,13.8906,13.8906,13.8906,13.8906,13.8906,13.8906,13.8906,13.8086,13.7617,13.7617,13.5898,13.4609,13.3789,13.289,13.2109,13.1211,13.0312,12.9883,12.9804,12.8086,12.7304,12.7187,12.5508,12.4804,12.4687,12.3789,12.3515,12.3515,12.3515,12.3515,12.3515,0.0,0.0,0.0,0.0,0.0,0.0,0.0,6.2076,6.3463,6.5392,6.6068,6.688,6.8132,6.759,6.7354,6.7861,6.7692,0.0,0.0,0.0,0.0,0.0,0.0,0.0,0.0,0.0,7.1379,7.3138,7.3375,7.4119,7.5371,7.5574,7.5303,7.4627,7.4627,7.4187,0.0,0.0,0.0,0.0,0.0,7.9818,8.1641,0.0,0.0,0.0,0.0,0.0,0.0,0.0,0.0,0.0,0.0,0.0,0.0,8.471,9.0798,9.7705,10.2999,10.7296,11.0291,10.9983,10.6097,10.2097,10.0712,9.6711,9.348,9.4057,9.5095,9.6134,9.698,9.8288,9.9442,9.9981,10.0596,10.152,10.3097,10.6714,11.1685,11.8696,12.7816,13.4303,13.6117,13.7302,13.8281,13.8906,13.7812,13.7382,13.8007,13.6914,13.6797,13.8007,13.7187,13.6406,13.5781,13.4687,13.3789,13.289,13.1992,13.1211,13.0312,12.8789,12.8086,12.8086,12.6914,12.6093,12.5586,12.5,12.4414,12.3906,12.3593,12.3515,12.3515,12.3515,12.3515,12.3515,0.0,0.0,0.0,0.0,0.0,0.0,0.0,6.0926,6.2178,6.3971,6.458,6.5527,6.7286,6.6846,6.6779,6.7793,6.7895,0.0,0.0,0.0,0.0,0.0,0.0,0.0,0.0,7.0601,7.1548,7.3477,7.3477,7.4255,7.5709,7.5709,7.5303,7.4593,7.4322,7.3781,0.0,0.0,0.0,0.0,7.9031,8.0659,8.2113,0.0,0.0,0.0,0.0,0.0,0.0,0.0,0.0,0.0,0.0,0.0,0.0,0.0,8.644,9.0979,9.725,10.1481,10.4212,10.4212,10.1481,9.8711,9.8365,9.5788,9.3749,9.4788,9.5942,9.7019,9.7827,9.9135,10.0173,10.0481,10.1019,10.1501,10.1897,10.5773,11.1495,11.9314,12.9302,13.5508,13.5508,13.6797,13.7695,13.789,13.6601,13.6015,13.6601,13.5312,13.4883,13.5703,13.5117,13.4609,13.4101,13.289,13.2109,13.1484,13.0312,12.9414,12.8906,12.75,12.6797,12.6797,12.5898,12.5312,0.0,12.4414,12.3984,12.3515,12.3515,12.3281,12.3008,12.3008,12.2812,12.2617,0.0,0.0,0.0,0.0,0.0,0.0,0.0,6.0114,6.0892,6.3159,6.3497,6.4309,6.644,6.6068,6.6271,6.7692,0.0,0.0,0.0,0.0,0.0,0.0,0.0,0.0,7.1312,7.1312,7.1988,7.3409,7.3443,7.4221,7.5608,7.5676,7.5303,7.4593,7.3883,7.3138,0.0,0.0,0.0,0.0,7.9501,8.1155,0.0,0.0,0.0,0.0,0.0,0.0,0.0,0.0,0.0,0.0,0.0,0.0,0.0,0.0,0.0,0.0,0.0,9.7865,10.152,10.1597,9.9865,9.798,9.7365,9.6019,0.0,9.5057,9.6442,9.7827,9.8634,9.9558,10.0385,10.1212,10.1308,10.1709,10.2785,10.6984,11.2682,11.9891,12.6393,13.0195,12.9883,13.4414,13.6992,13.6211,13.5312,13.4804,13.4804,13.3984,13.3086,13.2304,13.2187,13.2187,13.2187,13.0586,12.9687,12.9609,12.8008,12.7187,12.7187,12.6289,12.5898,12.5898,12.5117,12.4687,12.4609,12.3789,12.3398,12.3515,12.3398,12.289,12.2187,12.2109,12.1601,12.1015,0.0,0.0,0.0,0.0,0.0,0.0,0.0,0.0,0.0,0.0,6.3159,6.3937,6.5019,6.5459,6.6068,0.0,0.0,0.0,0.0,0.0,0.0,0.0,0.0,0.0,7.1278,7.1312,7.1751,7.2665,7.3206,7.395,7.4864,7.5439,7.5303,7.4593,7.4424,7.3612,0.0,0.0,0.0,0.0,7.8242,7.9776,0.0,0.0,0.0,0.0,7.7928,7.7924,0.0,0.0,0.0,0.0,0.0,0.0,0.0,0.0,8.4209,8.5401,8.7594,0.0,9.1133,9.1787,9.1979,9.2441,0.0,9.4287,9.4364,9.5711,9.7326,9.8557,9.875,10.0019,10.1095,10.15,10.1416,10.1508,10.221,11.0213,11.789,12.3192,12.9687,13.2812,13.0195,13.2812,13.4609,13.4414,13.3008,13.2383,13.3086,13.1601,13.039,12.9492,12.8906,12.8789,12.9492,12.8398,12.7617,12.6914,12.6484,12.6289,12.6289,12.5508,12.5117,12.5,12.4218,12.3789,12.3711,12.289,12.289,12.3398,12.1992,12.1797,12.2109,12.1484,12.1093,12.0898,0.0,0.0,0.0,0.0,0.0,0.0,0.0,0.0,0.0,0.0,0.0,0.0,0.0,0.0,0.0,0.0,0.0,0.0,0.0,0.0,0.0,0.0,0.0,6.9789,7.1278,7.1312,7.1853,7.2902,7.3274,7.4052,7.51,7.5506,7.5473,7.51,7.439,7.373,0.0,0.0,0.0,7.7518,7.9318,0.0,0.0,0.0,0.0,0.0,7.7983,7.8173,0.0,7.9403,8.0046,8.0702,0.0,0.0,0.0,0.0,8.4786,8.5555,8.5978,8.644,8.7094,8.8363,8.9017,9.0094,9.3018,9.371,9.4287,9.6403,9.7904,9.8979,9.9463,10.0578,10.1616,10.1815,10.1786,10.2604,10.5398,11.2184,11.9009,12.4687,12.9687,13.2187,13.1211,13.2695,13.3515,13.2695,13.1406,13.0586,13.0703,12.9414,12.8281,12.7383,12.6914,12.6914,12.7383,12.6914,12.6484,12.6015,12.5586,12.539,12.539,12.4609,12.3984,12.3593,12.3086,12.2695,12.2304,12.1797,12.1914,12.2187,12.1289,12.0898,12.0898,12.0508,12.0117,11.9804,0.0,0.0,0.0,0.0,0.0,0.0,0.0,0.0,0.0,0.0,0.0,0.0,0.0,0.0,0.0,0.0,0.0,0.0,0.0,0.0,0.0,0.0,0.0,6.9789,7.1278,7.1312,7.1988,7.3308,7.3443,7.4187,7.554,7.5642,7.5709,7.5642,7.4454,7.4032,0.0,0.0,7.8125,7.8563,8.0758,0.0,0.0,0.0,0.0,0.0,0.0,0.0,0.0,7.9756,8.0458,8.1246,8.2054,0.0,0.0,0.0,0.0,0.0,8.6094,8.6209,8.6709,8.8286,8.8902,8.9902,9.2979,9.3903,9.4767,9.7072,9.8344,9.9319,10.0398,10.1201,10.1802,10.208,10.2513,10.4697,11.0207,11.4086,11.8593,12.4687,12.8086,13.0312,13.1211,13.25,13.25,13.0703,12.9883,12.9101,12.8203,12.75,12.6718,12.5781,12.5781,12.5781,12.5586,12.5781,12.5781,12.5586,12.4804,12.4414,12.4414,12.3515,12.2695,12.1992,12.1992,12.1601,12.0898,12.0781,12.0781,12.0898,12.0508,11.9883,11.9414,11.91,11.8513,11.7888,0.0,0.0,0.0,0.0,0.0,0.0,0.0,0.0,0.0,0.0,0.0,0.0,0.0,0.0,0.0,0.0,0.0,0.0,0.0,0.0,0.0,6.9079,6.9113,6.9789,7.1278,7.1312,7.1718,7.2563,7.3172,7.3916,7.4796,7.5405,7.5709,7.5689,7.5763,7.582,7.5948,0.0,7.8603,7.9285,7.9186,0.0,0.0,0.0,0.0,0.0,0.0,0.0,0.0,7.9109,7.9999,8.1246,8.2054,0.0,0.0,0.0,0.0,0.0,8.6094,8.6632,8.744,8.844,8.9748,9.1325,9.3249,9.4826,9.6261,9.7565,9.8923,10.0119,10.0601,10.1298,10.188,10.24,10.4408,10.7987,11.3789,11.7211,12.0,12.25,12.6992,12.8906,12.6211,12.8711,12.9804,12.8008,12.7812,12.7304,12.6406,12.6289,12.5781,12.5,12.5,12.4609,12.3906,12.4609,12.4609,12.3906,12.3008,12.2617,12.2617,12.1718,12.1211,12.1093,12.1093,12.1015,12.0781,12.0117,12.0195,12.0703,11.8515,11.8008,11.828,11.6597,11.5901,11.5692,0.0,0.0,0.0,0.0,0.0,0.0,0.0,0.0,0.0,0.0,0.0,0.0,0.0,0.0,0.0,0.0,0.0,0.0,0.0,0.0,6.8267,6.9079,6.9485,7.0195,7.1312,7.1684,7.2259,7.2969,7.3713,7.4458,7.5202,7.554,7.5709,7.5689,7.6045,7.6501,7.717,7.838,7.946,8.0266,0.0,0.0,0.0,0.0,0.0,0.0,0.0,0.0,0.0,0.0,8.0817,8.19,8.2747,0.0,0.0,0.0,0.0,0.0,8.68,8.7519,8.8496,9.0056,9.0931,9.2087,9.4713,9.6039,9.72,9.9068,10.0018,10.0715,10.1619,10.2296,10.3583,10.5784,10.8394,11.1288,11.4516,11.6793,11.8984,12.1211,12.4414,12.6211,12.5508,12.7304,12.8008,12.6718,12.6601,12.6211,12.539,12.539,12.4804,12.3398,12.3398,12.3008,12.2109,12.25,12.2695,12.2812,12.1914,12.1484,12.1484,12.1093,12.039,11.9492,11.9492,11.8984,11.8086,11.7695,11.7612,11.7781,11.661,11.6192,11.6395,11.5417,11.5104,11.5088,0.0,0.0,0.0,0.0,0.0,0.0,0.0,0.0,0.0,0.0,0.0,0.0,0.0,0.0,0.0,0.0,0.0,0.0,0.0,0.0,6.8166,6.8808,6.9688,7.0635,7.1548,7.2124,7.2935,7.4018,7.4424,7.4999,7.5709,7.5709,7.5818,7.608,7.6625,7.7451,7.8526,7.9648,8.0453,8.0938,0.0,0.0,0.0,0.0,0.0,0.0,0.0,0.0,0.0,0.0,0.0,0.0,0.0,0.0,0.0,8.5863,8.6094,8.6345,8.741,8.8228,8.933,9.1627,9.2305,9.3164,9.6088,9.7293,9.8403,10.0509,10.0989,10.1392,10.2416,10.3616,10.5592,10.8984,11.1992,11.4297,11.5781,11.75,11.9297,12.1601,12.3203,12.4609,12.5898,12.6601,12.6601,12.5781,12.5703,12.5312,12.4218,12.4218,12.3515,12.1914,12.1914,12.1601,12.0898,12.0508,12.0781,12.1914,12.0781,12.0312,12.0312,11.9883,11.8905,11.7611,11.7416,11.6513,11.529,11.5017,11.4786,11.4608,11.4413,11.4018,11.3588,11.3588,11.3617,11.3502,0.0,0.0,0.0,0.0,0.0,0.0,0.0,0.0,0.0,0.0,0.0,0.0,0.0,0.0,0.0,0.0,0.0,0.0,0.0,0.0,6.7929,6.7996,6.9383,7.0872,7.2293,7.236,7.3443,7.554,7.4931,7.4999,7.5709,7.5709,7.6219,7.7248,7.83,7.9387,8.0478,8.1537,8.1607,8.0938,8.0094,0.0,0.0,0.0,0.0,0.0,0.0,0.0,0.0,0.0,0.0,0.0,0.0,0.0,8.5055,8.5863,8.6094,8.6345,8.741,8.8339,8.9641,9.2414,9.3943,9.5158,9.6649,9.8629,10.0313,10.1015,10.1603,10.2211,10.2803,10.4882,10.7382,11.0117,11.3398,11.6718,12.0,12.1914,12.3398,12.4414,12.5312,12.5898,12.6015,12.6093,12.5781,12.4883,12.4883,12.4218,12.25,12.2383,12.1992,12.1015,12.1015,12.1015,12.0898,11.9297,11.9297,12.1015,11.9297,11.8515,11.8398,11.6797,11.5887,11.5497,11.4682,11.4211,11.3711,11.2902,11.2581,11.2484,11.1705,11.0702,10.9818,10.9818,10.9596,10.9299,0.0,0.0,0.0,0.0,0.0,0.0,0.0,0.0,0.0,0.0,0.0,0.0,0.0,0.0,0.0,0.0,0.0,0.0,0.0,6.7489,6.7895,6.7895,6.9383,7.0872,7.236,7.3308,7.439,7.5709,7.5912,7.5912,7.5676,7.6404,7.6927,7.738,7.9183,8.0218,8.0659,8.1203,8.1269,8.0901,7.958,7.8883,0.0,0.0,0.0,0.0,0.0,0.0,0.0,0.0,8.2131,8.3247,8.4132,8.4978,8.5719,8.6211,8.636,8.6726,8.8481,8.9065,9.0011,9.3543,9.4949,9.6027,9.829,10.091,10.268,10.2285,10.372,10.4889,10.4608,10.6211,10.8515,11.1718,11.5117,11.8398,12.1289,12.2695,12.3593,12.3984,12.4297,12.4414,12.4414,12.3984,12.3515,12.3203,12.2695,12.2109,12.1406,12.0898,12.0195,11.9297,11.8789,11.8203,11.7695,11.6484,11.6289,11.6914,11.6289,11.5898,11.5898,11.4514,11.3498,11.29,11.2414,11.1918,11.1198,11.0886,11.0699,11.0496,10.9879,10.9505,10.909,10.909,10.9397,10.9713,0.0,0.0,0.0,0.0,0.0,0.0,0.0,0.0,0.0,0.0,0.0,0.0,0.0,0.0,0.0,0.0,0.0,0.0,6.6406,6.6914,6.732,6.7557,6.8774,7.0161,7.165,7.3375,7.4864,7.6082,7.6623,7.6352,7.5385,7.6689,7.7372,7.7523,7.9661,8.0804,8.1123,8.1044,8.0865,8.0498,7.914,7.856,0.0,0.0,0.0,0.0,0.0,0.0,0.0,0.0,8.3054,8.4125,8.4789,8.5552,8.6259,8.6541,8.6594,8.7049,8.912,8.9576,9.0339,9.4212,9.5775,9.6965,9.9474,10.2087,10.4095,10.4101,10.5508,10.6484,10.5586,10.7109,10.9414,11.2304,11.5898,11.9101,12.1484,12.2304,12.2812,12.3086,12.2812,12.2812,12.3086,12.2304,12.1718,12.1406,12.0781,12.0117,11.9297,11.8711,11.789,11.6718,11.6093,11.5508,11.4883,11.4101,11.3592,11.3506,11.2998,11.2998,11.3504,11.2398,11.1517,11.0814,11.0405,10.9798,10.9099,10.8788,10.8593,10.8402,10.8202,10.8098,10.8098,10.8098,10.8482,10.8983,0.0,0.0,0.0,0.0,0.0,0.0,0.0,0.0,0.0,0.0,0.0,0.0,0.0,0.0,0.0,0.0,0.0,0.0,6.5628,6.5696,6.6034,6.6779,6.7523,6.8605,7.0161,7.236,7.4627,7.6893,7.6893,7.6115,7.4674,7.6493,7.753,7.7894,7.9785,8.1195,8.215,8.1342,8.0534,7.9758,7.8919,7.8485,7.8389,0.0,0.0,0.0,0.0,0.0,0.0,0.0,8.3478,8.4943,8.514,8.5822,8.6553,8.6747,8.6817,8.7223,8.9184,8.9727,9.0609,9.4295,9.6445,9.8164,9.9922,10.2082,10.4389,10.6287,10.6719,10.6484,10.5703,10.7617,10.9883,11.1601,11.5508,11.8906,12.0586,12.0898,12.1211,12.2109,12.1406,12.1211,12.2109,12.1406,12.0508,11.9609,11.9492,11.8398,11.5898,11.5703,11.4883,11.3203,11.3203,11.3203,11.3203,11.2304,11.1705,11.15,10.97,10.9817,11.1417,11.0299,10.9577,10.9307,10.8493,10.7882,10.7598,10.679,10.6405,10.6405,10.6405,10.6405,10.6405,10.6405,10.6405,10.6521,0.0,0.0,0.0,0.0,0.0,0.0,0.0,0.0,0.0,0.0,0.0,0.0,0.0,0.0,0.0,0.0,0.0,0.0,6.5595,6.5696,6.6034,6.6779,6.7523,6.8605,7.0161,7.236,7.4627,7.6893,7.71,7.6964,7.6538,7.8035,7.9124,7.9858,8.1121,8.1919,8.2113,8.0718,8.0021,7.9753,7.9372,7.9187,7.9253,0.0,0.0,0.0,0.0,0.0,0.0,0.0,0.0,0.0,8.59,8.64,8.6756,8.6962,8.7008,8.7429,8.9395,9.0345,9.1519,9.4453,9.6445,9.832,10.0703,10.3201,10.5815,10.8789,10.8984,10.8515,10.8203,10.8789,10.9883,11.1601,11.3984,11.6601,11.9609,12.0,12.0117,12.0312,12.0703,12.0508,11.9609,11.8711,11.7812,11.6914,11.5781,11.4804,11.3984,11.3398,11.2812,11.2304,11.1502,11.1084,11.1084,11.0017,10.9499,10.9394,10.8105,10.8116,10.9386,10.8205,10.759,10.7494,10.7098,10.6892,10.679,10.6521,10.6405,10.6405,10.6405,10.6405,10.6405,10.6405,10.679,10.7405,0.0,0.0,0.0,0.0,0.0,0.0,0.0,0.0,0.0,0.0,6.2381,6.2381,0.0,0.0,0.0,0.0,0.0,0.0,0.0,6.5256,6.573,6.6779,6.7252,6.8335,7.0161,7.2482,7.4468,7.6141,7.6307,7.6608,7.7048,7.8659,7.9648,8.0226,8.1602,8.2186,8.2076,8.0461,7.9915,8.0103,7.9698,7.9613,7.9859,0.0,0.0,0.0,0.0,0.0,0.0,0.0,0.0,0.0,8.6439,8.6765,8.6968,8.7173,8.7509,8.8143,8.9999,9.1133,9.2539,9.5469,9.7226,9.8984,10.1992,10.5195,10.8203,11.0586,11.0703,11.0117,10.9414,10.9297,10.9609,11.0703,11.2304,11.4414,11.7187,11.7304,11.7383,11.8398,11.8086,11.7695,11.7304,11.6211,11.5117,11.4297,11.289,11.1914,11.1211,11.0501,10.9983,10.971,10.9187,10.8983,10.8983,10.8307,10.7894,10.7804,10.7086,10.709,10.759,10.6979,10.6589,10.6611,10.6507,10.6405,10.6405,10.6405,10.6405,10.6405,10.6405,10.6405,10.6405,10.6405,10.7021,10.779,0.0,0.0,0.0,0.0,0.0,0.0,0.0,0.0,0.0,0.0,6.2381,6.2381,0.0,0.0,0.0,0.0,0.0,0.0,0.0,0.0,6.5256,6.6745,6.6948,6.8005,7.0202,7.2605,7.4232,7.5095,7.5164,7.5738,7.6766,7.8566,7.9502,7.9717,8.1416,8.2186,8.2076,8.0556,8.0214,8.074,8.0074,8.0033,8.0544,8.1327,0.0,0.0,0.0,0.0,0.0,0.0,0.0,0.0,8.6783,8.6974,8.7212,8.7536,8.8164,8.9219,9.1054,9.2226,9.375,9.6992,9.8594,10.0195,10.3515,10.7383,11.0586,11.1484,11.1797,11.1406,10.9687,10.9414,10.9414,10.9414,11.0703,11.2383,11.4101,11.3593,11.3906,11.6289,11.4609,11.3711,11.5117,11.3789,11.25,11.1601,11.0585,10.9413,10.7812,10.7602,10.7103,10.6283,10.6797,10.7204,10.7204,10.7105,10.6977,10.6789,10.6789,10.6611,10.6405,10.6405,10.6405,10.6405,10.6405,10.6405,10.6405,10.6405,10.6405,10.6405,10.6405,10.6405,10.6405,10.6405,10.7021,10.779,0.0,0.0,0.0,0.0,0.0,0.0,0.0,0.0,0.0,0.0,0.0,0.0,0.0,0.0,0.0,0.0,0.0,0.0,0.0,0.0,6.5256,6.6745,6.7963,6.9203,7.0498,7.2154,7.3887,7.5621,7.6193,7.6947,7.7883,7.915,8.0056,8.0715,8.1754,8.2186,8.2141,8.0963,8.0971,8.1736,8.1929,8.242,8.3103,8.3131,8.3511,0.0,0.0,0.0,0.0,0.0,0.0,0.0,8.7019,8.7219,8.7536,8.8242,8.9062,9.0234,9.2695,9.4492,9.6133,9.8203,10.039,10.2383,10.3906,10.6484,10.8789,10.9687,11.0898,11.1601,11.0508,11.0312,11.0312,11.0312,11.0586,11.1484,11.3203,11.2695,11.2383,11.289,11.3086,11.2812,11.1797,11.0781,10.9804,10.8906,10.7281,10.6111,10.5681,10.6091,10.6204,10.6009,10.6575,10.6892,10.6892,10.668,10.6486,10.6488,10.6488,10.6506,10.6405,10.6405,10.6405,10.6405,10.6405,10.6405,10.6405,10.6405,10.6405,10.6405,10.6405,10.6405,10.6405,10.6405,10.7021,10.779,0.0,0.0,0.0,0.0,0.0,0.0,0.0,0.0,0.0,0.0,0.0,0.0,0.0,0.0,0.0,0.0,0.0,0.0,0.0,0.0,6.5256,6.6745,6.8751,7.0086,7.0585,7.2999,7.4757,7.5787,7.6663,7.7734,7.8968,7.9535,8.0424,8.1599,8.2003,8.2003,8.159,8.0955,8.0895,8.1318,8.2309,8.2856,8.3211,8.3934,8.4247,8.4241,8.3823,0.0,0.0,0.0,0.0,0.0,0.0,0.0,8.8242,8.9062,9.0234,9.1719,9.3945,9.5781,9.7578,9.9726,10.1914,10.3594,10.4101,10.5586,10.6992,10.789,10.9804,11.1015,11.0117,11.0,10.9804,10.9414,10.9414,10.9804,11.1093,11.0586,11.0195,11.0586,11.0187,10.9588,10.869,10.7719,10.6905,10.6515,10.5117,10.4283,10.4283,10.4793,10.5087,10.5087,10.6099,10.6596,10.6596,10.6507,10.6405,10.6405,10.6405,10.6405,10.6405,10.6405,10.6405,10.6405,10.6405,10.6405,10.6405,10.6405,10.6405,10.6405,10.6405,10.6405,10.6521,10.6905,10.7598,10.8406,0.0,0.0,0.0,0.0,0.0,0.0,0.0,0.0,0.0,0.0,0.0,0.0,0.0,0.0,0.0,0.0,0.0,0.0,0.0,0.0,0.0,6.6962,6.9204,7.061,7.1101,7.4047,7.5747,7.6061,7.6888,7.8185,7.98,7.9653,8.0351,8.1782,8.1929,8.1663,8.1119,8.0934,8.0842,8.0893,8.2124,8.2695,8.2901,8.417,8.4449,8.4211,8.4946,8.5351,8.5678,8.6739,0.0,0.0,0.0,0.0,8.9101,8.9961,9.1445,9.3242,9.5117,9.707,9.9101,10.1289,10.289,10.3984,10.3984,10.4609,10.5508,10.6093,10.8203,10.9687,10.8984,10.8984,10.8789,10.789,10.789,10.8203,10.8789,10.8202,10.7887,10.8512,10.7095,10.6083,10.6083,10.5087,10.4503,10.4503,10.3597,10.3099,10.3099,10.3597,10.3994,10.4094,10.5505,10.6213,10.6405,10.6405,10.6405,10.6405,10.6405,10.6405,10.6405,10.6405,10.6405,10.6405,10.6405,10.6405,10.6405,10.6405,10.6405,10.6405,10.6405,10.6405,10.65,10.7224,10.7988,10.8811,0.0,0.0,0.0,0.0,0.0,0.0,0.0,0.0,0.0,0.0,6.2381,6.2381,0.0,0.0,0.0,0.0,0.0,0.0,6.4512,0.0,0.0,6.799,6.9011,7.0669,7.3069,7.4172,7.5542,7.7082,7.7243,7.8185,7.9764,7.9066,7.925,8.0131,8.0865,8.1391,8.1781,8.1555,8.1801,8.2294,8.2326,8.3237,8.4516,8.3978,8.4749,8.603,8.5422,8.5912,8.698,8.7897,8.8321,0.0,0.0,0.0,9.0,9.0859,9.2344,9.4258,9.6719,9.9726,10.2304,10.2617,10.289,10.3086,10.3086,10.3711,10.4414,10.4492,10.6015,10.7187,10.7109,10.7695,10.789,10.6992,10.75,10.7812,10.7109,10.6813,10.6411,10.5708,10.5187,10.491,10.491,10.4094,10.3598,10.3598,10.2577,10.1888,10.1888,10.2504,10.3194,10.3888,10.4791,10.5597,10.6405,10.6405,10.6405,10.6405,10.6405,10.6405,10.6405,10.6405,10.6405,10.6405,10.6405,10.6405,10.6405,10.6405,10.6405,10.6405,10.6405,10.6405,10.642,10.6495,10.7101,10.78,0.0,0.0,0.0,0.0,0.0,0.0,0.0,0.0,0.0,0.0,0.0,6.2854,0.0,0.0,0.0,6.2381,6.2381,6.2854,6.3903,6.5358,6.6596,6.7527,6.9704,7.1728,7.3474,7.4764,7.6053,7.7273,7.6864,7.7488,7.9134,7.9113,8.0022,8.1726,8.2096,8.2321,8.2458,8.2263,8.2357,8.2701,8.2928,8.3785,8.4901,8.4978,8.5627,8.6466,8.6172,8.6522,8.7229,8.8256,8.894,8.9687,9.1015,0.0,0.0,0.0,9.4375,9.5898,9.8476,10.0586,10.2304,10.2812,10.289,10.289,10.289,10.3203,10.3594,10.4101,10.4804,10.539,10.5898,10.6289,10.6484,10.6093,10.6202,10.618,10.5907,10.5581,10.5079,10.43,10.3898,10.3587,10.3121,10.2508,10.2222,10.2222,10.1799,10.1487,10.1487,10.2212,10.2789,10.3212,10.3982,10.4789,10.5713,10.5713,10.5905,10.6405,10.6405,10.6405,10.6405,10.6405,10.6405,10.6405,10.6405,10.6405,10.6405,10.6405,10.6101,10.5695,10.5695,10.5686,10.5799,10.6193,10.6913,10.7726,0.0,0.0,0.0,0.0,0.0,0.0,0.0,0.0,0.0,0.0,0.0,0.0,0.0,0.0,0.0,0.0,6.2381,6.2719,6.3463,6.5134,6.649,6.7457,7.0485,7.2577,7.3547,7.5019,7.6203,7.7011,7.6387,7.7169,7.9185,7.9614,8.1238,8.3667,8.3318,8.3148,8.3142,8.2991,8.2912,8.297,8.344,8.4132,8.4978,8.5629,8.6155,8.6605,8.6778,8.7159,8.7696,8.8943,8.9922,9.0976,9.2695,9.3711,0.0,0.0,0.0,9.7804,9.9861,10.1106,10.189,10.2514,10.271,10.2714,10.2803,10.2681,10.291,10.3586,10.3697,10.3881,10.4506,10.5105,10.5303,10.5016,10.4997,10.4889,10.4694,10.4403,10.3894,10.3106,10.2691,10.2299,10.1703,10.138,10.1289,10.1289,10.1289,10.1289,10.1289,10.1904,10.2404,10.2597,10.3212,10.3982,10.4789,10.4982,10.529,10.579,10.6213,10.629,10.6097,10.629,10.6284,10.6117,10.6305,10.6284,10.6117,10.6117,10.5601,10.492,10.492,10.4979,10.5284,10.5886,10.6579,10.7411,0.0,0.0,0.0,0.0,0.0,0.0,0.0,0.0,0.0,0.0,0.0,0.0,6.2482,6.3024,6.3159,6.2448,6.2381,6.2719,6.3463,6.5705,6.7494,6.8504,7.0926,0.0,7.3685,7.4522,7.5359,7.6166,7.613,7.7688,8.0703,8.0721,8.2285,8.4919,8.3549,8.3263,8.3859,8.3842,8.3734,8.3577,8.3593,8.4132,8.4933,8.5164,8.5879,8.6825,8.7008,0.0,0.0,0.0,9.1758,9.2773,9.4531,9.5117,9.5312,0.0,0.0,0.0,10.0604,10.1408,10.2109,10.2109,10.2109,10.221,10.2499,10.2295,10.2218,10.2504,10.2412,10.2187,10.2313,10.3804,10.4795,10.372,10.422,10.4406,10.3579,10.3288,10.279,10.1884,10.1581,10.1404,10.1289,10.1289,10.1289,10.1289,10.1289,10.1289,10.1289,10.1289,10.1712,10.2597,10.2597,10.3097,10.3982,10.4713,10.4713,10.3982,10.5597,10.602,10.5213,10.602,10.5991,10.5319,10.6096,10.5991,10.5307,10.5307,10.4774,10.4086,10.4086,10.4509,10.5184,10.5188,10.5802,10.6475,0.0,0.0,0.0,0.0,0.0,0.0,0.0,0.0,0.0,0.0,0.0,0.0,0.0,6.3768,6.4106,6.3835,6.3802,6.4189,6.5061,6.6336,6.7791,6.9418,7.129,7.274,7.3707,7.3964,7.4515,7.5322,7.5772,7.706,7.923,8.0575,8.2304,8.4337,8.4301,8.4683,8.5276,8.4778,8.4788,8.5164,8.4768,8.5137,8.5951,8.6161,8.688,8.7822,8.7911,0.0,0.0,0.0,0.0,0.0,0.0,9.6523,9.7522,9.8224,9.9006,9.9795,10.0611,10.101,10.1409,10.1993,10.211,10.2099,10.2179,10.2214,10.2099,10.2179,10.2214,10.1982,10.1905,10.2586,10.2997,10.2596,10.27,10.2682,10.241,10.2121,10.1799,10.1511,10.1404,10.1289,10.1289,10.1289,10.1289,10.1289,10.1289,10.1289,10.1289,10.1289,10.1404,10.1789,10.1789,10.2212,10.3097,10.3905,10.4212,10.3905,10.4483,10.4606,10.4276,10.4697,10.4692,10.4392,10.4681,10.4692,10.4401,10.4401,10.3889,10.3193,10.3193,10.3674,10.4318,10.3826,10.4814,10.6284,0.0,0.0,0.0,0.0,0.0,0.0,0.0,0.0,0.0,0.0,0.0,0.0,0.0,0.0,6.4884,6.4613,6.4869,6.5353,6.5974,6.7298,6.8643,6.9936,7.1775,7.3057,7.3707,7.3707,7.4191,7.5224,7.5352,7.663,7.8927,8.0313,8.1977,8.385,8.4653,8.5414,8.6055,8.5622,8.576,8.623,8.5858,8.6256,8.7065,8.7277,8.8122,8.9298,8.9369,0.0,0.0,0.0,0.0,0.0,0.0,0.0,9.9396,9.9705,10.0007,10.0295,10.0819,10.1013,10.1091,10.1686,10.1802,10.1919,10.1911,10.1891,10.1919,10.1911,10.1878,10.1813,10.1587,10.1715,10.1802,10.1802,10.171,10.16,10.16,10.1419,10.1289,10.1289,10.1289,10.1289,10.1289,10.1289,10.1289,10.1289,10.1289,10.1289,10.1289,10.1289,10.1289,10.1289,10.1289,10.1597,10.2212,10.2798,10.2905,10.2714,10.321,10.3395,10.3102,10.3697,10.3797,10.3588,10.3588,10.3588,10.3588,10.3588,10.3092,10.2315,10.2315,10.2825,10.3513,10.3219,10.432,10.5899,0.0,0.0,0.0,0.0,0.0,0.0,0.0,0.0,6.2448,6.2448,0.0,0.0,0.0,0.0,0.0,6.479,6.5538,6.6115,6.6155,6.8558,7.004,7.0071,7.237,7.367,7.3707,7.3699,7.4366,7.575,7.5056,7.6531,8.0048,8.0087,8.1379,8.3625,8.4456,8.5302,8.612,8.6376,8.648,8.6517,8.6767,8.7378,8.818,8.8394,8.9575,9.1113,9.1324,9.3086,9.539,9.6289,0.0,0.0,0.0,0.0,0.0,10.0493,10.1013,10.1595,0.0,0.0,0.0,10.1289,10.1289,10.1422,10.1595,10.1504,10.1384,10.1595,10.1504,10.1289,10.1289,10.1289,10.1289,10.1289,10.1289,10.1289,10.1289,10.1289,10.1289,10.1289,10.1289,10.1289,10.1289,10.1289,10.1289,10.1289,10.1289,10.1289,10.1289,10.1289,10.1308,10.1308,10.1308,10.1288,10.1191,10.1308,10.0885,10.0198,10.1807,10.2184,10.1505,10.3097,10.3378,10.2601,10.2712,10.2712,10.2712,10.2712,10.2167,10.1494,10.1494,10.2008,10.2815,10.3586,10.4394,10.5201,0.0,0.0,0.0,0.0,0.0,0.0,6.3193,6.3666,6.4005,0.0,0.0,0.0,0.0,0.0,6.752,6.8022,6.7791,6.8171,6.962,7.0365,7.1122,7.1772,7.2453,7.3083,7.367,7.3545,7.393,7.493,7.6195,7.7336,7.8389,8.0033,8.1562,8.2896,8.3115,8.4144,8.5695,8.627,8.6572,8.6777,8.7618,8.8462,8.9335,9.0171,9.1445,9.2912,9.3827,9.5157,9.6649,9.7694,9.8736,9.9771,0.0,0.0,0.0,0.0,0.0,0.0,10.1289,0.0,0.0,0.0,0.0,0.0,10.1382,10.1385,10.1289,10.1382,10.1385,10.1289,10.1289,10.1289,10.1289,10.1289,10.1289,10.1289,10.1289,10.1289,10.1289,10.1289,10.1289,10.1289,10.1289,10.1289,10.1289,10.1289,10.1289,10.1289,10.1289,10.1289,10.1109,10.0505,10.0482,10.0195,9.9615,9.9655,9.9545,9.9356,9.9843,9.9988,9.9806,10.0828,10.1202,10.1008,10.1598,10.1782,10.1782,10.1782,10.1699,10.1494,10.1494,10.2008,10.2705,10.2925,10.3917,10.5128,0.0,0.0,0.0,0.0,0.0,6.3632,6.3903,6.4343,6.4613,0.0,0.0,0.0,0.0,0.0,6.9404,7.0438,7.0472,7.0771,7.1568,7.1951,7.2279,7.2504,7.2826,7.3377,7.4184,7.4354,7.496,7.5994,7.7138,7.8004,7.862,8.0014,8.1182,8.2104,8.2577,8.3628,8.5176,8.5913,8.6483,8.7033,8.8103,8.9205,9.0312,9.1281,9.3057,9.5057,9.5729,9.7171,9.8821,9.9318,10.0013,0.0,0.0,0.0,0.0,0.0,0.0,0.0,0.0,0.0,10.1289,10.1289,0.0,0.0,10.1289,10.1289,10.1289,10.1289,10.1289,10.1289,10.1289,10.1289,10.1289,10.1289,10.1289,10.1289,10.1289,10.1289,10.1289,10.1289,10.1289,10.1289,10.1289,10.1289,10.1289,10.1289,10.099,10.0678,10.0389,10.0313,10.0084,9.9706,9.9706,9.9455,9.8969,9.8682,9.8498,9.8498,9.8588,9.8612,9.8649,9.9785,10.0283,10.0319,10.12,10.1494,10.1494,10.1494,10.1494,10.1494,10.1494,10.1788,10.2301,10.2999,10.3405,10.3817,0.0,0.0,6.2618,6.3396,6.3666,6.4005,6.4749,6.4918,6.4986,0.0,6.6294,6.811,7.047,0.0,0.0,0.0,7.3072,7.3251,7.2629,7.3356,7.3523,7.2789,7.345,7.4214,7.511,7.5686,7.6642,7.8021,7.7949,7.8599,7.986,8.0112,8.0678,8.1519,8.2556,8.3642,8.4704,8.5481,8.6425,8.7498,8.8514,8.9861,9.1305,9.2349,9.4535,9.7149,9.7334,9.9007,10.1093,10.0883,10.1194,0.0,0.0,0.0,0.0,0.0,10.1289,0.0,0.0,0.0,0.0,10.1597,10.152,0.0,10.1404,10.1404,10.1289,10.1289,10.1289,10.1289,10.1289,10.1289,10.1289,10.1289,10.1289,10.1289,10.1289,10.1289,10.1289,10.1289,10.1289,10.1289,10.1289,10.1289,10.1289,10.1289,10.0611,9.9847,9.9065,9.9007,9.8978,9.889,9.889,9.8831,9.8742,9.8026,9.7661,9.7698,9.7727,9.775,9.7823,9.9328,9.9989,10.0099,10.098,10.1384,10.1384,10.1299,10.1413,10.1494,10.1494,10.1376,10.1515,10.3018,10.2732,10.1683,0.0,6.2381,6.2618,6.3396,6.4478,6.5527,6.6271,6.688,6.7252,6.7252,6.8802,7.024,7.1376,0.0,0.0,0.0,7.3735,7.3732,7.4354,7.4572,7.4625,7.4441,7.4588,7.5285,7.6632,7.6592,7.7235,7.8711,7.9173,7.9605,8.0046,8.0802,8.1417,8.1917,8.2845,8.3852,8.4918,8.5778,8.7303,8.9255,9.014,9.1488,9.3213,9.5299,9.6748,9.791,9.949,10.0198,10.0402,10.1303,10.151,10.138,0.0,0.0,0.0,10.1289,0.0,0.0,0.0,0.0,0.0,0.0,10.2904,0.0,10.2289,10.1789,10.1289,10.1289,10.1289,10.1289,10.1289,10.1289,10.1289,10.1289,10.1289,10.1289,10.1289,10.1289,10.1289,10.1289,10.1289,10.1289,10.1289,10.1289,10.1289,10.1289,10.0611,9.9847,9.9065,9.9007,9.8712,9.8058,9.8026,9.7729,9.7174,9.699,9.6915,9.6915,9.6947,9.6942,9.6979,9.7933,9.8374,9.8447,9.9879,10.0503,10.0496,10.0099,10.0524,10.1494,10.1494,10.0814,9.9998,10.1012,10.049,9.947,6.2381,6.2381,6.2753,6.3869,6.4952,6.6068,6.7184,6.8088,6.8802,6.9186,7.0814,7.2366,7.36,0.0,0.0,0.0,0.0,0.0,0.0,7.5506,7.5463,7.5421,7.5754,7.6483,7.7541,7.8088,7.8742,7.9515,8.0246,8.086,8.143,8.2046,8.2682,8.3323,8.3872,8.4569,8.5409,8.6266,8.8014,9.019,9.0696,9.2308,9.4553,9.6166,9.77,9.9123,10.0116,10.0623,10.0788,10.1487,10.1495,10.1289,10.1508,10.1419,10.1289,0.0,10.1597,10.1999,0.0,0.0,0.0,10.2623,10.199,0.0,0.0,10.1109,10.0798,10.0798,10.0973,10.1289,10.1289,10.099,10.0798,10.0798,10.0798,10.0798,10.0798,10.1109,10.1289,10.1289,10.1289,10.1289,10.1289,10.1289,10.099,10.0195,9.9428,9.8651,9.7897,9.783,9.7663,9.7245,9.7245,9.7064,9.6685,9.6685,9.6685,9.6685,9.6685,9.6685,9.6722,9.753,9.7897,9.7933,9.8473,9.8953,9.9232,9.8343,9.8601,9.9497,9.9497,9.9098,9.861,9.9397,9.8817,9.7745,6.2897,6.274,6.314,6.48,6.5567,6.6548,6.8178,6.9262,7.0201,7.1007,7.2491,7.4083,7.5646,0.0,0.0,0.0,0.0,0.0,0.0,0.0,7.6474,7.6372,7.7088,7.7766,7.8397,7.9526,8.0182,8.0366,8.1217,8.2057,8.2844,8.3304,8.3955,8.4681,8.496,8.5448,8.6125,8.7112,8.8987,9.1306,9.163,9.326,9.568,9.6822,9.8438,10.0096,10.0289,10.0712,10.1308,10.1506,10.1504,10.1289,10.1289,10.1289,0.0,0.0,0.0,0.0,0.0,0.0,0.0,0.0,10.1204,10.0487,0.0,0.0,0.0,9.9949,10.0398,10.0885,10.0885,10.0389,9.9936,9.9784,9.9898,9.9911,9.9784,10.0406,10.1008,10.1308,10.1289,10.1289,10.1289,10.119,10.0383,9.889,9.8188,9.7492,9.6724,9.6685,9.6685,9.6685,9.6685,9.6685,9.6685,9.6685,9.6685,9.6685,9.6685,9.657,9.6338,9.7036,9.7173,9.6932,9.6704,9.6949,9.7425,9.6419,9.6373,9.6972,9.7364,9.7349,9.7169,9.7854,9.7254,9.6089,6.4698,6.4113,6.4279,6.6602,6.6971,6.7753,7.0119,7.1186,7.2003,7.2818,7.3833,7.4853,7.5715,0.0,0.0,0.0,0.0,0.0,7.7163,0.0,0.0,7.8048,7.8641,7.9229,7.9874,8.001,8.0468,8.1259,8.2119,8.2805,8.3245,8.4052,8.4612,8.4882,8.5439,8.6176,8.7048,8.8428,9.0848,9.3788,9.4512,9.5454,9.6711,9.8871,9.9884,10.0173,10.0904,10.1212,10.1289,10.1308,10.1289,10.1289,10.1289,10.1289,10.1289,10.1289,0.0,0.0,0.0,0.0,0.0,10.3384,10.2516,10.1384,10.1384,0.0,9.915,9.915,0.0,9.9263,9.9263,0.0,0.0,9.8168,9.8659,9.8886,9.8168,9.8781,9.9783,10.1093,10.1289,10.1289,10.1289,10.0678,9.9653,9.8058,9.7827,9.7492,9.6724,9.6685,9.6685,9.6685,9.6685,9.6685,9.6685,9.6685,9.6685,9.6685,9.6685,9.6104,9.5012,9.5085,9.4567,9.3495,9.4184,9.448,9.4598,9.4632,9.4685,9.493,9.6801,9.6742,9.5762,9.5812,9.5018,9.3966,6.5098,6.4698,0.0,6.6984,6.7623,6.8572,7.0485,7.2371,7.3647,7.4115,7.5374,7.6332,7.6623,0.0,0.0,0.0,0.0,7.7855,0.0,0.0,0.0,0.0,7.9403,8.0008,8.0643,8.0792,8.128,8.2154,8.2742,8.3642,8.4806,8.5285,8.5742,8.622,8.6964,8.763,8.8293,8.9881,9.216,9.4756,9.6051,9.7401,9.8734,9.971,10.0404,10.0788,10.0689,10.0694,10.0589,10.0122,10.0319,10.0589,10.0122,10.0611,10.1093,10.0219,10.0416,0.0,0.0,10.1001,10.1588,10.1821,10.1009,10.0082,10.0082,9.9154,9.831,9.831,0.0,0.0,0.0,0.0,0.0,0.0,9.8086,9.8198,9.7861,9.8486,9.9263,9.9886,9.9961,9.9961,9.9961,9.9706,9.9036,9.786,9.7387,9.7027,9.6724,9.6685,9.6685,9.6685,9.6685,9.6685,9.6685,9.5947,9.5627,9.5586,9.4848,9.4212,9.3719,9.3719,9.3409,9.2884,9.2477,9.255,9.2903,9.2218,9.2471,9.3348,9.42,9.4502,9.442,9.442,9.4087,9.3571,6.6155,0.0,6.5886,6.7468,6.8019,6.8914,7.0972,7.323,7.4792,7.5195,7.643,7.7273,7.7273,7.7494,0.0,0.0,7.8584,7.8816,0.0,0.0,7.9964,0.0,0.0,0.0,0.0,8.2032,8.2466,8.3213,8.3738,8.4639,8.5885,8.6289,8.6647,8.7052,8.8092,8.8874,8.9475,9.1571,9.361,9.5501,9.696,9.8337,9.9534,9.9951,10.0408,10.0573,10.0087,9.9873,9.9758,9.9207,9.9373,9.9758,9.9179,9.9783,10.0383,9.9346,9.9679,10.0199,9.932,9.9783,10.0425,10.0112,9.9365,9.8778,9.8778,9.8134,9.7527,9.7527,9.7964,0.0,0.0,0.0,9.7787,9.7527,0.0,9.7676,9.723,9.7881,9.8529,9.8949,9.9007,9.892,9.8712,9.8682,9.8342,9.756,9.699,9.6685,9.6685,9.6685,9.6685,9.6685,9.6685,9.6531,9.6183,9.5265,9.4633,9.4292,9.3317,9.2706,9.237,9.237,9.2175,9.1815,9.0867,9.0792,9.1201,9.0503,9.0831,9.1846,9.2252,9.2759,9.33,9.3503,9.3571,9.3571,6.866,6.7484,6.6865,6.8558,6.8146,6.8736,7.1955,7.3832,7.5182,7.5946,7.679,7.7273,7.7273,7.8075,0.0,0.0,0.0,8.0358,7.9483,0.0,8.1344,0.0,0.0,8.2738,0.0,8.382,8.4058,8.4525,8.5391,8.5813,8.5824,8.6683,8.6964,8.6856,8.834,8.9462,9.0455,9.3572,9.546,9.6409,9.7333,9.7769,9.8045,9.9606,9.9732,9.9093,9.9065,9.9065,9.9036,9.9036,9.9036,9.9036,9.9036,9.9036,9.9065,9.9036,9.8467,9.8084,9.8873,9.8576,9.8193,9.8961,9.8521,9.7933,9.7933,9.7311,9.6724,9.6724,9.6762,9.702,9.7792,0.0,0.0,0.0,0.0,0.0,0.0,9.6284,9.7354,9.8831,9.9007,9.8712,9.7893,9.7864,9.7525,9.68,9.6685,9.6685,9.6685,9.6685,9.6685,9.6685,9.6685,9.6104,9.4848,9.4806,9.4168,9.2944,9.2944,9.2224,9.1074,9.1074,9.0376,8.924,8.9184,8.9184,8.9285,8.9918,9.0256,9.0425,9.1846,9.2455,9.2556,9.33,9.3571,9.3571,0.0,0.0,6.9206,7.0311,6.9803,7.0156,7.287,7.4221,7.5395,7.6717,7.7635,7.8369,7.8883,7.9213,7.9572,8.0036,0.0,8.1425,8.0994,8.2282,0.0,0.0,0.0,8.3369,0.0,0.0,8.456,8.5469,8.5876,8.6288,8.6675,8.6948,8.7209,8.7486,8.9113,9.0312,9.1184,9.3935,9.5614,9.6609,9.7999,9.8582,9.8583,9.8599,9.8743,9.8949,9.8405,9.8183,9.8156,9.7629,9.7797,9.8124,9.7629,9.8156,9.8802,9.78,9.7629,9.7769,9.7542,9.7687,9.797,9.8227,9.808,9.7897,9.7897,9.7273,9.6832,9.7383,9.7493,9.7566,9.7823,0.0,0.0,0.0,0.0,0.0,0.0,9.6539,9.6914,9.7424,9.7931,9.7931,9.7137,9.7008,9.6711,9.5954,9.5914,9.5914,9.5914,9.6428,9.6301,9.5467,9.5426,9.4848,9.3583,9.2706,9.2063,9.1615,9.0815,9.0143,8.9744,8.9744,8.9504,8.9072,8.9072,8.9072,8.9106,8.9342,8.9748,9.0142,8.9524,8.9779,9.071,9.1536,9.1835,9.1616,6.9706,6.9926,7.0257,7.077,7.0697,7.1138,7.2973,7.4441,7.5799,7.7127,7.8534,7.9563,8.008,8.0578,8.1065,8.1521,8.2496,8.2798,8.2051,8.3404,0.0,8.3141,8.3803,0.0,0.0,0.0,0.0,0.0,8.6484,8.6678,8.6997,8.6936,8.6982,8.721,8.9258,9.0462,9.114,9.4228,9.5767,9.6163,9.7005,9.7141,9.6879,9.6617,9.7405,9.8467,9.7698,9.7387,9.7353,9.6877,9.7027,9.7317,9.6839,9.7388,9.7997,9.699,9.7027,9.7317,9.6839,9.7089,9.7456,9.7456,9.7456,9.7456,9.7456,9.7052,9.6832,9.7346,9.7456,9.7566,9.7823,0.0,0.0,0.0,0.0,0.0,0.0,9.6685,9.6685,9.6685,9.7137,9.7246,9.6762,9.6398,9.6137,9.5953,9.5658,9.543,9.5261,9.5772,9.5426,9.4123,9.4123,9.3501,9.2224,9.1448,9.0763,9.0323,8.9449,8.9072,8.9072,8.9072,8.9072,8.9072,8.9072,8.9072,8.9072,8.9072,8.9026,8.8797,8.7958,8.7758,8.8173,8.9185,8.9739,8.9773,7.1174,7.077,7.0257,7.0257,7.0917,7.1688,7.2496,7.4654,7.652,7.7335,7.9443,8.0888,8.0888,8.2134,8.2982,8.3006,8.429,8.4434,8.2891,8.4181,0.0,0.0,8.4839,8.5845,8.7061,0.0,0.0,0.0,8.7228,8.6997,8.6791,8.6583,8.6398,8.6324,8.8825,9.0014,9.0448,9.4547,9.5928,9.528,9.4631,9.3896,9.3309,9.408,9.5769,9.7658,9.6916,9.6685,9.6685,9.6685,9.6685,9.6685,9.6685,9.6685,9.6685,9.6685,9.6685,9.6685,9.6685,9.6685,9.6685,9.6685,9.6685,9.6685,9.6685,9.6685,9.6722,9.6759,9.6759,9.6979,9.775,9.7897,0.0,0.0,0.0,0.0,9.6795,9.6647,9.6608,9.6608,9.6608,9.6608,9.6608,9.5913,9.573,9.6425,9.5765,9.5118,9.4704,9.4691,9.4087,9.2849,9.2802,9.2175,9.0919,9.0919,9.0304,8.9072,8.9072,8.9072,8.9072,8.9072,8.9072,8.9072,8.9072,8.9072,8.8959,8.8959,8.7969,8.6459,8.7089,8.6265,8.4983,8.6553,8.7381,8.7793,7.1284,7.2092,7.2789,7.2789,7.2936,7.3377,7.4184,7.6252,7.8248,7.9631,8.1297,8.2599,8.3238,8.3652,8.4056,8.4486,8.4885,8.5129,8.5197,0.0,0.0,8.5822,8.6193,8.6631,8.71,8.7104,0.0,8.718,8.7116,8.6936,8.6599,8.6517,8.7055,8.8094,8.9363,9.037,9.1293,9.3638,9.4594,9.4631,9.5036,9.5036,9.4821,9.5111,9.5917,9.691,9.6769,9.6685,9.6685,9.6685,9.6685,9.6685,9.6685,9.6685,9.6685,9.6685,9.6685,9.6685,9.6685,9.6685,9.6685,9.6685,9.6685,9.6685,9.6685,9.6685,9.6869,9.7456,9.7566,9.764,9.786,9.7897,0.0,0.0,0.0,0.0,0.0,9.5907,9.5301,9.5301,9.5301,9.5301,9.5301,9.4865,9.4326,9.3566,9.2804,9.2573,9.3001,9.2719,9.2236,9.1515,9.1499,9.0867,8.9614,8.9559,8.9428,8.9072,8.9072,8.9072,8.9072,8.9072,8.9072,8.9072,8.9072,8.8381,8.7143,8.7143,8.6179,8.4505,8.3408,8.2243,8.1491,8.4163,8.4121,8.2813,7.1835,7.2826,7.3817,7.4147,7.5056,7.5874,7.6289,7.7225,7.8573,8.0479,8.1707,8.2694,8.3562,8.4142,8.4798,8.5475,8.5657,8.5725,8.5689,8.6284,0.0,8.6268,8.67,8.697,8.7107,8.7108,0.0,8.698,0.0,8.6719,8.6519,8.6401,8.6801,8.7695,8.85,8.9307,9.0088,9.2156,9.3526,9.4336,9.4777,9.4742,0.0,9.5221,9.5516,9.569,9.6398,9.6685,9.6685,9.6685,9.6685,9.6685,9.6685,9.6685,9.6685,9.6685,9.6685,9.6685,9.6685,9.6685,9.6685,9.6685,9.6685,9.6685,9.6685,9.6685,9.6832,9.7273,9.7383,9.7383,9.7383,9.7383,9.7236,0.0,0.0,0.0,9.5866,9.4763,9.3945,9.3945,9.3945,9.3765,9.3178,9.3851,9.3686,9.2251,9.1631,9.1282,9.1331,9.1092,9.0748,9.0162,9.0143,8.9799,8.9072,8.9072,8.9072,8.9072,8.9072,8.9072,8.9072,8.829,8.7969,8.7911,8.7176,8.6332,8.5444,8.5444,8.4409,8.2692,8.0963,7.987,7.9622,8.1672,8.1928,8.1302,7.2749,7.3484,7.4396,7.5066,7.7079,7.8633,7.885,7.8462,7.8895,8.0912,8.1807,8.2513,8.3081,8.4289,8.5286,8.5901,8.6268,8.617,8.5434,8.6292,8.6624,8.609,8.674,8.7106,8.7108,8.7052,8.6974,0.0,8.6572,8.6494,8.6442,8.613,8.6086,8.6358,8.7111,8.7739,8.832,9.0762,9.2648,9.3969,9.4189,9.3859,9.3418,9.4923,9.507,9.463,9.6171,9.6685,9.6685,9.6685,9.6685,9.6685,9.6685,9.6685,9.6685,9.6685,9.6685,9.6685,9.6685,9.6685,9.6685,9.6685,9.6685,9.6685,9.6685,9.6685,9.6685,9.6685,9.6685,9.6685,9.6685,9.6685,9.6647,0.0,9.5668,9.4934,9.4633,9.3628,9.2849,9.2659,9.2659,0.0,9.0867,9.2709,9.3302,9.1646,9.1077,9.0517,8.9789,8.9587,8.9376,8.8959,8.9038,8.9072,8.9072,8.9072,8.9072,8.9072,8.8869,8.8756,8.87,8.6965,8.6179,8.6118,8.4599,8.3866,8.3673,8.3673,8.2626,8.0894,7.9374,7.8789,7.8878,7.9567,8.0554,8.1452,7.4078,7.5442,7.6547,7.6696,7.8603,8.0528,8.1761,8.2385,8.2895,8.3286,8.4519,8.5123,8.4624,8.5339,8.567,8.517,8.5959,8.6441,8.6286,8.6748,8.7004,8.687,8.7031,8.7102,8.7104,8.6949,8.6765,0.0,8.6505,8.6401,8.6153,8.557,8.566,8.6396,8.6668,8.7625,8.9169,9.1018,9.195,9.2354,9.3749,9.4226,9.4189,9.5144,9.5437,9.5437,9.6355,9.6685,9.6685,9.6685,9.6685,9.6685,9.6685,9.6685,9.6685,9.6685,9.6685,9.6685,9.6685,9.6685,9.6685,9.6685,9.6685,9.6685,9.6685,9.6685,9.6685,9.6685,9.6685,9.6685,9.6685,9.6685,9.6377,9.5265,9.583,9.5631,9.3501,9.3038,9.2515,9.1499,9.1347,9.0815,8.9559,9.1074,9.1586,9.0264,8.9004,8.8419,8.8909,8.7996,8.7654,8.8158,8.8767,8.9072,8.9072,8.9072,8.9072,8.9072,8.7645,8.6965,8.6872,8.5196,8.4442,8.4442,8.4123,8.3152,8.1886,8.1886,8.0825,7.9261,7.8933,7.8789,7.8878,7.9567,7.9956,8.0285,7.619,7.7003,7.7828,7.8691,8.0409,8.2032,8.3138,8.4309,8.4767,8.4019,8.4156,8.4363,8.4363,8.512,8.5685,8.5724,8.6376,8.6825,8.6825,8.7139,8.7257,8.7109,8.7113,8.7003,8.6808,8.669,8.6514,8.6274,8.6274,8.606,8.557,8.5242,8.518,8.5386,8.5938,8.7384,8.9448,9.066,9.1913,9.3198,9.4446,9.4923,9.4997,9.5841,9.5878,9.5621,9.6428,9.6685,9.6685,9.6685,9.6685,9.6685,9.6685,9.6685,9.6685,9.6685,9.6685,9.6685,9.6685,9.6685,9.6685,9.6685,9.6685,9.6685,9.6685,9.6685,9.6685,9.6685,9.6685,9.6685,9.6685,9.6685,9.6262,9.5012,9.4763,9.4079,9.2175,9.1312,9.071,9.0089,8.9674,8.9198,8.8552,8.8927,8.8967,8.8357,8.783,8.7483,8.7227,8.6642,8.6839,8.7955,8.8328,8.8239,8.7795,8.7737,8.7353,8.6453,8.5629,8.5196,8.5133,8.3413,8.2626,8.2559,8.172,8.0825,8.0051,8.0051,7.9587,7.8789,7.8789,7.8789,7.8819,7.9178,7.9297,7.9537,7.8268,7.8592,7.9198,8.0712,8.2174,8.341,8.4058,8.5335,8.5731,8.4519,8.3887,8.3693,8.4153,8.499,8.5735,8.6239,8.6792,8.7104,8.7104,8.7299,8.7327,8.7108,8.7013,8.6802,8.6531,8.6442,8.6303,8.6094,8.6094,8.5775,8.5121,8.4957,8.4756,8.4495,8.557,8.7215,8.9234,9.0372,9.2097,9.4116,9.5107,9.5621,9.5841,9.6465,9.6318,9.5841,9.6465,9.6685,9.6685,9.6502,9.6575,9.6685,9.6685,9.6685,9.6685,9.6685,9.6685,9.6685,9.6685,9.6685,9.6685,9.6685,9.6685,9.6685,9.6685,9.6685,9.6685,9.6685,9.6685,9.6608,9.6377,9.6299,9.5907,9.4597,9.3547,9.2467,9.1194,9.0143,8.936,8.8925,8.8328,8.7888,8.755,8.7008,8.6392,8.5725,8.6471,8.6543,8.5607,8.5554,8.5966,8.697,8.7251,8.6945,8.5996,8.5996,8.532,8.3995,8.3608,8.3478,8.3413,8.1683,8.0825,8.0756,7.9374,7.8789,7.8789,7.8789,7.8789,7.8789,7.8789,7.8789,7.8819,7.8938,7.8908,7.9058,7.9662,8.0542,8.1362,8.2335,8.3693,8.4773,8.5023,8.5875,8.6349,8.594,8.6028,8.5888,8.5153,8.6037,8.6355,8.5663,8.6518,8.7104,8.7104,8.7106,8.7116,8.7104,8.6756,8.6541,8.6519,8.6268,8.6126,8.6094,8.6094,8.5775,8.51,8.4537,8.4366,8.4636,8.6221,8.7435,8.8463,9.0776,9.2317,9.3345,9.4887,9.5951,9.6612,9.6685,9.6649,9.6612,9.6685,9.6685,9.6575,9.5878,9.6098,9.6685,9.6685,9.6685,9.6685,9.6685,9.6685,9.6685,9.6685,9.6685,9.6685,9.6685,9.6685,9.6685,9.6685,9.6685,9.6685,9.6685,9.6685,9.6377,9.5181,9.497,9.4554,9.3271,9.2991,9.2467,9.1194,9.0919,9.0135,8.8325,8.8023,8.7482,8.6129,8.5926,8.4762,8.1933,8.3678,8.4848,8.4809,8.4776,8.4396,8.3656,8.4944,8.5155,8.4251,8.4251,8.4187,8.3995,8.2391,8.1683,8.1615,7.9839,7.9046,7.9046,7.8861,7.8789,7.8789,7.8789,7.8789,7.8789,7.8789,7.8789,7.8878,7.9477,7.9327,7.8998,8.0605,8.1084,8.1831,8.3194,8.4005,8.4865,8.599,8.6477,8.663,8.651,8.6599,8.6554,8.6205,8.6646,8.683,8.6479,8.6981,8.7261,8.7107,8.7108,8.6997,8.6756,8.6572,8.6416,8.6268,8.5752,8.5514,8.5514,8.5514,8.4957,8.3941,8.4129,8.4358,8.4682,8.6297,8.7986,8.9784,9.1767,9.3345,9.4554,9.4919,9.5732,9.6608,9.5866,9.5549,9.5549,9.5549,9.4771,9.3712,9.3424,9.4283,9.5636,9.5906,9.5781,9.5599,9.5906,9.6318,9.6575,9.6098,9.5988,9.5988,9.5988,9.5621,9.5254,9.5254,9.5254,9.5254,9.5254,9.5658,9.5606,9.4331,9.4481,9.4159,9.2112,9.1766,9.1347,9.0036,8.9477,8.8885,8.8079,8.7211,8.6264,8.5182,8.4674,8.3363,8.0718,8.1791,8.2555,8.2588,8.1685,8.1976,8.3819,8.3095,8.2615,8.2427,8.2018,8.1486,8.0863,8.016,7.9839,7.9839,7.9118,7.8789,7.8789,7.8789,7.8789,7.8789,7.8789,7.8789,7.8789,7.8789,7.8789,7.8674,7.7652,7.7119,7.6795,8.1605,8.1976,8.2665,8.4111,8.4689,8.5393,8.6707,8.6909,8.6929,8.7019,8.7025,8.6968,8.6916,8.7087,8.7194,8.7094,8.7265,8.7277,8.7019,8.6968,8.6817,8.6505,8.6416,8.6191,8.5828,8.534,8.4999,8.4828,8.4828,8.4263,8.3218,8.3947,8.4674,8.538,8.6995,8.8793,9.0702,9.2391,9.3896,9.5103,9.4612,9.5125,9.5987,9.472,9.4104,9.3889,9.3889,9.2862,9.142,9.1208,9.1956,9.3229,9.4131,9.4036,9.3712,9.4255,9.4827,9.5081,9.4281,9.4482,9.4901,9.4646,9.4439,9.4188,9.3846,9.3771,9.3694,9.3307,9.3975,9.414,9.2486,9.2648,9.2457,9.0635,9.0002,8.9598,8.9096,8.8231,8.7516,8.7042,8.6298,8.5317,8.4099,8.349,8.204,7.9313,7.9397,7.9724,8.0182,7.9048,7.9653,8.2159,8.1055,8.0383,8.0311,8.0035,7.9564,7.8789,7.8789,7.8789,7.8789,7.8789,7.8789,7.8789,7.8789,7.8789,7.8789,7.8789,7.8789,7.8789,7.8789,7.8397,7.7681,7.6155,7.5221,7.4456,8.279,8.361,8.4435,8.5321,8.6186,8.6848,8.7043,8.7104,8.7176,8.746,8.75,8.7376,8.7112,8.733,8.7377,8.7116,8.7108,8.7013,8.6833,8.6627,8.6531,8.6519,8.6238,8.5811,8.5141,8.5121,8.4806,8.4203,8.4203,8.385,8.3227,8.4152,8.5416,8.7068,8.8683,8.9858,9.0702,9.2391,9.3565,9.4261,9.3819,9.4084,9.4677,9.3409,9.2483,9.181,9.181,9.136,9.0581,8.9791,8.9247,8.9225,9.1187,9.1325,9.091,9.1644,9.1857,9.1679,9.0946,9.2191,9.3434,9.2718,9.3422,9.3961,9.2786,9.2502,9.2171,9.1006,9.1706,9.1785,8.9333,8.8871,8.8871,8.8821,8.7773,8.7415,8.8653,8.772,8.6366,8.4843,8.5317,8.4911,8.2644,8.2441,8.0809,7.7023,7.6053,7.6278,7.7687,7.7691,7.7577,7.729,7.8587,7.8862,7.7872,7.8531,7.8789,7.8789,7.8789,7.8789,7.8789,7.8789,7.8789,7.8789,7.8789,7.8789,7.8789,7.8789,7.8789,7.8789,7.8789,7.7505,7.5628,7.56,7.4302,7.2506,8.2053,8.2442,8.3142,8.4624,8.5239,8.591,8.7177,8.7374,8.7343,8.7236,8.7228,8.7137,8.6905,8.7092,8.7151,8.689,8.6916,8.6825,8.6605,8.6541,8.6416,8.6223,8.5716,8.532,8.5121,8.4239,8.372,8.3515,8.4077,8.4498,8.4836,8.5226,8.5967,8.7068,8.8683,9.0152,9.1437,9.1747,9.2631,9.3665,9.1843,9.1764,9.2616,9.1354,9.0408,8.9745,8.9745,8.8697,8.7349,8.7057,8.6508,8.618,8.7315,8.8477,8.952,9.0092,9.0606,9.09,9.012,9.0311,9.0766,9.0517,9.0315,9.0015,8.9669,8.9582,8.9449,8.9057,8.9787,8.9953,8.8271,8.8424,8.8517,8.7667,8.7145,8.7037,8.7454,8.6758,8.596,8.5486,8.5182,8.4505,8.3287,8.1732,7.9671,7.6933,7.5055,7.4646,7.6086,7.5084,7.5467,7.7906,7.6873,7.6809,7.7801,7.7562,7.7921,7.8789,7.8789,7.8789,7.8789,7.8789,7.8789,7.8789,7.8789,7.8789,7.8789,7.8789,7.8789,7.8644,7.721,7.6155,7.5221,7.2372,7.088,7.0095,8.1899,8.2553,8.3445,8.4502,8.5345,8.621,8.7218,8.7332,8.7272,8.7008,8.6991,8.6929,8.671,8.6817,8.6802,8.669,8.6681,8.6594,8.6349,8.6099,8.5896,8.5719,8.51,8.4651,8.4382,8.3586,8.3082,8.2823,8.3638,8.4571,8.5682,8.5758,8.6554,8.7914,8.8472,8.9639,9.1059,9.0424,9.0853,9.1905,8.987,8.9702,9.0533,8.9259,8.8329,8.7676,8.7676,8.6692,8.5351,8.5351,8.5046,8.4708,8.5182,8.6227,8.7349,8.7958,8.8447,8.8705,8.7889,8.8226,8.8697,8.8428,8.8295,8.8088,8.7631,8.7492,8.7434,8.6913,8.7631,8.7933,8.6711,8.6869,8.6953,8.6189,8.6061,8.596,8.5655,8.5215,8.4809,8.4539,8.4336,8.4031,8.3524,8.1953,7.9914,7.7318,7.5273,7.4219,7.4479,7.3461,7.4208,7.6916,7.5904,7.5976,7.7442,7.7293,7.7741,7.8789,7.8789,7.8789,7.8789,7.8789,7.8789,7.8789,7.8789,7.8789,7.8717,7.7901,7.7608,7.7358,7.5221,7.3965,7.2923,7.0231,6.8804,6.7938,8.2342,8.3711,8.4882,8.496,8.6288,8.7294,8.7108,8.7091,8.7008,8.6825,8.6791,8.67,8.648,8.6481,8.643,8.6404,8.6468,8.6335,8.6038,8.5475,8.51,8.502,8.4467,8.3824,8.3218,8.3132,8.286,8.237,8.3141,8.4315,8.5857,8.5857,8.707,8.9165,8.8051,8.841,8.9693,8.8543,8.8583,8.9279,8.7987,8.7927,8.8448,8.7279,8.6366,8.5723,8.5723,8.5249,8.464,8.464,8.464,8.464,8.464,8.464,8.4776,8.5486,8.5723,8.5554,8.4809,8.5994,8.7235,8.6474,8.7151,8.7631,8.6561,8.6266,8.5953,8.477,8.5446,8.5834,8.4649,8.4471,8.4471,8.4471,8.4471,8.4234,8.3524,8.3422,8.3186,8.2543,8.3084,8.3524,8.3558,8.269,8.0859,7.8014,7.6262,7.4554,7.2967,7.2924,7.3522,7.4839,7.5497,7.6125,7.6754,7.7412,7.81,7.8789,7.8789,7.8789,7.8789,7.8789,7.8789,7.8789,7.8644,7.8542,7.8397,7.6259,7.5372,7.5145,7.3108,7.1068,6.9274,6.9135,6.777,6.6112,8.3281,8.4048,8.4873,8.5498,8.582,8.6196,8.6777,8.6848,8.6817,8.6594,8.6549,8.6468,8.6208,8.62,8.5995,8.5474,8.589,8.5945,8.5379,8.5182,8.4893,8.4443,8.3772,8.335,8.3189,8.2708,8.2932,8.4022,8.4242,8.5159,8.6738,8.6738,8.6901,8.7179,8.7486,8.7644,8.7726,8.7106,8.7304,8.7938,8.6714,8.636,8.6477,8.6189,8.5587,8.4911,8.4911,8.4776,8.464,8.464,8.464,8.464,8.464,8.464,8.4674,8.4843,8.4911,8.4843,8.4674,8.4954,8.5252,8.5082,8.524,8.5395,8.5066,8.5014,8.4773,8.3915,8.3989,8.3942,8.3069,8.2949,8.2949,8.2949,8.2949,8.2881,8.2678,8.2678,8.2813,8.3186,8.3389,8.3727,8.4302,8.1005,7.8629,7.7837,7.419,7.227,7.2834,7.2924,7.3522,7.4839,7.5018,7.5437,7.6125,7.6754,7.7652,7.8789,7.8789,7.8789,7.8789,7.8789,7.8789,7.8717,7.7033,7.6334,7.6184,7.407,7.3186,7.303,7.088,6.9768,6.9135,6.7459,6.6515,6.6112,8.3806,8.4483,8.513,8.5603,8.5913,8.6229,8.6583,8.6651,8.6583,8.636,8.6317,8.6154,8.57,8.5645,8.5379,8.474,8.528,8.536,8.474,8.4382,8.4104,8.3746,8.3074,8.2732,8.2732,8.2407,8.2994,8.4609,8.4609,8.5174,8.6247,8.6247,8.6197,8.6209,8.6055,8.6303,8.6709,8.593,8.5806,8.6166,8.5536,8.5249,8.5249,8.5249,8.4979,8.464,8.464,8.464,8.464,8.464,8.464,8.464,8.464,8.464,8.464,8.464,8.464,8.464,8.464,8.464,8.464,8.464,8.464,8.4539,8.42,8.4099,8.3896,8.3152,8.3016,8.2881,8.2475,8.2408,8.2408,8.2408,8.2408,8.2306,8.1934,8.19,8.2171,8.2915,8.2335,8.2227,8.2962,7.9855,7.7326,7.6348,7.388,7.2573,7.2864,7.3193,7.3821,7.4839,7.4869,7.5347,7.6305,7.7263,7.8071,7.8789,7.8789,7.8789,7.8789,7.8789,7.8222,7.7284,7.608,7.5068,7.4042,7.1923,7.1068,7.0826,6.8664,6.7854,6.7712,6.6515,6.6112,6.6112,8.4264,8.5063,8.5667,8.5667,8.6223,8.663,8.6481,8.6351,8.6211,8.5967,8.5846,8.5608,8.5037,8.4957,8.4718,8.4104,8.4537,8.4605,8.408,8.3515,8.3132,8.3053,8.2497,8.2186,8.2186,8.2018,8.2825,8.4609,8.4264,8.45,8.5278,8.5123,8.5161,8.5437,8.4483,8.4779,8.588,8.498,8.464,8.464,8.464,8.464,8.464,8.464,8.464,8.464,8.464,8.464,8.464,8.464,8.464,8.464,8.464,8.464,8.464,8.464,8.464,8.464,8.464,8.464,8.464,8.464,8.464,8.4437,8.3659,8.349,8.3253,8.2408,8.2238,8.2205,8.2103,8.2069,8.2069,8.2069,8.1968,8.1731,8.119,8.1021,8.1206,8.1791,8.0672,8.0076,8.0786,7.8661,7.6443,7.4656,7.4035,7.3492,7.293,7.3432,7.4091,7.4869,7.4869,7.5497,7.6814,7.7921,7.8579,7.8789,7.8789,7.8614,7.8325,7.8325,7.7107,7.5145,7.4811,7.3654,7.187,6.9686,6.8804,6.8664,6.6831,6.6112,6.6112,6.6112,6.6112,6.6112,8.5135,8.5864,8.6359,8.6359,8.6271,8.6192,8.6168,8.5678,8.5303,8.5242,8.4806,8.4443,8.4349,8.4349,8.408,8.3405,8.3433,8.3461,8.335,8.3275,8.2935,8.2375,8.2251,8.2186,8.2186,8.1299,8.2064,8.4609,8.2744,8.2994,8.5278,8.433,8.3692,8.3461,8.3898,8.4048,8.3974,8.4389,8.464,8.464,8.464,8.464,8.464,8.464,8.464,8.464,8.464,8.464,8.464,8.464,8.464,8.464,8.464,8.464,8.464,8.464,8.464,8.464,8.464,8.464,8.464,8.464,8.464,8.4437,8.3659,8.349,8.3118,8.1731,8.146,8.1257,8.0648,8.0547,8.0547,8.0547,8.004,7.9803,8.031,7.9837,7.9499,7.9546,7.9298,7.9149,7.9183,7.6604,7.4998,7.5152,7.2806,7.1838,7.2864,7.3013,7.3612,7.4839,7.4869,7.5497,7.6814,7.7023,7.7682,7.8789,7.8789,7.7828,7.608,7.608,7.4992,7.2873,7.1041,7.0068,6.9603,6.7459,6.6601,6.6601,6.6197,6.6112,6.6112,6.6112,6.6112,6.6112,8.5693,8.6064,8.6259,8.6259,8.6184,8.5971,8.5627,8.532,8.4957,8.4651,8.4372,8.4054,8.3704,8.3677,8.3378,8.2702,8.2678,8.2678,8.2678,8.2678,8.2528,8.2219,8.2186,8.1919,8.137,8.0292,8.0567,8.2244,8.1595,8.1844,8.2857,8.2717,8.2685,8.271,8.3052,8.3517,8.4133,8.4471,8.464,8.464,8.464,8.464,8.464,8.464,8.464,8.464,8.464,8.464,8.464,8.464,8.464,8.464,8.464,8.464,8.464,8.464,8.4336,8.4031,8.4031,8.4031,8.393,8.3524,8.3727,8.3727,8.2577,8.2306,8.2002,8.0919,8.0716,8.0581,8.0242,8.0209,8.0073,7.9667,7.9667,7.9667,7.9634,7.8906,7.8597,7.8947,7.7471,7.6446,7.6421,7.4342,7.3172,7.3446,7.2546,7.2415,7.3402,7.3762,7.424,7.4869,7.5228,7.5338,7.5128,7.5509,7.5581,7.5401,7.5401,7.4868,7.3887,7.3887,7.2794,7.0718,6.9768,6.8664,6.7459,6.6515,6.6112,6.6112,6.6112,6.6112,6.6112,6.6112,6.6112,6.6112,8.5966,8.6094,8.606,8.5881,8.5864,8.5664,8.4978,8.4762,8.4475,8.4042,8.3798,8.3543,8.3024,8.2965,8.2763,8.2251,8.2186,8.2121,8.1815,8.1852,8.1852,8.1852,8.1576,8.1089,8.0255,7.9183,7.9199,8.0475,8.0535,8.0701,8.1043,8.1353,8.185,8.2408,8.2408,8.3219,8.464,8.464,8.464,8.464,8.464,8.464,8.464,8.464,8.464,8.464,8.464,8.464,8.464,8.464,8.464,8.464,8.464,8.464,8.464,8.464,8.3964,8.3253,8.3253,8.3253,8.3118,8.2543,8.2847,8.2915,8.1596,8.1291,8.1088,8.0344,8.0209,8.0209,8.0209,8.0209,8.0006,7.9464,7.9701,7.9702,7.8909,7.8145,7.761,7.7664,7.5494,7.3974,7.3814,7.2543,7.1787,7.2116,7.2475,7.3043,7.3851,7.392,7.3803,7.3533,7.4562,7.4441,7.3015,7.3613,7.3478,7.2506,7.2506,7.2268,7.1791,7.1791,7.0583,6.8581,6.8581,6.7627,6.6112,6.6112,6.6112,6.6112,6.6112,6.6112,6.6112,6.6112,6.6112,6.6112,8.594,8.6094,8.5881,8.5262,8.5182,8.4957,8.4349,8.372,8.3294,8.3275,8.2732,8.2311,8.2284,8.2284,8.2251,8.2186,8.2186,8.1782,8.0768,8.0732,8.0732,8.0732,7.9765,7.9183,7.9103,7.8034,7.8648,8.1213,7.92,7.9461,8.1806,8.0819,8.1089,8.2408,8.2408,8.3219,8.464,8.464,8.464,8.464,8.464,8.464,8.464,8.464,8.464,8.464,8.464,8.464,8.464,8.464,8.464,8.464,8.464,8.464,8.464,8.464,8.3592,8.2475,8.2475,8.2475,8.2475,8.2408,8.2441,8.2272,8.146,8.1291,8.1088,8.0344,8.0209,8.0209,8.0209,8.0209,8.0175,8.0141,7.96,7.8909,7.8126,7.7342,7.6089,7.3959,7.3538,7.3012,7.2179,7.1403,7.1487,7.2744,7.2295,7.2535,7.3821,7.2145,7.0606,6.9412,7.1658,7.2285,7.0914,7.1496,7.2027,7.2506,7.2506,7.1443,6.9521,6.9521,6.8331,6.6344,6.6344,6.6283,6.6112,6.6112,6.6112,6.6112,6.6112,6.6112,6.6112,6.6112,6.6112,6.6112,8.5418,8.52,8.4866,8.4583,8.4537,8.4325,8.3704,8.335,8.3053,8.2647,8.2375,8.2186,8.2186,8.2186,8.1919,8.1264,8.1195,8.0768,7.9688,7.8943,7.8903,7.9575,7.8536,7.7949,7.7949,7.7398,7.7535,7.8592,7.8667,7.917,8.017,8.0189,8.0987,8.2408,8.2408,8.3219,8.464,8.464,8.464,8.464,8.464,8.464,8.464,8.464,8.464,8.464,8.464,8.464,8.464,8.464,8.464,8.464,8.464,8.464,8.4437,8.3524,8.2847,8.2205,8.1291,8.1359,8.1596,8.1156,8.1393,8.1528,8.0784,8.0615,8.0547,8.0242,8.0209,8.0209,8.0209,8.0209,7.9753,7.8341,7.825,7.7775,7.6043,7.5067,7.421,7.3321,7.2362,7.1658,7.1313,7.1038,7.1457,7.2804,7.1491,7.1257,7.2573,7.0762,6.9029,6.7598,6.8787,6.9194,6.8729,6.924,6.9183,6.8524,6.8524,6.8106,6.7315,6.7315,6.6916,6.6112,6.6112,6.6112,6.6112,6.6112,6.6112,6.6112,6.6112,6.6112,6.6112,6.6112,6.6112,6.594,8.4806,8.449,8.4129,8.3902,8.3876,8.3677,8.2994,8.2913,8.2702,8.2284,8.1919,8.1715,8.1715,8.1405,8.0911,8.0144,8.0069,7.9614,7.8536,7.7424,7.7115,7.7907,7.7204,7.6792,7.6792,7.6849,7.6995,7.7232,7.8483,7.9228,7.9464,7.9972,8.0851,8.2069,8.2306,8.3118,8.4302,8.4539,8.464,8.464,8.464,8.464,8.464,8.464,8.464,8.464,8.464,8.464,8.464,8.464,8.464,8.464,8.464,8.4471,8.4065,8.305,8.2408,8.1832,8.0818,8.0885,8.1156,8.0648,8.075,8.0885,8.0615,8.0378,8.0209,8.0209,8.0209,8.0023,7.958,7.9327,7.856,7.6758,7.6703,7.6182,7.4421,7.3586,7.3046,7.2519,7.1537,7.0889,7.0889,7.0337,7.0541,7.1871,7.0123,6.9264,6.9995,6.8662,6.7279,6.5782,6.6273,6.6636,6.6818,6.7307,6.7074,6.6112,6.6112,6.6112,6.6112,6.6112,6.6112,6.6112,6.6112,6.6112,6.6112,6.6112,6.6112,6.6112,6.6112,6.5656,6.4938,6.4938,6.4478,6.3554,8.4179,8.4179,8.3979,8.3331,8.3189,8.2965,8.2279,8.2186,8.2186,8.2186,8.123,8.0623,8.0623,7.965,7.8983,7.8983,7.8983,7.8494,7.7345,7.6312,7.5709,7.5709,7.5709,7.5709,7.5709,7.6487,7.7266,7.7976,7.8754,7.9498,8.0209,8.0209,8.0581,8.1325,8.2069,8.2813,8.3558,8.4302,8.464,8.464,8.464,8.464,8.464,8.464,8.464,8.464,8.464,8.464,8.464,8.464,8.464,8.4606,8.4606,8.4099,8.349,8.349,8.2441,8.1291,8.1291,8.1291,8.1291,8.1291,8.075,8.0412,8.1122,8.0716,8.0209,8.0209,8.0209,7.9734,7.8151,7.7342,7.6594,7.5681,7.5003,7.4262,7.3412,7.3292,7.2674,7.1083,7.0889,7.0889,7.0889,6.9153,6.8561,6.9799,6.8053,6.6672,6.5869,6.5765,6.5156,6.3759,6.4203,6.4731,6.5283,6.5835,6.6112,6.6112,6.6112,6.6112,6.6112,6.6112,6.6112,6.6112,6.6112,6.6112,6.6112,6.6112,6.6112,6.6112,6.6026,6.4566,6.2469,6.2469,6.0926,5.8814,8.3488,8.3103,8.2732,8.2528,8.2497,8.2402,8.2219,8.1542,8.1089,8.1089,8.0144,7.9458,7.9458,7.9183,7.87,7.7864,7.7822,7.7336,7.6219,7.5865,7.5709,7.5709,7.5709,7.5709,7.5709,7.6995,7.7773,7.7976,7.9261,7.9972,8.0209,8.0209,8.0581,8.1325,8.2069,8.2813,8.3558,8.4302,8.464,8.464,8.464,8.464,8.464,8.464,8.464,8.464,8.464,8.464,8.464,8.464,8.4268,8.3761,8.3219,8.3253,8.3389,8.2881,8.2035,8.1291,8.1291,8.0919,8.0513,8.0513,8.075,8.0885,8.0581,8.0344,7.9887,7.8802,7.8212,7.7424,7.589,7.503,7.4325,7.3442,7.3142,7.2668,7.1764,7.1631,7.1439,7.0954,6.9715,6.8952,6.8952,6.7203,6.6594,6.7797,6.6767,6.5474,6.3801,6.3665,6.3879,6.4287,6.4379,6.4931,6.586,6.6036,6.6112,6.6112,6.6112,6.6112,6.6112,6.6112,6.6112,6.6112,6.6112,6.6112,6.594,6.4279,6.3554,6.3378,6.1644,6.0542,5.9908,5.9908,5.9454,5.8539,8.2793,8.2465,8.2186,8.2186,8.1852,8.1542,8.1542,8.0659,7.9956,7.9956,7.9023,7.8328,7.8328,7.7949,7.7424,7.6701,7.669,7.6404,7.5723,7.5709,7.5709,7.5709,7.5709,7.5845,7.6183,7.7367,7.8145,7.845,7.96,8.0209,8.0209,8.0209,8.0581,8.1325,8.2069,8.2813,8.3558,8.4302,8.464,8.464,8.464,8.464,8.464,8.464,8.4437,8.42,8.4505,8.4437,8.4167,8.4167,8.3862,8.3456,8.3321,8.3389,8.3355,8.2644,8.1866,8.1291,8.1291,8.0953,8.0648,8.0648,8.075,8.0818,8.0648,7.9936,7.9046,7.8097,7.7085,7.5932,7.4363,7.3533,7.2755,7.1906,7.1567,7.1285,7.0929,7.0889,7.0629,6.9847,6.8788,6.781,6.7025,6.5214,6.4289,6.4652,6.4665,6.4123,6.2822,6.2822,6.3249,6.4128,6.4153,6.468,6.5785,6.5785,6.5886,6.6112,6.6112,6.6112,6.6112,6.6112,6.6112,6.6026,6.5112,6.4653,6.4478,6.2001,6.1016,6.0926,5.9362,5.8171,5.7339,5.7339,5.6688,5.568,8.2186,8.2121,8.2088,8.2088,8.116,8.044,8.044,7.9536,7.8862,7.8862,7.7864,7.716,7.716,7.6266,7.5709,7.5709,7.5709,7.5709,7.5709,7.5709,7.5709,7.5709,7.5709,7.6115,7.6961,7.7638,7.8348,7.9126,7.9837,8.0209,8.0209,8.0209,8.0547,8.1224,8.2035,8.278,8.3456,8.4268,8.464,8.464,8.464,8.4573,8.4539,8.4539,8.3993,8.3399,8.4215,8.3993,8.3399,8.3471,8.3418,8.3448,8.4021,8.3751,8.311,8.2402,8.1797,8.1359,8.1291,8.1291,8.1257,8.1036,8.0496,8.0192,8.0867,7.9408,7.7828,7.7555,7.6346,7.4844,7.3321,7.2458,7.1752,7.0938,7.035,7.0136,7.0604,7.0629,6.9913,6.8083,6.7673,6.6886,6.5143,6.3326,6.1988,6.1248,6.2195,6.2822,6.2822,6.2822,6.3099,6.3676,6.3701,6.4203,6.5283,6.5283,6.5559,6.6112,6.6112,6.6112,6.6112,6.5853,6.5742,6.5656,6.3201,6.2202,6.2024,5.9454,5.8447,5.8447,5.8263,5.6781,5.4737,5.4737,5.3371,5.1426,8.2186,8.1508,8.0947,8.0947,8.0069,7.9341,7.9341,7.8411,7.765,7.765,7.6701,7.6067,7.6067,7.5865,7.5709,7.5709,7.5709,7.5709,7.5709,7.5709,7.5709,7.5709,7.5709,7.6352,7.7705,7.7908,7.8348,7.9126,7.9837,8.0209,8.0209,8.0209,8.0276,8.0479,8.1832,8.2509,8.2746,8.4065,8.464,8.464,8.464,8.4268,8.3727,8.3727,8.2865,8.1791,8.3201,8.318,8.261,8.3288,8.3046,8.2287,8.1326,8.126,8.1459,8.073,8.131,8.2035,8.146,8.1291,8.0865,7.9063,7.8531,7.8431,7.8597,7.823,7.7193,7.4762,7.3612,7.2547,7.1001,7.0172,6.9835,7.0145,7.0081,6.9719,6.8864,6.8721,6.8015,6.6062,6.4526,6.3465,6.3025,6.2069,6.1363,6.1245,6.2195,6.2822,6.2822,6.2822,6.3099,6.3676,6.3701,6.4203,6.5283,6.5283,6.5559,6.6112,6.6112,6.6112,6.6026,6.4104,6.329,6.3113,6.0632,5.9636,5.9454,5.6968,5.594,5.5753,5.3733,5.2624,5.2161,5.2161,5.1891,5.1426,8.1439,8.055,7.9842,7.9842,7.8943,7.8203,7.8203,7.7248,7.6554,7.6554,7.6067,7.5709,7.5709,7.5709,7.5709,7.5709,7.5709,7.5709,7.5709,7.5709,7.5879,7.6251,7.5552,7.584,7.7394,7.7461,7.8135,7.9634,8.0006,8.0209,8.0209,8.0209,8.0581,8.1291,8.2069,8.2177,8.1892,8.2661,8.2378,8.1345,8.1345,8.1114,8.0817,8.1147,8.0541,7.9683,8.1204,8.118,8.0626,8.1467,8.118,8.0386,7.9996,8.0159,8.0289,7.9574,7.9953,8.0441,7.9771,7.9342,7.8815,7.7646,7.7032,7.6804,7.6804,7.6209,7.5231,7.3596,7.2398,7.1402,7.0603,7.0141,7.0021,7.038,6.9666,6.8869,6.819,6.7301,6.602,6.4093,6.3025,6.2145,6.1477,6.1266,6.1291,6.1542,6.2345,6.2822,6.2822,6.1763,6.1282,6.1575,6.07,6.0691,6.1478,6.1741,6.2122,6.2647,6.3841,6.4391,6.4304,6.1822,6.0722,6.0655,5.8149,5.7039,5.6874,5.4379,5.3371,5.318,5.1891,5.1426,5.1426,5.1426,5.1426,5.1465,8.0329,7.9458,7.87,7.87,7.7779,7.7026,7.7026,7.6266,7.5709,7.5709,7.5709,7.558,7.5388,7.5112,7.4966,7.4966,7.4966,7.4966,7.4966,7.4966,7.5234,7.5954,7.4794,7.4825,7.6222,7.6386,7.751,7.9785,7.9785,7.9785,7.9785,7.9546,8.0081,8.1255,8.1389,8.1146,8.0598,8.0598,7.956,7.797,7.7842,7.7714,7.7682,7.8199,7.7892,7.7334,7.885,7.9135,7.8911,7.9611,7.9144,7.8486,7.9151,7.9342,7.9215,7.8422,7.8477,7.8591,7.7755,7.7179,7.6705,7.6214,7.5677,7.5115,7.488,7.402,7.32,7.2892,7.1762,7.0889,7.0889,7.0889,7.0759,7.0468,6.9153,6.7878,6.7232,6.571,6.3993,6.2115,6.1891,6.1448,6.0418,6.0839,6.1416,6.1969,6.2521,6.2659,6.2224,6.0362,5.9185,5.8832,5.7334,5.6776,5.7447,5.7783,5.823,5.8814,6.0452,6.1464,6.1733,5.9271,5.8171,5.8079,5.5565,5.4453,5.4284,5.2258,5.1426,5.1426,5.1426,5.1426,5.1426,5.1426,5.1484,5.1601,7.9222,7.8328,7.752,7.752,7.6645,7.5913,7.5913,7.5771,7.5709,7.5709,7.5709,7.5243,7.4038,7.2757,7.1982,7.1982,7.1982,7.1982,7.1982,7.1982,7.2047,7.2144,7.2507,7.3105,7.3931,7.4518,7.5923,7.8238,7.8238,7.8238,7.8184,7.686,7.6306,7.6532,7.7202,7.7706,7.8174,7.8233,7.8404,7.8643,7.8034,7.7425,7.6854,7.695,7.6029,7.4965,7.7214,7.8683,7.9643,7.9771,7.8721,7.7457,7.7581,7.7676,7.7488,7.6739,7.7997,7.9195,7.7275,7.7147,7.6947,7.4306,7.3659,7.3261,7.1855,7.2455,7.2922,7.1503,7.1018,7.0889,7.0889,7.0889,7.0337,6.8721,6.8248,6.6955,6.3611,6.2978,6.204,6.015,5.9869,5.9993,6.0261,6.0839,6.1416,6.1969,6.2521,6.1952,5.9919,5.9475,5.8562,5.6923,5.6639,5.6955,5.7872,5.7962,5.823,5.8814,5.6946,5.7224,5.918,5.676,5.5565,5.5471,5.3008,5.1891,5.1891,5.1523,5.1426,5.1426,5.1426,5.1426,5.1426,5.1426,5.166,5.2012,7.8034,7.716,7.6404,7.6404,7.602,7.5709,7.5709,7.5064,7.4505,7.4505,7.382,7.307,7.2441,7.1799,7.1388,7.1388,7.1388,7.1388,7.1388,7.1388,7.174,7.254,7.2015,7.206,7.281,7.3533,7.4111,7.4774,7.6015,7.6636,7.6604,7.5924,7.5803,7.6246,7.6566,7.6414,7.589,7.5858,7.5338,7.4375,7.4097,7.3725,7.3509,7.388,7.3807,7.372,7.5504,7.6533,7.7092,7.7027,7.6599,7.5966,7.5966,7.5966,7.5905,7.5565,7.6222,7.6749,7.5484,7.536,7.5169,7.3449,7.3043,7.2759,7.1713,7.1982,7.2183,7.1108,7.0889,7.0889,7.0889,7.0045,6.9086,6.8248,6.6328,6.4337,6.2609,6.1467,6.0431,5.956,5.9759,6.0186,6.0738,6.1316,6.1359,6.0578,6.0681,5.9979,5.7826,5.65,5.5512,5.4917,5.3872,5.3488,5.3997,5.4247,5.4476,5.4663,5.3562,5.4379,5.6688,5.4189,5.2988,5.2988,5.1891,5.1426,5.1426,5.1426,5.1426,5.1426,5.1426,5.1426,5.1426,5.1426,5.1562,5.1777]}]]